     2              OBSERVATION DATA    GPS                 RINEX VERSION / TYPE
teqc 2000Jul20 Karen Wendt 20040107 20:29:59UTC             PGM / RUN BY / DATE
                                                            COMMENT
L2: 1 -> 1; 150 -> 5; 250 -> 9                              COMMENT
L2: 1 -> 1; 150 -> 5; 250 -> 9                              COMMENT
L2: 1 -> 1; 150 -> 5; 250 -> 9                              COMMENT
L2: 1 -> 1; 150 -> 5; 250 -> 9                              COMMENT
L2: 1 -> 1; 150 -> 5; 250 -> 9                              COMMENT
L2: 1 -> 1; 150 -> 5; 250 -> 9                              COMMENT
L2: 1 -> 1; 150 -> 5; 250 -> 9                              COMMENT
L2: 1 -> 1; 150 -> 5; 250 -> 9                              COMMENT
L2: 1 -> 1; 150 -> 5; 250 -> 9                              COMMENT
L2: 1 -> 1; 150 -> 5; 250 -> 9                              COMMENT
L2: 1 -> 1; 150 -> 5; 250 -> 9                              COMMENT
L2: 1 -> 1; 150 -> 5; 250 -> 9                              COMMENT
L2: 1 -> 1; 150 -> 5; 250 -> 9                              COMMENT
L2: 1 -> 1; 150 -> 5; 250 -> 9                              COMMENT
Original Marker Name: 2076 2076_stmpd_SLO-01_PM53.8_GPS-7_19COMMENT
Campaign Name: USGS San Simeon 2003-2004                    COMMENT
4-Character Station Name: 2076                              COMMENT
6-Character Antenna Code: DMRCHT                            COMMENT
Vertical Measurement Point: BCR                             COMMENT
Vertical Offset to Rinex Ref. Point: 0.0348                 COMMENT
Radial Measurement Point: ECF                               COMMENT
Radial Offset to Rinex Ref. Point: 0.1897                   COMMENT
Antenna Height from Field Measurement: 0.5840 m             COMMENT
Additional Antenna Identification Info.:                    COMMENT
Turborogue and Ashtech Choke Ring                           COMMENT
Original XYZ: -2684307.1778 -4443825.2421 3692670.3336      COMMENT
New XYZ position is based on association with SCEC monument COMMENT
E1F0L6J2+0011. Position of that monument is believed to be  COMMENT
valid to within 1 m horizontally; vertical accuracy         COMMENT
should be no worse than 3-times this value.                 COMMENT
                                                            COMMENT
Revised Rinex header created by UCSD GPS archive for        COMMENT
GSAC on 20-Apr-2005 (2005:110) 16:28:18 GMT                 COMMENT
For assistance contact dagnew@ucsd.edu                      COMMENT
or anderson@python.ucsd.edu                                 COMMENT
                                                            COMMENT
SLO 01 PM53.8 GPS7 1986                                     MARKER NAME
JLS US GEOLOGICAL SURVEY                                    OBSERVER / AGENCY
ZE120023202 ASHTECH UZ-12 ZE00                              REC # / TYPE / VERS
CR520031626 DORNE-MARGOL. TYPE T                            ANT # / TYPE
 -2684321.0000 -4443797.0000  3692656.0000                  APPROX POSITION XYZ
        0.5175        0.0000        0.0000                  ANTENNA: DELTA H/E/N
     1     1     0                                          WAVELENGTH FACT L1/2
     5    C1    L1    L2    P1    P2                        # / TYPES OF OBSERV
    30                                                      INTERVAL
  2004     1     1     0     0    0.000000                  TIME OF FIRST OBS
  2004     1     1    23    59   30.000000                  TIME OF LAST OBS
                                                            END OF HEADER
 04  1  1  0  0  0.0000000  0  6G17G30G10G 5G 6G24
  20538629.834   -24732408.90044 -19256405.40542  20538630.500    20538628.183
  20464971.154   -22118499.68144 -17071856.27542  20464973.207    20464969.741
  21421515.534   -17635296.14243 -13702989.49042  21421516.460    21421514.884
  20500697.765   -26588298.86444 -20712912.54642  20500698.762    20500696.172
  22617160.173   -16488330.08643 -12838894.93642  22617161.909    22617159.945
  21647609.736   -21380843.74143 -16643628.65242  21647610.763    21647608.866
 04  1  1  0  0 30.0000000  0  7G17G30G10G 5G 6G24G21
  20538642.211   -24732343.68444 -19256354.55542  20538642.881    20538640.576
  20457642.877   -22157009.84944 -17101864.15442  20457644.932    20457641.448
  21411930.256   -17685666.86243 -13742239.33642  21411931.177    21411929.573
  20508348.115   -26548095.96444 -20681585.61242  20508349.105    20508346.527
  22604903.450   -16552739.17643 -12889083.75342  22604905.235    22604903.223
  21660807.985   -21311486.45043 -16589583.99942  21660809.010    21660807.100
  24893610.622    -4851765.81053  -3740685.58152  24893612.379    24893613.177
 04  1  1  0  1  0.0000000  0  7G17G30G10G 5G 6G24G21
  20538735.629   -24731852.63044 -19255971.88542  20538736.309    20538733.999
  20450416.133   -22194986.42244 -17131456.24542  20450418.200    20450414.705
  21402451.536   -17735477.63343 -13781052.86642  21402452.445    21402450.839
  20516099.746   -26507360.74244 -20649843.88342  20516100.748    20516098.181
  22592663.293   -16617061.45743 -12939204.93242  22592665.038    22592663.018
  21674053.181   -21241882.55343 -16535347.18042  21674054.188    21674052.263
  24875555.709    -4946644.34943  -3814616.62842  24875557.649    24875558.270
 04  1  1  0  1 30.0000000  0  7G17G30G10G 5G 6G24G21
  20538905.653   -24730959.06844 -19255275.57142  20538906.335    20538904.010
  20443287.029   -22232449.91544 -17160648.53442  20443289.089    20443285.594
  21393075.569   -17784748.37343 -13819445.58942  21393076.483    21393074.874
  20523948.251   -26466116.44944 -20617705.46942  20523949.288    20523946.707
  22580435.480   -16681318.67743 -12989275.42542  22580437.220    22580435.183
  21687340.565   -21172056.89143 -16480937.55942  21687341.567    21687339.632
  24857524.299    -5041399.26843  -3888451.38542  24857526.161    24857526.706
 04  1  1  0  2  0.0000000  0  7G17G30G10G 5G 6G24G21
  20539152.928   -24729659.43944 -19254262.84242  20539153.612    20539151.294
  20436256.734   -22269394.17144 -17189436.22842  20436258.787    20436255.290
  21383803.665   -17833472.29043 -13857412.21742  21383804.593    21383802.966
  20531894.359   -26424359.34244 -20585167.46042  20531895.402    20531892.822
  22568220.971   -16745506.07643 -13039291.48642  22568222.713    22568220.654
  21700670.632   -21102006.98943 -16426353.21142  21700671.613    21700669.678
  24839517.329    -5136024.86143  -3962185.32342  24839519.278    24839520.000
 04  1  1  0  2 30.0000000  0  7G17G30G10G 5G 6G24G21
  20539476.530   -24727958.84544 -19252937.67542  20539477.195    20539474.881
  20429324.778   -22305821.78644 -17217821.34342  20429326.823    20429323.285
  21374635.425   -17881651.61443 -13894954.48842  21374636.311    21374634.689
  20539937.109   -26382094.47744 -20552233.79842  20539938.145    20539935.551
  22556018.988   -16809627.48343 -13089256.13342  22556020.753    22556018.701
  21714042.119   -21031739.29643 -16371599.14842  21714043.099    21714041.174
  24821534.612    -5230524.05343  -4035820.87942  24821536.501    24821537.017
 04  1  1  0  3  0.0000000  0  7G17G30G10G 5G 6G24G21
  20539876.977   -24725854.28844 -19251297.73142  20539877.649    20539875.331
  20422492.244   -22341726.88444 -17245799.30542  20422494.274    20422490.727
  21365571.939   -17929280.41343 -13932067.78942  21365572.809    21365571.166
  20548077.027   -26339318.92244 -20518902.19842  20548078.070    20548075.473
  22543830.478   -16873678.18343 -13139165.68242  22543832.243    22543830.169
  21727455.411   -20961251.96543 -16316673.94442  21727456.370    21727454.453
  24803576.846    -5324891.84243  -4109353.98442  24803578.820    24803579.169
 04  1  1  0  3 30.0000000  0  7G17G30G10G 5G 6G24G21
  20540353.535   -24723349.85644 -19249346.19842  20540354.198    20540351.882
  20415758.853   -22377110.91344 -17273371.24142  20415760.869    20415757.328
  21356613.013   -17976359.57343 -13968752.79542  21356613.875    21356612.237
  20556313.377   -26296036.68044 -20485175.78042  20556314.400    20556311.807
  22531654.871   -16937661.05843 -13189022.37542  22531656.624    22531654.569
  21740909.528   -20890550.23543 -16261581.68042  21740910.469    21740908.546
  24785643.745    -5419130.47043  -4182786.49242  24785645.658    24785645.876
 04  1  1  0  4  0.0000000  0  7G17G30G10G 5G 6G24G21
  20540906.553   -24720443.65444 -19247081.59742  20540907.232    20540904.885
  20409125.437   -22411969.54244 -17300533.77642  20409127.470    20409123.928
  21347759.670   -18022883.98243 -14005005.53042  21347760.529    21347758.884
  20564646.533   -26252245.70244 -20451052.94642  20564647.549    20564644.967
  22519492.762   -17001572.89143 -13238823.72142  22519494.541    22519492.489
  21754404.508   -20819633.45343 -16206321.84042  21754405.468    21754403.545
  24767735.815    -5513236.13143  -4256115.36642  24767737.774    24767737.969
 04  1  1  0  4 30.0000000  0  7G17G30G10G 5G 6G24G21
  20541535.876   -24717136.54644 -19244504.60442  20541536.546    20541534.185
  20402592.397   -22446300.81344 -17327285.38542  20402594.426    20402590.867
  21339012.318   -18068851.46543 -14040824.29542  21339013.178    21339011.497
  20573076.369   -26207946.70644 -20416534.25142  20573077.378    20573074.775
  22507344.323   -17065412.91543 -13288569.10342  22507346.094    22507344.036
  21767940.094   -20748503.50643 -16150895.90542  21767941.047    21767939.109
  24749853.628    -5607207.23943  -4329339.38242  24749855.552    24749855.552
 04  1  1  0  5  0.0000000  0  7G17G30G10G 5G 6G24G21
  20542240.139   -24713435.52344 -19241620.66042  20542240.813    20542238.453
  20396158.879   -22480109.05544 -17353629.43842  20396160.910    20396157.347
  21330370.209   -18114265.80743 -14076212.03942  21330371.089    21330369.384
  20581601.557   -26163146.63644 -20381625.10242  20581602.570    20581599.951
  22495208.538   -17129186.57843 -13338262.77142  22495210.271    22495208.249
  21781514.689   -20677168.55043 -16095310.21842  21781515.645    21781513.695
  24731996.021    -5701048.67543  -4402462.39042  24731997.955    24731997.733
 04  1  1  0  5 30.0000000  0  7G17G30G10G 5G 6G24G21
  20543020.676   -24709333.65944 -19238424.38042  20543021.338    20543018.982
  20389826.640   -22513385.07544 -17379558.77442  20389828.668    20389825.097
  21321835.268   -18159117.08343 -14111161.03342  21321836.133    21321834.409
  20590223.313   -26117839.00844 -20346320.46142  20590224.338    20590221.708
  22483086.881   -17192885.72543 -13387898.37142  22483088.620    22483086.611
  21795129.382   -20605622.84143 -16039560.31442  21795130.319    21795128.397
  24714164.800    -5794752.01943  -4475477.80642  24714166.621    24714166.489
 04  1  1  0  6  0.0000000  0  7G17G30G10G 5G 6G24G21
  20543876.481   -24704836.17344 -19234919.81842  20543877.167    20543874.787
  20383595.248   -22546131.15244 -17405075.16742  20383597.265    20383593.672
  21313407.093   -18203407.27743 -14145672.82242  21313407.978    21313406.213
  20598940.714   -26072028.73244 -20310624.13642  20598941.739    20598939.121
  22470978.766   -17256513.97043 -13437478.72742  22470980.489    22470978.454
  21808783.019   -20533872.45143 -15983650.91342  21808783.967    21808782.045
  24696359.267    -5888319.67043  -4548387.52842  24696361.071    24696360.892
 04  1  1  0  6 30.0000000  0  7G17G30G10G 5G 6G24G21
  20544807.243   -24699944.91444 -19231108.42042  20544807.909    20544805.528
  20377464.842   -22578346.60944 -17430178.09242  20377466.853    20377463.231
  21305085.847   -18247135.50043 -14179746.71842  21305086.721    21305084.957
  20607753.415   -26025717.70244 -20274537.61742  20607754.431    20607751.808
  22458884.129   -17320071.45943 -13487003.95542  22458885.836    22458883.765
  21822475.045   -20461920.42843 -15927584.39842  21822475.984    21822474.040
  24678579.640    -5981751.77243  -4621191.59342  24678581.414    24678581.119
 04  1  1  0  7  0.0000000  0  7G17G30G10G 5G 6G24G21
  20545813.342   -24694657.62944 -19226988.43042  20545814.021    20545811.640
  20371436.290   -22610026.73644 -17454863.87642  20371438.294    20371434.675
  21296872.535   -18290296.62243 -14213378.71442  21296873.394    21296871.599
  20616661.739   -25978903.98144 -20238059.38842  20616662.801    20616660.164
  22446803.637   -17383554.61643 -13536471.26642  22446805.336    22446803.225
  21836205.603   -20389765.90943 -15871360.09542  21836206.531    21836204.584
  24660826.619    -6075044.21343  -4693886.85942  24660828.250    24660828.007
 04  1  1  0  7 30.0000000  0  7G17G30G10G 5G 6G24G21
  20546893.945   -24688978.76644 -19222563.31542  20546894.638    20546892.246
  20365509.271   -22641173.35444 -17479133.94242  20365511.272    20365507.624
  21288766.896   -18332891.84543 -14246569.73742  21288767.755    21288765.943
  20625664.965   -25931591.63044 -20201192.61342  20625666.037    20625663.411
  22434736.779   -17446966.34043 -13585882.92142  22434738.435    22434736.301
  21849973.625   -20317414.48943 -15814982.36742  21849974.551    21849972.616
  24643099.706    -6168198.96443  -4766474.80042  24643101.297    24643101.324
 04  1  1  0  8  0.0000000  0  7G17G30G10G 5G 6G24G21
  20548049.254   -24682907.48544 -19217832.41642  20548049.939    20548047.553
  20359684.445   -22671782.91744 -17502985.51842  20359686.459    20359682.786
  21280769.698   -18374917.10543 -14279316.63342  21280770.576    21280768.758
  20634763.220   -25883779.93744 -20163936.74042  20634764.268    20634761.673
  22422683.953   -17510304.11743 -13635236.95342  22422685.605    22422683.459
  21863779.132   -20244865.91143 -15758451.00642  21863780.093    21863778.127
  24625399.578    -6261213.48343  -4838953.51842  24625400.988    24625400.976
 04  1  1  0  8 30.0000000  0  7G17G30G10G 5G 6G24G21
  20549279.153   -24676444.25344 -19212796.10742  20549279.829    20549277.430
  20353962.218   -22701853.37744 -17526417.02342  20353964.210    20353960.542
  21272881.421   -18416370.04243 -14311617.56842  21272882.284    21272880.470
  20643956.456   -25835469.20244 -20126292.01242  20643957.487    20643954.897
  22410645.414   -17573566.86143 -13684532.52442  22410647.049    22410644.883
  21877621.851   -20172121.88743 -15701767.35642  21877622.813    21877620.859
  24607726.379    -6354085.88843  -4911321.46042  24607727.783    24607727.890
 04  1  1  0  9  0.0000000  0  7G17G30G10G 5G 6G24G21
  20550583.714   -24669588.65844 -19207454.05642  20550584.387    20550581.989
  20348343.063   -22731382.00244 -17549426.31242  20348345.072    20348341.396
  21265102.677   -18457247.40843 -14343470.00442  21265103.532    21265101.722
  20653244.611   -25786659.56044 -20088258.52142  20653245.639    20653243.082
  22398621.472   -17636752.80243 -13733768.24742  22398623.125    22398620.923
  21891501.664   -20099182.93543 -15644931.80842  21891502.600    21891500.695
  24590080.716    -6446813.88443  -4983576.88142  24590082.036    24590082.113
 04  1  1  0  9 30.0000000  0  7G17G30G10G 5G 6G24G21
  20551961.636   -24662347.48844 -19201811.55742  20551962.314    20551959.912
  20342826.285   -22760372.70044 -17572016.43542  20342828.296    20342824.630
  21257432.687   -18497553.10143 -14374876.97942  21257433.573    21257431.760
  20662626.473   -25737357.52844 -20049841.35142  20662627.501    20662624.937
  22386611.220   -17699866.80443 -13782947.91742  22386612.876    22386610.668
  21905417.084   -20026056.93843 -15587950.50942  21905418.012    21905416.100
  24572461.757    -6539401.73343  -5055723.11342  24572462.992    24572463.099
 04  1  1  0 10  0.0000000  0  7G17G30G10G 5G 6G24G21
  20553414.098   -24654714.79244 -19195863.97542  20553414.755    20553412.335
  20337413.442   -22788817.19744 -17594180.95242  20337415.450    20337411.797
  21249873.169   -18537278.46543 -14405831.74942  21249874.024    21249872.221
  20672103.110   -25687557.47544 -20011036.11442  20672104.134    20672101.582
  22374616.104   -17762901.32243 -13832065.64942  22374617.762    22374615.527
  21919369.021   -19952739.10443 -15530819.73042  21919369.903    21919368.025
  24554870.864    -6631841.62543  -5127754.06242  24554872.165    24554872.139
 04  1  1  0 10 30.0000000  0  7G17G30G10G 5G 6G24G21
  20554939.345   -24646699.38144 -19189618.17542  20554940.030    20554937.595
  20332103.383   -22816721.67744 -17615924.66842  20332105.382    20332101.735
  21242422.996   -18576429.13443 -14436338.70742  21242423.851    21242422.050
  20681672.874   -25637268.00244 -19971849.51342  20681673.880    20681671.345
  22362634.746   -17825863.37543 -13881126.92142  22362636.411    22362634.180
  21933355.604   -19879239.06643 -15473546.97642  21933356.488    21933354.606
  24537306.815    -6724140.35143  -5199674.99142  24537308.179    24537308.110
 04  1  1  0 11  0.0000000  0  7G17G30G10G 5G 6G24G21
  20556538.531   -24638295.53444 -19183069.69542  20556539.207    20556536.776
  20326897.588   -22844078.14444 -17637241.36442  20326899.611    20326895.954
  21235083.804   -18614996.65543 -14466391.26242  21235084.658    21235082.852
  20691336.757   -25586483.85544 -19932277.44842  20691337.782    20691335.255
  22350668.539   -17888746.00043 -13930126.29942  22350670.198    22350667.913
  21947377.809   -19805551.93243 -15416128.43142  21947378.667    21947376.798
  24519771.078    -6816290.40943  -5271480.09042  24519772.595    24519772.337
 04  1  1  0 11 30.0000000  0  7G17G30G10G 5G 6G24G21
  20558210.685   -24629508.16844 -19176222.37142  20558211.382    20558208.910
  20321795.695   -22870888.57144 -17658132.57242  20321797.715    20321794.071
  21227855.310   -18652982.46743 -14495990.54042  21227856.162    21227854.346
  20701093.970   -25535209.31144 -19892323.25542  20701094.993    20701092.479
  22338716.935   -17951551.93243 -13979065.91642  22338718.568    22338716.268
  21961434.493   -19731683.50843 -15358568.61942  21961435.359    21961433.492
  24502263.292    -6908293.93943  -5343171.00242  24502264.737    24502264.481
 04  1  1  0 12  0.0000000  0  7G17G30G10G 5G 6G24G21
  20559955.892   -24620337.04844 -19169076.01842  20559956.572    20559954.091
  20316798.181   -22897150.51344 -17678596.38842  20316800.202    20316796.562
  21220738.038   -18690383.81343 -14525134.39142  21220738.898    21220737.061
  20710944.386   -25483445.04344 -19851987.45142  20710945.407    20710942.891
  22326780.252   -18014279.43143 -14027944.42542  22326781.868    22326779.545
  21975525.481   -19657634.92643 -15300868.42742  21975526.339    21975524.452
  24484783.692    -7000149.18543  -5414746.36742  24484785.075    24484784.883
 04  1  1  0 12 30.0000000  0  7G17G30G10G 5G 6G24G21
  20561773.739   -24610783.96244 -19161632.03042  20561774.455    20561771.960
  20311905.221   -22922863.13644 -17698632.16242  20311907.221    20311903.590
  21213732.205   -18727199.67543 -14553822.02442  21213733.038    21213731.181
  20720887.681   -25431192.63744 -19811271.28242  20720888.706    20720886.177
  22314858.454   -18076928.66543 -14076761.94742  22314860.041    22314857.715
  21989650.190   -19583408.95543 -15243030.00342  21989651.070    21989649.176
  24467332.596    -7091855.30143  -5486205.54442  24467333.892    24467333.482
 04  1  1  0 13  0.0000000  0  7G17G30G10G 5G 6G24G21
  20563668.447   -24600827.19444 -19153873.48242  20563669.147    20563666.653
  20307121.327   -22948002.49144 -17718221.23542  20307123.329    20307119.696
  21206842.342   -18763405.84943 -14582034.57342  21206843.199    21206841.320
  20730927.997   -25378430.47344 -19770157.90542  20730929.004    20730926.483
  22302955.970   -18139476.45143 -14125500.42842  22302957.553    22302955.194
  22003812.677   -19508984.52743 -15185036.93842  22003813.559    22003811.667
  24449914.282    -7183388.85643  -5557530.25242  24449915.577    24449915.049
 04  1  1  0 13 30.0000000  0  7G17G30G10G 5G 6G24G21
  20565630.883   -24590514.40744 -19145837.51742  20565631.593    20565629.081
  20302438.008   -22972613.47244 -17737398.58642  20302440.001    20302436.340
  21200060.047   -18799046.85543 -14609806.73442  21200060.897    21200058.999
  20741056.239   -25325206.27244 -19728684.49942  20741057.235    20741054.694
  22291064.090   -18201968.26243 -14174195.28142  22291065.713    22291063.329
  22018003.717   -19434410.02743 -15126926.93442  22018004.616    22018002.714
  24432520.165    -7274795.00943  -5628755.62442  24432521.533    24432520.943
 04  1  1  0 14  0.0000000  0  7G17G30G10G 5G 6G24G21
  20567666.194   -24579818.65444 -19137503.13642  20567666.906    20567664.386
  20297860.775   -22996666.84744 -17756141.44242  20297862.783    20297859.096
  21193390.984   -18834092.80243 -14637115.21542  21193391.843    21193389.918
  20751277.478   -25271493.40544 -19686830.32242  20751278.454    20751275.898
  22279188.290   -18264375.69043 -14222824.39042  22279189.927    22279187.544
  22032228.209   -19359659.69643 -15068679.91442  22032229.128    22032227.204
  24415155.753    -7366044.85043  -5699859.22042  24415157.126    24415156.453
 04  1  1  0 14 30.0000000  0  7G17G30G10G 5G 6G24G21
  20569772.964   -24568747.39144 -19128876.15342  20569773.671    20569771.168
  20293388.733   -23020167.49344 -17774453.60242  20293390.745    20293387.043
  21186834.296   -18868548.25043 -14663963.56542  21186835.137    21186833.205
  20761590.195   -25217299.65444 -19644601.43142  20761591.199    20761588.623
  22267327.537   -18326704.25843 -14271392.05042  22267329.170    22267326.745
  22046484.634   -19284741.52943 -15010302.11342  22046485.589    22046483.635
  24397820.036    -7457143.92043  -5770845.28142  24397821.347    24397820.785
 04  1  1  0 15  0.0000000  0  7G17G30G10G 5G 6G24G21
  20571951.924   -24557296.77444 -19119953.57042  20571952.640    20571950.118
  20289023.016   -23043109.41244 -17792330.39042  20289025.029    20289021.312
  21180391.166   -18902406.93143 -14690346.89842  21180392.011    21180390.065
  20771995.152   -25162621.24444 -19601994.87642  20771996.154    20771993.576
  22255482.861   -18388948.40443 -14319893.92542  22255484.467    22255482.015
  22060773.487   -19209653.14443 -14951791.67642  22060774.421    22060772.477
  24380514.128    -7548086.15743  -5841709.17642  24380515.511    24380514.793
 04  1  1  0 15 30.0000000  0  7G17G30G10G 5G 6G24G21
  20574202.057   -24545472.12744 -19110739.53342  20574202.752    20574200.264
  20284763.097   -23065495.26944 -17809773.88442  20284765.140    20284761.389
  21174061.101   -18935671.42743 -14716267.22942  21174061.950    21174059.989
  20782491.331   -25107463.44744 -19559014.76742  20782492.338    20782489.753
  22243653.562   -18451111.48443 -14368332.63242  22243655.193    22243652.729
  22075093.702   -19134399.84543 -14893152.73942  22075094.638    22075092.703
  24363237.393    -7638874.84743  -5912453.38942  24363238.757    24363238.158
 04  1  1  0 16  0.0000000  0  7G17G30G10G 5G 6G24G21
  20576523.375   -24533273.44344 -19101234.03842  20576524.058    20576521.581
  20280609.433   -23087322.82744 -17826782.34342  20280611.453    20280607.702
  21167844.623   -18968338.95943 -14741722.39642  21167845.482    21167843.504
  20793078.667   -25051826.55744 -19515661.34042  20793079.690    20793077.094
  22231840.002   -18513191.83843 -14416706.87742  22231841.650    22231839.172
  22089445.030   -19058983.02043 -14834386.36742  22089445.985    22089444.032
  24345990.378    -7729507.74743  -5983076.23542  24345991.742    24345991.068
 04  1  1  0 16 30.0000000  0  7G17G30G10G 5G 6G24G21
  20578916.095   -24520699.45344 -19091436.09842  20578916.773    20578914.310
  20276562.713   -23108588.31044 -17843352.82242  20276564.748    20276560.981
  21161742.504   -19000405.62543 -14766709.35342  21161743.356    21161741.376
  20803757.381   -24995709.55044 -19471933.79842  20803758.406    20803755.799
  22220042.775   -18575186.40243 -14465014.27042  22220044.411    22220041.946
  22103827.645   -18983401.99843 -14775492.05642  22103828.569    22103826.628
  24328773.755    -7819981.22343  -6053574.83242  24328775.044    24328774.261
 04  1  1  0 17  0.0000000  0  7G17G30G10G 5G 6G24G21
  20581379.232   -24507755.59144 -19081349.95442  20581379.899    20581377.411
  20272622.384   -23129294.77944 -17859487.71042  20272624.409    20272620.642
  21155754.215   -19031874.04143 -14791230.14242  21155755.072    21155753.082
  20814526.341   -24939118.08544 -19427836.55842  20814527.387    20814524.804
  22208261.210   -18637098.73743 -14513257.59342  22208262.837    22208260.377
  22118240.298   -18907663.05643 -14716474.70542  22118241.216    22118239.245
  24311586.658    -7910299.15743  -6123952.24442  24311588.022    24311587.064
 04  1  1  0 17 30.0000000  0  7G17G30G10G 5G 6G24G21
  20583913.230   -24494439.21744 -19070973.53242  20583913.882    20583911.405
  20268789.379   -23149437.18044 -17875183.05942  20268791.395    20268787.649
  21149880.814   -19062738.90843 -14815280.63442  21149881.654    21149879.625
  20825386.098   -24882049.62344 -19383367.62542  20825387.141    20825384.557
  22196496.142   -18698924.43243 -14561433.39842  22196497.770    22196495.288
  22132683.298   -18831764.51143 -14657332.97242  22132684.232    22132682.277
  24294430.049    -8000456.65043  -6194204.64242  24294431.431    24294430.489
 04  1  1  0 18  0.0000000  0  7G17G30G10G 5G 6G24G21
  20586517.209   -24480754.95244 -19060310.44542  20586517.880    20586515.403
  20265063.286   -23169017.90744 -17890440.74742  20265065.287    20265061.529
  21144121.855   -19093002.11643 -14838862.29842  21144122.711    21144120.664
  20836335.648   -24824509.31944 -19338531.02642  20836336.699    20836334.091
  22184747.053   -18760666.04143 -14609543.68342  22184748.694    22184746.198
  22147155.688   -18755711.57543 -14598070.94342  22147156.620    22147154.666
  24277303.564    -8090456.12543  -6264333.91442  24277305.002    24277303.963
 04  1  1  0 18 30.0000000  0  7G17G30G10G 5G 6G24G21
  20589191.607   -24466700.72444 -19049359.07742  20589192.277    20589189.799
  20261444.890   -23188032.66244 -17905257.41642  20261446.868    20261443.120
  21138478.269   -19122659.19743 -14861971.66142  21138479.123    21138477.046
  20847375.382   -24766495.24144 -19293325.25542  20847376.421    20847373.816
  22173014.697   -18822319.71843 -14657585.45342  22173016.343    22173013.825
  22161657.681   -18679502.96743 -14538687.60642  22161658.637    22161656.697
  24260208.054    -8180293.18243  -6334336.61942  24260209.387    24260208.334
 04  1  1  0 19  0.0000000  0  7G17G30G10G 5G 6G24G21
  20591936.068   -24452278.38044 -19038120.86642  20591936.735    20591934.270
  20257934.327   -23206480.76644 -17919632.53642  20257936.310    20257932.535
  21132950.215   -19151709.12843 -14884607.92642  21132951.065    21132948.957
  20858504.851   -24708009.43744 -19247751.90742  20858505.876    20858503.291
  22161299.090   -18883885.34143 -14705558.60742  22161300.736    22161298.228
  22176188.802   -18603141.43643 -14479185.11542  22176189.748    22176187.819
  24243143.379    -8269967.91243  -6404212.84042  24243144.670    24243143.761
 04  1  1  0 19 30.0000000  0  7G17G30G10G 5G 6G24G21
  20594749.832   -24437491.89744 -19026598.91042  20594750.485    20594748.014
  20254531.243   -23224363.91444 -17933567.43342  20254533.226    20254529.465
  21127537.439   -19180153.30143 -14906772.17042  21127538.281    21127536.150
  20869723.320   -24649055.91244 -19201814.10042  20869724.346    20869721.792
  22149599.852   -18945365.04343 -14753464.81342  22149601.488    22149598.971
  22190748.210   -18526631.22043 -14419566.76242  22190749.174    22190747.221
  24226109.382    -8359481.54543  -6473963.57242  24226110.662    24226109.621
 04  1  1  0 20  0.0000000  0  7G17G30G10G 5G 6G24G21
  20597633.319   -24422338.99344 -19014791.42942  20597633.987    20597631.488
  20251236.568   -23241677.40044 -17947058.43742  20251238.580    20251234.781
  21122240.837   -19207986.86743 -14928460.61742  21122241.675    21122239.540
  20881031.168   -24589632.80044 -19155510.37542  20881032.183    20881029.631
  22137917.779   -19006754.46443 -14801300.66642  22137919.399    22137916.876
  22205336.192   -18449970.75143 -14359831.33442  22205337.164    22205335.234
  24209106.805    -8448829.89343  -6543585.52242  24209108.039    24209106.907
 04  1  1  0 20 30.0000000  0  7G17G30G10G 5G 6G24G21
  20600585.499   -24406825.22944 -19002702.76042  20600586.139    20600583.648
  20248049.623   -23258424.86144 -17960108.37842  20248051.626    20248047.818
  21117059.824   -19235213.05543 -14949675.77842  21117060.674    21117058.501
  20892427.205   -24529746.06644 -19108845.38642  20892428.237    20892425.707
  22126252.168   -19068057.31043 -14849069.05842  22126253.785    22126251.259
  22219951.519   -18373166.76643 -14299984.07042  22219952.495    22219950.550
  24192134.971    -8538016.49743  -6613081.42642  24192136.234    24192135.173
 04  1  1  0 21  0.0000000  0  7G17G30G10G 5G 6G24G21
  20603607.045   -24390946.85744 -18990329.98542  20603607.691    20603605.167
  20244971.608   -23274599.96244 -17972712.32742  20244973.587    20244969.785
  21111995.625   -19261825.44343 -14970412.65342  21111996.456    21111994.294
  20903912.197   -24469392.08644 -19061816.31542  20903913.213    20903910.692
  22114604.136   -19129267.81743 -14896765.50442  22114605.761    22114603.218
  22234594.721   -18296216.14043 -14240022.54242  22234595.712    22234593.798
  24175195.122    -8627035.22443  -6682446.53542  24175196.308    24175195.208
 04  1  1  0 21 30.0000000  0  7G17G30G10G 5G 6G24G21
  20606696.688   -24374710.53444 -18977678.28642  20606697.349    20606694.816
  20242001.627   -23290207.23244 -17984873.81042  20242003.595    20241999.787
  21107047.399   -19287828.26443 -14990674.53242  21107048.247    21107046.083
  20915484.739   -24408577.82544 -19014428.58342  20915485.778    20915483.251
  22102972.813   -19190390.65943 -14944393.63742  22102974.445    22102971.855
  22249264.471   -18219125.99043 -14179952.28942  22249265.478    22249263.560
  24158286.367    -8715890.82043  -6751684.52642  24158287.572    24158286.448
 04  1  1  0 22  0.0000000  0  7G17G30G10G 5G 6G24G21
  20609855.228   -24358112.24044 -18964744.53442  20609855.868    20609853.348
  20239140.854   -23305240.44744 -17996587.98142  20239142.850    20239139.031
  21102216.445   -19313214.88643 -15010456.26142  21102217.304    21102215.126
  20927145.647   -24347299.48144 -18966679.22642  20927146.667    20927144.144
  22091359.286   -19251419.82743 -14991948.77942  22091360.929    22091358.321
  22263961.429   -18141892.97543 -14119770.72442  22263962.449    22263960.527
  24141409.664    -8804577.35643  -6820790.77042  24141410.982    24141409.870
 04  1  1  0 22 30.0000000  0  7G17G30G10G 5G 6G24G21
  20613082.296   -24341153.80244 -18951530.14742  20613082.940    20613080.391
  20236389.433   -23319699.09644 -18007854.43742  20236391.432    20236387.617
  21097502.886   -19337984.60143 -15029757.28442  21097503.734    21097501.546
  20938894.396   -24285559.40144 -18918570.07042  20938895.419    20938892.881
  22079763.616   -19312355.12843 -15039430.77442  22079765.279    22079762.662
  22278685.130   -18064519.50643 -14059479.70542  22278686.108    22278684.224
  24124565.397    -8893094.25443  -6889764.82642  24124566.627    24124565.517
 04  1  1  0 23  0.0000000  0  7G17G30G10G 5G 6G24G21
  20616376.294   -24323843.72544 -18938041.75642  20616376.926    20616374.364
  20233746.137   -23333589.65044 -18018678.22442  20233748.108    20233744.309
  21092905.496   -19362143.76143 -15048582.55342  21092906.356    21092904.173
  20950729.367   -24223366.27944 -18870107.90242  20950730.362    20950727.831
  22068184.568   -19373203.19343 -15086844.79742  22068186.224    22068183.610
  22293433.761   -17987015.02243 -13999086.60642  22293434.719    22293432.840
  24107752.130    -8981447.91743  -6958611.68642  24107753.485    24107752.283
 04  1  1  0 23 30.0000000  0  7G17G30G10G 5G 6G24G21
  20619738.875   -24306173.21844 -18924272.51342  20619739.477    20619736.936
  20231213.053   -23346900.99844 -18029050.68542  20231215.032    20231211.232
  21088426.487   -19385681.02643 -15066923.22642  21088427.325    21088425.132
  20962652.147   -24160711.76644 -18821286.20542  20962653.133    20962650.600
  22056624.195   -19433953.17643 -15134182.39742  22056625.848    22056623.232
  22308208.897   -17909371.16943 -13938584.90242  22308209.857    22308207.969
  24090972.120    -9069627.32043  -7027322.77542  24090973.429    24090972.060
 04  1  1  0 24  0.0000000  0  7G17G30G10G 5G 6G24G21
  20623168.837   -24288148.49844 -18910227.25742  20623169.460    20623166.919
  20228789.427   -23359637.12744 -18038974.91742  20228791.413    20228787.602
  21084065.129   -19408599.86443 -15084782.00542  21084065.980    21084063.765
  20974661.413   -24097602.69744 -18772110.30642  20974662.411    20974659.842
  22045081.754   -19494609.01543 -15181446.63242  22045083.389    22045080.736
  22323009.324   -17831594.44843 -13877979.66742  22323010.291    22323008.382
  24074224.264    -9157636.56043  -7095901.23042  24074225.784    24074224.405
 04  1  1  0 24 30.0000000  0  7G17G30G10G 5G 6G24G21
  20626666.326   -24269768.91244 -18895905.48742  20626666.957    20626664.405
  20226475.747   -23371795.59544 -18048449.03342  20226477.718    20226473.907
  21079821.953   -19430897.75143 -15102156.93542  21079822.801    21079820.589
  20986757.361   -24034038.20544 -18722579.54042  20986758.339    20986755.760
  22033557.667   -19555168.38943 -15228635.70942  22033559.270    22033556.620
  22337834.987   -17753685.28843 -13817271.23642  22337835.918    22337834.002
  24057509.297    -9245473.17843  -7164345.17242  24057510.861    24057509.509
 04  1  1  0 25  0.0000000  0  7G17G30G10G 5G 6G24G21
  20630230.058   -24251041.24344 -18881312.47742  20630230.707    20630228.138
  20224271.139   -23383380.72244 -18057476.38542  20224273.126    20224269.309
  21075696.135   -19452578.94543 -15119051.31642  21075696.977    21075694.726
  20998938.569   -23970025.48944 -18672699.49642  20998939.572    20998936.963
  22022051.062   -19615635.79043 -15275753.11142  22022052.678    22022050.000
  22352684.438   -17675650.81443 -13756465.15342  22352685.363    22352683.490
  24040826.360    -9333141.80243  -7232658.21142  24040828.071    24040826.631
 04  1  1  0 25 30.0000000  0  7G17G30G10G 5G 6G24G21
  20633861.045   -24231960.28144 -18866444.17642  20633861.689    20633859.101
  20222177.028   -23394385.30544 -18066051.36842  20222179.014    20222175.199
  21071689.103   -19473635.88443 -15135459.27242  21071689.947    21071687.677
  21011205.934   -23905560.13844 -18622466.76442  21011206.927    21011204.307
  22010563.374   -19676003.87243 -15322793.13242  22010564.983    22010562.283
  22367558.595   -17597486.43543 -13695557.84842  22367559.527    22367557.674
  24024176.908    -9420634.80543  -7300834.42342  24024178.620    24024177.133
 04  1  1  0 26  0.0000000  0  7G17G30G10G 5G 6G24G21
  20637558.609   -24212529.41244 -18851303.21742  20637559.246    20637556.667
  20220193.179   -23404810.53744 -18074174.90842  20220195.156    20220191.324
  21067800.623   -19494069.72243 -15151381.69542  21067801.493    21067799.178
  21023558.805   -23840645.44544 -18571883.88542  21023559.798    21023557.180
  21999094.349   -19736273.82543 -15369756.68342  21999095.953    21999093.236
  22382456.792   -17519195.94943 -13634552.27942  22382457.720    22382455.866
  24007560.557    -9507953.78043  -7368875.02842  24007562.258    24007560.670
 04  1  1  0 26 30.0000000  0  7G17G30G10G 5G 6G24G21
  20641321.803   -24192753.68844 -18835893.54442  20641322.452    20641319.850
  20218319.019   -23414659.26244 -18081849.22642  20218321.000    20218317.153
  21064030.228   -19513883.15143 -15166820.69342  21064031.073    21064028.754
  21035996.116   -23775287.08344 -18520955.29442  21035997.113    21035994.466
  21987643.469   -19796448.65143 -15416646.12342  21987645.046    21987642.304
  22397377.960   -17440784.74843 -13573452.65042  22397378.859    22397377.012
  23990976.874    -9595100.89943  -7436781.70042  23990978.587    23990976.978
 04  1  1  0 27  0.0000000  0  7G17G30G10G 5G 6G24G21
  20645151.556   -24172628.07444 -18820211.22542  20645152.218    20645149.622
  20216555.871   -23423924.75144 -18089069.07242  20216557.835    20216553.965
  21060379.256   -19533068.96943 -15181770.63042  21060380.106    21060377.774
  21048518.675   -23709480.59844 -18469677.51542  21048519.684    21048517.016
  21976211.936   -19856521.65143 -15463456.21242  21976213.506    21976210.750
  22412322.835   -17362248.99543 -13512255.96642  22412323.691    22412321.846
  23974427.139    -9682069.98543  -7504549.67642  23974428.910    23974427.093
 04  1  1  0 27 30.0000000  0  7G17G30G10G 5G 6G24G21
  20649046.830   -24152158.18944 -18804260.64442  20649047.488    20649044.883
  20214903.029   -23432610.40144 -18095837.09242  20214905.010    20214901.099
  21056847.107   -19551630.40143 -15196234.03542  21056847.940    21056845.613
  21061125.347   -23643232.00444 -18418055.23442  21061126.362    21061123.706
  21964799.184   -19916495.95343 -15510189.39342  21964800.748    21964797.982
  22427290.330   -17283594.21843 -13450966.53642  22427291.206    22427289.343
  23957910.611    -9768864.02143  -7572181.23742  23957912.440    23957910.613
 04  1  1  0 28  0.0000000  0  7G17G30G10G 5G 6G24G21
  20653008.145   -24131341.31844 -18788039.68742  20653008.792    20653006.194
  20213361.482   -23440711.17244 -18102149.36942  20213363.466    20213359.551
  21053434.762   -19569562.24143 -15210206.85542  21053435.583    21053433.264
  21073816.637   -23576538.93744 -18366086.61342  21073817.639    21073814.973
  21953406.178   -19976366.36143 -15556841.62442  21953407.745    21953404.966
  22442280.935   -17204818.03743 -13389582.50642  22442281.823    22442279.936
  23941428.252    -9855478.83543  -7639673.16742  23941430.078    23941428.132
 04  1  1  0 28 30.0000000  0  7G17G30G10G 5G 6G24G21
  20657033.635   -24110187.12844 -18771555.88442  20657034.294    20657031.681
  20211929.769   -23448234.94044 -18108012.02642  20211931.742    20211927.809
  21050140.733   -19586872.27243 -15223695.14642  21050141.547    21050139.212
  21086590.508   -23509411.63444 -18313779.62342  21086591.525    21086588.878
  21942031.440   -20036140.86043 -15603419.11642  21942033.008    21942030.220
  22457292.662   -17125931.05543 -13328112.13942  22457293.520    22457291.619
  23924978.796    -9941921.15643  -7707030.71442  23924980.609    23924978.579
 04  1  1  0 29  0.0000000  0  7G17G30G10G 5G 6G24G21
  20661124.990   -24088686.80144 -18754802.36742  20661125.635    20661123.043
  20210609.839   -23455171.11344 -18113416.82142  20210611.825    20210607.885
  21046967.086   -19603549.69943 -15236690.50442  21046967.881    21046965.557
  21099448.712   -23441841.29444 -18261127.41642  21099449.724    21099447.070
  21930677.043   -20095808.36143 -15649913.23642  21930678.626    21930675.818
  22472327.006   -17046924.92243 -13266548.92842  22472327.900    22472325.997
  23908564.206   -10028180.23543  -7774245.47042  23908565.959    23908563.879
 04  1  1  0 29 30.0000000  0  7G17G30G10G 5G 6G24G21
  20665280.501   -24066849.32244 -18737786.13842  20665281.143    20665278.552
  20209400.423   -23461526.53144 -18118369.07942  20209402.400    20209398.468
  21043912.543   -19619601.21243 -15249198.13442  21043913.340    21043911.002
  21112389.378   -23373837.52844 -18208137.47142  21112390.396    21112387.776
  21919341.739   -20155375.71443 -15696329.32042  21919343.311    21919340.489
  22487382.248   -16967809.04543 -13204900.20142  22487383.153    22487381.239
  23892183.123   -10114262.98043  -7841322.82542  23892184.874    23892182.783
 04  1  1  0 30  0.0000000  0  7G17G30G10G 5G 6G24G21
  20669500.929   -24044670.78844 -18720504.15342  20669501.568    20669498.974
  20208302.681   -23467295.18044 -18122864.11542  20208304.649    20208300.701
  21040978.290   -19635020.56943 -15261213.17542  21040979.096    21040976.747
  21125413.185   -23305396.96744 -18154807.16842  21125414.195    21125411.584
  21908026.632   -20214836.61043 -15742662.44842  21908028.232    21908025.415
  22502459.113   -16888579.67843 -13143163.03842  22502460.015    22502458.068
  23875836.885   -10200162.74343  -7908257.59542  23875838.594    23875836.401
 04  1  1  0 30 30.0000000  0  7G17G30G10G 5G 6G24G21
  20673785.246   -24022156.59244 -18702960.61142  20673785.866    20673783.260
  20207315.907   -23472480.59144 -18126904.67842  20207317.886    20207313.925
  21038163.721   -19649811.08143 -15272738.20242  21038164.528    21038162.160
  21138518.979   -23236525.45644 -18101141.06042  21138520.019    21138517.387
  21896731.213   -20274194.29843 -15788915.15142  21896732.809    21896729.981
  22517556.491   -16809242.61043 -13081341.95642  22517557.363    22517555.436
  23859524.800   -10285883.06643  -7975052.55542  23859526.466    23859524.214
 04  1  1  0 31  0.0000000  0  7G17G30G10G 5G 6G24G21
  20678133.582   -23999305.89744 -18685154.86542  20678134.204    20678131.588
  20206440.671   -23477079.92844 -18130488.56142  20206442.645    20206438.692
  21035469.329   -19663970.02643 -15283771.10142  21035470.131    21035467.763
  21151706.879   -23167222.57044 -18047138.81442  21151707.904    21151705.288
  21885456.016   -20333445.73843 -15835085.06542  21885457.589    21885454.772
  22532674.308   -16729797.89143 -13019436.99042  22532675.210    22532673.237
  23843247.288   -10371421.71343  -8041705.93542  23843248.958    23843246.638
 04  1  1  0 31 30.0000000  0  7G17G30G10G 5G 6G24G21
  20682545.734   -23976119.79944 -18667087.76942  20682546.356    20682543.745
  20205677.098   -23481092.49844 -18133615.22742  20205679.073    20205675.100
  21032895.349   -19677496.23743 -15294310.96642  21032896.147    21032893.759
  21164976.584   -23097489.89744 -17992801.66942  21164977.585    21164974.971
  21874201.180   -20392589.97443 -15881171.43942  21874202.791    21874199.963
  22547812.392   -16650246.75543 -12957449.09442  22547813.315    22547811.299
  23827004.496   -10456777.76543  -8108217.04242  23827006.139    23827003.809
 04  1  1  0 32  0.0000000  0  7G17G30G10G 5G 6G24G21
  20687021.188   -23952601.08444 -18648761.49142  20687021.807    20687019.183
  20205024.980   -23484519.27944 -18136285.43042  20205026.941    20205022.994
  21030441.577   -19690390.76643 -15304358.60842  21030442.350    21030439.979
  21178327.346   -23027331.06543 -17938132.45342  21178328.358    21178325.748
  21862966.732   -20451627.34143 -15927174.53342  21862968.314    21862965.476
  22562970.107   -16570592.32143 -12895380.69942  22562971.054    22562969.014
  23810796.415   -10541951.42143  -8174586.02142  23810798.027    23810795.684
 04  1  1  0 32 30.0000000  0  7G17G30G10G 5G 6G24G21
  20691559.820   -23928750.27944 -18630176.44342  20691560.447    20691557.828
  20204484.638   -23487358.82444 -18138498.04842  20204486.596    20204482.636
  21028108.297   -19702652.00443 -15313912.77442  21028109.084    21028106.701
  21191759.126   -22956746.59544 -17883131.57042  21191760.136    21191757.538
  21851752.921   -20510556.11643 -15973093.01742  21851754.519    21851751.651
  22578147.326   -16490835.52943 -12833232.55142  22578148.274    22578146.225
  23794623.384   -10626940.71343  -8240811.34042  23794625.082    23794622.660
 04  1  1  0 33  0.0000000  0  7G17G30G10G 5G 6G24G21
  20696161.490   -23904568.36244 -18611333.38742  20696162.117    20696159.496
  20204056.160   -23489610.42344 -18140252.52542  20204058.112    20204054.164
  21025895.696   -19714279.08643 -15322972.78942  21025896.485    21025894.110
  21205271.522   -22885738.55543 -17827800.63242  21205272.517    21205269.908
  21840559.991   -20569375.20243 -16018926.02542  21840561.577    21840558.721
  22593343.745   -16410977.84643 -12771005.78942  22593344.700    22593342.641
  23778485.471   -10711745.29943  -8306892.71442  23778487.162    23778484.772
 04  1  1  0 33 30.0000000  0  7G17G30G10G 5G 6G24G21
  20700825.935   -23880056.52744 -18592233.25242  20700826.560    20700823.925
  20203739.683   -23491273.39044 -18141548.32442  20203741.638    20203737.700
  21023803.930   -19725271.17143 -15331538.00442  21023804.726    21023802.348
  21218864.240   -22814308.25643 -17772140.66042  21218865.246    21218862.673
  21829388.164   -20628083.30443 -16064672.55342  21829389.730    21829386.899
  22608559.087   -16331020.70643 -12708701.52242  22608560.049    22608557.989
  23762383.011   -10796363.89943  -8372829.16742  23762384.676    23762382.351
 04  1  1  0 34  0.0000000  0  7G17G30G10G 5G 6G24G21
  20705552.520   -23855218.09944 -18572878.62942  20705553.148    20705550.525
  20203534.977   -23492349.10744 -18142386.52842  20203536.917    20203532.990
  21021832.744   -19735629.52843 -15339609.40442  21021833.566    21021831.167
  21232536.562   -22742459.67543 -17716154.75942  21232537.582    21232535.003
  21818237.285   -20686681.44843 -16110333.40442  21818238.828    21818236.009
  22623792.664   -16250967.76143 -12646322.60242  22623793.611    22623791.499
  23746315.809   -10880797.50543  -8438621.46442  23746317.404    23746315.146
 04  1  1  0 34 30.0000000  0  7G17G30G10G 5G 6G24G21
  20710341.360   -23830052.56644 -18553269.11842  20710341.980    20710339.363
  20203442.419   -23492835.37744 -18142765.42542  20203444.363    20203440.443
  21019982.630   -19745351.69043 -15347185.07042  21019983.450    21019981.045
  21246288.526   -22670192.58443 -17659842.74342  21246289.563    21246286.996
  21807107.821   -20745166.82743 -16155906.38542  21807109.392    21807106.580
  22639044.481   -16170818.83243 -12583868.88142  22639045.450    22639043.354
  23730284.337   -10965043.40543  -8504267.49042  23730285.822    23730283.506
 04  1  1  0 35  0.0000000  0  7G17G30G10G 5G 6G24G21
  20715191.355   -23804565.63544 -18533409.16742  20715191.989    20715189.351
  20203461.298   -23492736.09044 -18142688.04342  20203463.247    20203459.314
  21018252.850   -19754441.58543 -15354268.06442  21018253.678    21018251.238
  21260118.883   -22597513.67843 -17603209.83542  21260119.914    21260117.331
  21795999.162   -20803542.91043 -16201394.20342  21796000.765    21795997.946
  22654313.446   -16090579.82643 -12521344.97442  22654314.433    22654312.275
  23714287.833   -11049105.53843  -8569770.31742  23714289.319    23714286.886
 04  1  1  0 35 30.0000000  0  7G17G30G10G 5G 6G24G21
  20720103.013   -23778754.69944 -18513296.74442  20720103.645    20720101.010
  20203592.420   -23492046.97144 -18142151.05142  20203594.357    20203590.445
  21016644.274   -19762894.64843 -15360854.82542  21016645.076    21016642.621
  21274028.009   -22524420.84543 -17546254.38242  21274029.022    21274026.438
  21784912.263   -20861804.81243 -16246793.04642  21784913.866    21784911.023
  22669599.973   -16010248.55243 -12458749.17642  22669600.958    22669598.812
  23698327.087   -11132979.32343  -8635126.36642  23698328.586    23698326.118
 04  1  1  0 36  0.0000000  0  7G17G30G10G 5G 6G24G21
  20725076.590   -23752618.40944 -18492930.79742  20725077.229    20725074.573
  20203836.376   -23490764.86644 -18141151.99442  20203838.346    20203834.393
  21015157.379   -19770708.11943 -15366943.20542  21015158.200    21015155.716
  21288016.094   -22450912.91743 -17488975.47642  21288017.128    21288014.519
  21773847.777   -20919948.87243 -16292100.07242  21773849.381    21773846.521
  22684904.230   -15929823.92343 -12396080.62742  22684905.246    22684903.067
  23682402.782   -11216661.56043  -8700333.16642  23682404.270    23682401.757
 04  1  1  0 36 30.0000000  0  7G17G30G10G 5G 6G24G21
  20730111.565   -23726159.34844 -18472313.33942  20730112.211    20730109.574
  20204192.966   -23488890.85744 -18139691.71042  20204194.941    20204190.973
  21013792.032   -19777882.86443 -15372533.88342  21013792.858    21013790.367
  21302082.494   -22376993.47343 -17431375.91042  21302083.510    21302080.928
  21762805.671   -20977975.36043 -16337315.48742  21762807.294    21762804.400
  22700225.703   -15849309.01143 -12333341.72542  22700226.702    22700224.554
  23666514.952   -11300152.31243  -8765390.74542  23666516.407    23666513.887
 04  1  1  0 37  0.0000000  0  7G17G30G10G 5G 6G24G21
  20735206.495   -23699385.24044 -18451450.39042  20735207.147    20735204.498
  20204661.077   -23486430.84444 -18137774.80142  20204663.052    20204659.068
  21012547.176   -19784424.46143 -15377631.19842  21012548.004    21012545.514
  21316225.642   -22302670.73643 -17373462.08742  21316226.647    21316224.053
  21751784.920   -21035889.59443 -16382443.42542  21751786.539    21751783.634
  22715562.871   -15768711.55843 -12270538.51142  22715563.898    22715561.728
  23650662.462   -11383457.26343  -8830303.55342  23650663.855    23650661.377
 04  1  1  0 37 30.0000000  0  7G17G30G10G 5G 6G24G21
  20740362.488   -23672290.39544 -18430337.51442  20740363.112    20740360.468
  20205242.115   -23483377.46544 -18135395.53542  20205244.095    20205240.081
  21011424.242   -19790325.38843 -15382229.29442  21011425.058    21011422.575
  21330446.424   -22227940.03343 -17315230.37242  21330447.435    21330444.850
  21740787.134   -21093683.39643 -16427477.52642  21740788.719    21740785.821
  22730916.847   -15688026.02843 -12207666.66342  22730917.823    22730915.690
  23634846.862   -11466568.28643  -8895065.23842  23634848.246    23634845.766
 04  1  1  0 38  0.0000000  0  7G17G30G10G 5G 6G24G21
  20745578.528   -23644879.82344 -18408978.62042  20745579.167    20745576.512
  20205935.438   -23479734.05344 -18132556.49942  20205937.391    20205933.381
  21010422.588   -19795588.96643 -15386330.75642  21010423.407    21010420.907
  21344743.860   -22152806.45843 -17256684.72742  21344744.887    21344742.273
  21729811.732   -21151359.39543 -16472419.83042  21729813.321    21729810.400
  22746286.533   -15607257.73243 -12144730.32242  22746287.528    22746285.367
  23619067.405   -11549489.14943  -8959678.74142  23619068.880    23619066.376
 04  1  1  0 38 30.0000000  0  7G17G30G10G 5G 6G24G21
  20750854.139   -23617156.30344 -18387375.86642  20750854.759    20750852.113
  20206740.789   -23475501.85744 -18129258.67042  20206742.748    20206738.724
  21009541.977   -19800216.44743 -15389936.55642  21009542.807    21009540.294
  21359117.347   -22077273.32943 -17197827.73942  21359118.337    21359115.762
  21718858.656   -21208918.05443 -16517270.69942  21718860.248    21718857.315
  22761671.405   -15526409.76843 -12081731.90142  22761672.351    22761670.252
  23603324.091   -11632220.13643  -9024144.29042  23603325.576    23603323.044
 04  1  1  0 39  0.0000000  0  7G17G30G10G 5G 6G24G21
  20756190.694   -23589112.50944 -18365523.55042  20756191.308    20756188.649
  20207659.886   -23470671.98744 -18125495.12742  20207661.839    20207657.810
  21008784.154   -19804198.72343 -15393039.59942  21008784.972    21008782.467
  21373568.093   -22001334.10143 -17138654.31542  21373569.098    21373566.518
  21707929.784   -21266349.80943 -16562022.68942  21707931.329    21707928.383
  22777072.752   -15445475.24943 -12018666.04342  22777073.678    22777071.577
  23587618.694   -11714752.03743  -9088454.71142  23587620.135    23587617.622
 04  1  1  0 39 30.0000000  0  7G17G30G10G 5G 6G24G21
  20761585.661   -23560761.72744 -18343432.02042  20761586.272    20761583.618
  20208690.464   -23465256.19544 -18121275.01842  20208692.424    20208688.378
  21008146.888   -19807547.53343 -15395649.03542  21008147.684    21008145.186
  21388093.496   -21925002.68743 -17079175.29442  21388094.489    21388091.916
  21697022.953   -21323665.40943 -16606684.16242  21697024.522    21697021.552
  22792488.002   -15364467.51843 -11955543.13342  22792488.927    22792486.852
  23571948.966   -11797096.10543  -9152618.74642  23571950.367    23571947.912
 04  1  1  0 40  0.0000000  0  7G17G30G10G 5G 6G24G21
  20767040.121   -23532098.28144 -18321096.85542  20767040.734    20767038.092
  20209833.926   -23459247.29644 -18116592.75042  20209835.872    20209831.805
  21007631.522   -19810255.64743 -15397759.22142  21007632.316    21007629.835
  21402694.450   -21848274.19943 -17019386.86242  21402695.441    21402692.854
  21686139.785   -21380856.71543 -16651248.77942  21686141.368    21686138.393
  22807918.262   -15283381.02543 -11892358.84842  22807919.162    22807917.096
  23556316.537   -11879244.41043  -9216630.26242  23556317.968    23556315.521
 04  1  1  0 40 30.0000000  0  7G17G30G10G 5G 6G24G21
  20772553.856   -23503123.36844 -18298518.99142  20772554.464    20772551.819
  20211090.346   -23452644.67944 -18111447.84542  20211092.294    20211088.226
  21007238.206   -19812322.44143 -15399369.67942  21007238.990    21007236.521
  21417370.552   -21771150.66543 -16959290.60542  21417371.565    21417368.980
  21675280.503   -21437922.43843 -16695715.54742  21675282.091    21675279.104
  22823363.246   -15202217.14443 -11829114.26242  22823364.119    22823362.111
  23540721.442   -11961196.38143  -9280488.79942  23540722.843    23540720.409
 04  1  1  0 41  0.0000000  0  7G17G30G10G 5G 6G24G21
  20778125.826   -23473842.47744 -18275702.70542  20778126.421    20778123.770
  20212458.967   -23445452.49144 -18105843.53542  20212460.897    20212456.856
  21006966.143   -19813752.08743 -15400483.65742  21006966.909    21006964.439
  21432120.762   -21693637.79643 -16898890.97842  21432121.765    21432119.168
  21664444.543   -21494865.64543 -16740086.84542  21664446.104    21664443.154
  22838821.827   -15120981.67443 -11765813.89642  22838822.719    22838820.737
  23525163.210   -12042954.73843  -9344196.47042  23525164.642    23525162.193
 04  1  1  0 41 30.0000000  0  7G17G30G10G 5G 6G24G21
  20783756.362   -23444253.84544 -18252646.61942  20783756.946    20783754.289
  20213940.423   -23437667.52244 -18099777.31742  20213942.337    20213938.284
  21006815.915   -19814541.23943 -15401098.54342  21006816.717    21006814.224
  21446945.235   -21615734.60143 -16838187.20142  21446946.246    21446943.685
  21653632.641   -21551682.32243 -16784359.54642  21653634.214    21653631.261
  22854294.355   -15039672.77443 -11702456.30242  22854295.286    22854293.344
  23509642.546   -12124515.77143  -9407750.38342  23509644.002    23509641.527
 04  1  1  0 42  0.0000000  0  7G17G30G10G 5G 6G24G21
  20789444.508   -23414362.39344 -18229354.56842  20789445.097    20789442.436
  20215533.970   -23429293.35544 -18093251.98842  20215535.879    20215531.824
  21006786.928   -19814693.51943 -15401217.16942  21006787.728    21006785.218
  21461842.876   -21537446.90643 -16777183.80642  21461843.894    21461841.330
  21642844.340   -21608374.96943 -16828535.60442  21642845.907    21642842.992
  22869779.886   -14958295.66143 -11639045.55842  22869780.837    22869778.913
  23494158.816   -12205882.97543  -9471153.28342  23494160.217    23494157.691
 04  1  1  0 42 30.0000000  0  7G17G30G10G 5G 6G24G21
  20795190.685   -23384165.93744 -18205824.85242  20795191.281    20795188.631
  20217240.352   -23420326.20244 -18086264.59042  20217242.260    20217238.221
  21006879.856   -19814205.02343 -15400836.48442  21006880.650    21006878.136
  21476813.955   -21458773.34943 -16715879.74542  21476814.970    21476812.434
  21632080.553   -21664938.80443 -16872611.28342  21632082.126    21632079.216
  22885278.876   -14876848.12843 -11575579.94442  22885279.758    22885277.859
  23478712.824   -12287051.67843  -9534401.50942  23478714.266    23478711.671
 04  1  1  0 43  0.0000000  0  7G17G30G10G 5G 6G24G21
  20800994.415   -23353667.04844 -18182059.47342  20800995.002    20800992.363
  20219059.314   -23410767.47944 -18078816.23042  20219061.232    20219057.186
  21007094.468   -19813077.01843 -15399957.48742  21007095.274    21007092.741
  21491857.877   -21379717.05643 -16654277.45342  21491858.902    21491856.370
  21621341.251   -21721374.10143 -16916586.80742  21621342.812    21621339.897
  22900790.637   -14795333.25243 -11512061.85342  22900791.543    22900789.623
  23463304.426   -12368023.11043  -9597496.02342  23463305.869    23463303.232
 04  1  1  0 43 30.0000000  0  7G17G30G10G 5G 6G24G21
  20806855.812   -23322865.18544 -18158058.01242  20806856.379    20806853.765
  20220991.256   -23400614.92144 -18070905.13842  20220993.194    20220989.148
  21007431.197   -19811307.30743 -15398578.45242  21007432.022    21007429.489
  21506974.608   -21300278.16043 -16592377.02442  21506975.608    21506973.081
  21610627.067   -21777677.44643 -16960459.50742  21610628.599    21610625.705
  22916315.354   -14713750.32143 -11448490.72842  22916316.247    22916314.359
  23447934.097   -12448794.10043  -9660434.35242  23447935.583    23447932.889
 04  1  1  0 44  0.0000000  0  7G17G30G10G 5G 6G24G21
  20812773.726   -23291766.21844 -18133825.04342  20812774.293    20812771.700
  20223035.356   -23389873.23044 -18062534.98542  20223037.262    20223033.215
  21007889.145   -19808900.67344 -15396703.11942  21007889.973    21007887.407
  21522162.881   -21220463.30043 -16530183.64142  21522163.876    21522161.375
  21599937.261   -21833852.52143 -17004232.25742  21599938.815    21599935.930
  22931851.862   -14632105.50843 -11384871.38042  22931852.724    22931850.829
  23432601.101   -12529369.00443  -9723219.90142  23432602.583    23432599.893
 04  1  1  0 44 30.0000000  0  7G17G30G10G 5G 6G24G21
  20818748.019   -23260371.00944 -18109361.23742  20818748.582    20818745.980
  20225191.643   -23378541.82244 -18053705.31242  20225193.553    20225189.521
  21008468.444   -19805856.43444 -15394330.94942  21008469.257    21008466.690
  21537422.405   -21140273.93743 -16467698.43442  21537423.396    21537420.902
  21589272.229   -21889897.58043 -17047903.69642  21589273.783    21589270.854
  22947400.048   -14550399.32943 -11321204.21742  22947400.897    22947398.994
  23417305.889   -12609745.94443  -9785851.19442  23417307.330    23417304.610
 04  1  1  0 45  0.0000000  0  7G17G30G10G 5G 6G24G21
  20824779.350   -23228676.02244 -18084663.83542  20824779.920    20824777.324
  20227461.084   -23366615.78844 -18044412.29242  20227463.014    20227458.953
  21009169.989   -19802169.72944 -15391458.15642  21009170.788    21009168.205
  21552753.774   -21059707.18843 -16404919.15942  21552754.741    21552752.246
  21578633.091   -21945806.59143 -17091469.12342  21578634.628    21578631.680
  22962960.472   -14468628.46343 -11257486.64242  22962961.378    22962959.437
  23402049.264   -12689919.60943  -9848324.08842  23402050.697    23402047.990
 04  1  1  0 45 30.0000000  0  7G17G30G10G 5G 6G24G21
  20830866.558   -23196687.42344 -18059737.64542  20830867.140    20830864.549
  20229842.738   -23354100.04144 -18034659.75942  20229844.676    20229840.631
  21009992.862   -19797845.35544 -15388088.48542  21009993.670    21009991.065
  21568155.538   -20978770.30343 -16341851.46942  21568156.519    21568154.024
  21568019.151   -22001583.16643 -17134931.35642  21568020.687    21568017.699
  22978532.075   -14386799.12443 -11193723.49942  22978532.983    22978531.034
  23386830.483   -12769894.48843  -9910642.09742  23386831.906    23386829.180
 04  1  1  0 46  0.0000000  0  7G17G30G10G 5G 6G24G21
  20837009.933   -23164403.76044 -18034581.53442  20837010.512    20837007.904
  20232337.138   -23340991.97844 -18024445.68142  20232339.034    20232334.999
  21010937.591   -19792880.72744 -15384219.91942  21010938.400    21010935.775
  21583627.935   -20897462.35843 -16278494.64342  21583628.894    21583626.402
  21557431.142   -22057223.39943 -17178287.34742  21557432.687    21557429.685
  22994115.001   -14304910.26943 -11129913.99542  22994115.925    22994113.901
  23371650.254   -12849666.85143  -9972802.30442  23371651.606    23371648.865
 04  1  1  0 46 30.0000000  0  7G17G30G10G 5G 6G24G21
  20843208.795   -23131828.48744 -18009198.19342  20843209.372    20843206.768
  20234943.790   -23327293.82444 -18013771.78742  20234945.704    20234941.660
  21012003.735   -19787278.04444 -15379854.16742  21012004.526    21012001.905
  21599170.101   -20815787.85043 -16214852.17942  21599171.052    21599168.564
  21546868.909   -22112728.10143 -17221537.72642  21546870.463    21546867.465
  23009708.584   -14222965.25643 -11066060.71342  23009709.542    23009707.497
  23356508.300   -12929238.16643 -10034805.84442  23356509.630    23356506.850
 04  1  1  0 47  0.0000000  0  7G17G30G10G 5G 6G24G21
  20849462.784   -23098963.45144 -17983589.06842  20849463.382    20849460.770
  20237662.615   -23313006.17544 -18002638.55142  20237664.555    20237660.493
  21013191.159   -19781038.00044 -15374991.77342  21013191.952    21013189.311
  21614781.496   -20733749.37043 -16150926.10542  21614782.453    21614779.967
  21536332.571   -22168096.72043 -17264682.07342  21536334.123    21536331.131
  23025312.532   -14140965.88443 -11002165.08242  23025313.502    23025311.422
  23341404.534   -13008608.49743 -10096652.77842  23341405.864    23341403.110
 04  1  1  0 47 30.0000000  0  7G17G30G10G 5G 6G24G21
  20855772.274   -23065806.85344 -17957752.75442  20855772.864    20855770.248
  20240494.263   -23298125.82444 -17991043.46742  20240496.190    20240492.143
  21014500.511   -19774157.21344 -15369630.10242  21014501.294    21014498.657
  21630462.400   -20651345.64143 -16086715.41442  21630463.365    21630460.863
  21525822.995   -22223324.65443 -17307716.79342  21525824.567    21525821.562
  23040927.160   -14058910.35743 -10938225.69042  23040928.153    23040926.052
  23326339.854   -13087773.75543 -10158339.91542  23326341.130    23326338.338
 04  1  1  0 48  0.0000000  0  7G17G30G10G 5G 6G24G21
  20862136.136   -23032364.46844 -17931693.74842  20862136.747    20862134.118
  20243437.712   -23282657.73444 -17978990.40542  20243439.659    20243435.620
  21015930.836   -19766640.66144 -15363773.02642  21015931.624    21015928.986
  21646211.520   -20568583.45343 -16022225.40642  21646212.499    21646209.982
  21515339.534   -22278415.57843 -17350644.75542  21515341.114    21515338.062
  23056551.287   -13976804.87143 -10874247.36742  23056552.286    23056550.187
  23311313.363   -13166738.20443 -10219870.56442  23311314.646    23311311.855
 04  1  1  0 48 30.0000000  0  7G17G30G10G 5G 6G24G21
  20868554.696   -22998634.81244 -17905410.89542  20868555.294    20868552.654
  20246493.586   -23266599.04444 -17966477.13342  20246495.524    20246491.486
  21017482.679   -19758485.41943 -15357418.27342  21017483.470    21017480.856
  21662029.053   -20485461.99843 -15957455.45342  21662030.016    21662027.471
  21504882.963   -22333365.06843 -17393462.50842  21504884.536    21504881.469
  23072185.303   -13894647.49843 -10810228.61142  23072186.294    23072184.215
  23296325.801   -13245497.86243 -10281241.63242  23296327.087    23296324.341
 04  1  1  0 49  0.0000000  0  7G17G30G10G 5G 6G24G21
  20875027.799   -22964618.48444 -17878904.65442  20875028.370    20875025.759
  20249661.977   -23249949.17944 -17953503.20642  20249663.891    20249659.841
  21019156.131   -19749691.26943 -15350565.67042  21019156.918    21019154.290
  21677914.623   -20401982.81843 -15892406.75642  21677915.604    21677913.041
  21494453.686   -22388171.23943 -17436168.58342  21494455.249    21494452.165
  23087829.064   -13812438.99143 -10746170.02342  23087830.037    23087827.967
  23281377.424   -13324051.62943 -10342452.28642  23281378.718    23281375.940
 04  1  1  0 49 30.0000000  0  7G17G30G10G 5G 6G24G21
  20881554.146   -22930322.30444 -17852180.34942  20881554.720    20881552.089
  20252941.729   -23232713.95944 -17940073.15942  20252943.635    20252939.578
  21020950.072   -19740263.92143 -15343219.66642  21020950.853    21020948.211
  21693866.831   -20318153.47643 -15827085.20742  21693867.817    21693865.229
  21484050.807   -22442838.51943 -17478766.43042  21484052.382    21484049.275
  23103481.272   -13730186.05643 -10682076.81242  23103482.269    23103480.183
  23266467.295   -13402404.53743 -10403506.41642  23266468.570    23266465.790
 04  1  1  0 50  0.0000000  0  7G17G30G10G 5G 6G24G21
  20888134.541   -22895742.11044 -17825234.73542  20888135.110    20888132.471
  20256333.833   -23214888.19544 -17926182.94642  20256335.742    20256331.708
  21022865.457   -19730198.39144 -15335376.37342  21022866.255    21022863.605
  21709886.255   -20233970.94543 -15761488.44242  21709887.239    21709884.662
  21473675.665   -22497360.09243 -17521250.74842  21473677.251    21473674.124
  23119142.640   -13647885.03443 -10617946.11842  23119143.610    23119141.541
  23251596.555   -13480550.32343 -10464399.14442  23251597.869    23251595.066
 04  1  1  0 50 30.0000000  0  7G17G30G10G 5G 6G24G21
  20894768.621   -22860879.69644 -17798069.21042  20894769.218    20894766.561
  20259838.204   -23196472.48544 -17911833.04042  20259840.122    20259836.089
  21024902.212   -19719495.10844 -15327036.13342  21024903.007    21024900.350
  21725972.527   -20149437.15743 -15695617.97142  21725973.510    21725970.913
  21463328.448   -22551734.99443 -17563620.77342  21463330.042    21463326.894
  23134812.873   -13565537.35043 -10553779.07842  23134813.834    23134811.729
  23236765.406   -13558488.28943 -10525129.95842  23236766.696    23236763.849
 04  1  1  0 51  0.0000000  0  7G17G30G10G 5G 6G24G21
  20901454.853   -22825743.12644 -17770690.05442  20901455.473    20901452.816
  20263453.499   -23177474.02044 -17897029.03442  20263455.394    20263451.374
  21027059.004   -19708161.03844 -15318204.37042  21027059.811    21027057.113
  21742123.830   -20064561.52343 -15629481.12642  21742124.814    21742122.226
  21453008.100   -22605968.75743 -17605880.82042  21453009.672    21453006.517
  23150490.486   -13483150.94543 -10489581.85642  23150491.433    23150489.303
  23221972.446   -13636225.36943 -10585704.21142  23221973.744    23221970.876
 04  1  1  0 51 30.0000000  0  7G17G30G10G 5G 6G24G21
  20908194.849   -22790324.10544 -17743090.81342  20908195.475    20908192.802
  20267181.447   -23157883.42144 -17881763.63142  20267183.348    20267179.332
  21029337.613   -19696186.87744 -15308873.83542  21029338.411    21029335.702
  21758341.597   -19979336.65843 -15563072.15842  21758342.548    21758339.992
  21442716.669   -22660050.56143 -17648022.46342  21442718.236    21442715.078
  23166176.986   -13400717.74343 -10425348.17042  23166177.932    23166175.785
  23207219.658   -13713751.66943 -10646114.23642  23207220.895    23207218.033
 04  1  1  0 52  0.0000000  0  7G17G30G10G 5G 6G24G21
  20914987.785   -22754627.06944 -17715274.93642  20914988.386    20914985.716
  20271021.423   -23137704.19144 -17866039.55342  20271023.321    20271019.323
  21031737.310   -19683576.28044 -15299047.37442  21031738.107    21031735.412
  21774624.801   -19893767.87543 -15496395.19942  21774625.753    21774623.229
  21432453.843   -22713982.08043 -17690047.00042  21432455.366    21432452.227
  23181871.625   -13318241.91343 -10361081.27342  23181872.553    23181870.407
  23192506.563   -13791068.92743 -10706361.37042  23192507.856    23192504.905
 04  1  1  0 52 30.0000000  0  7G17G30G10G 5G 6G24G21
  20921832.516   -22718657.72244 -17687246.86242  20921833.120    20921830.450
  20274972.480   -23116941.19344 -17849860.58942  20274974.377    20274970.383
  21034257.155   -19670334.31044 -15288728.92742  21034257.963    21034255.239
  21790972.199   -19807861.73343 -15429455.35342  21790973.168    21790970.638
  21422219.000   -22767766.57943 -17731956.97942  21422220.497    21422217.346
  23197573.251   -13235729.10243 -10296785.55642  23197574.202    23197572.057
  23177832.533   -13868180.97843 -10766448.60042  23177833.815    23177830.864
 04  1  1  0 53  0.0000000  0  7G17G30G10G 5G 6G24G21
  20928729.293   -22682414.94844 -17659005.73742  20928729.894    20928727.216
  20279035.089   -23095592.10044 -17833224.93042  20279036.967    20279032.996
  21036897.566   -19656458.66644 -15277916.71142  21036898.390    21036895.680
  21807383.911   -19721617.82443 -15362252.31442  21807384.854    21807382.322
  21412012.820   -22821400.21643 -17773749.40442  21412014.338    21412011.177
  23213282.207   -13153177.84943 -10232459.88142  23213283.176    23213280.988
  23163198.160   -13945084.68143 -10826373.48342  23163199.475    23163196.537
 04  1  1  0 53 30.0000000  0  7G17G30G10G 5G 6G24G21
  20935677.535   -22645901.64244 -17630553.80542  20935678.141    20935675.439
  20283208.789   -23073659.03644 -17816134.22942  20283210.677    20283206.719
  21039658.169   -19641951.55744 -15266612.44442  21039658.985    21039656.268
  21823859.127   -19635040.01543 -15294789.09942  21823860.088    21823857.547
  21401835.303   -22874883.35843 -17815424.56442  21401836.811    21401833.650
  23228997.940   -13070591.19743 -10168106.63242  23228998.878    23228996.689
  23148603.229   -14021781.40343 -10886137.09142  23148604.470    23148601.554
 04  1  1  0 54  0.0000000  0  7G17G30G10G 5G 6G24G21
  20942678.001   -22609113.93344 -17601888.04842  20942678.588    20942675.904
  20287494.524   -23051137.19544 -17798584.74042  20287496.418    20287492.468
  21042539.820   -19626808.10744 -15254812.32442  21042540.650    21042537.941
  21840398.414   -19548125.39043 -15227063.42342  21840399.386    21840396.853
  21391687.697   -22928209.27643 -17856977.20942  21391689.197    21391686.054
  23244721.096   -12987965.35943 -10103722.83842  23244722.042    23244719.830
  23134048.781   -14098265.26643 -10945734.82642  23134050.021    23134047.035
 04  1  1  0 54 30.0000000  0  7G17G30G10G 5G 6G24G21
  20949729.295   -22572059.07144 -17573014.12342  20949729.890    20949727.199
  20291891.067   -23028033.16544 -17780581.59942  20291892.960    20291889.023
  21045541.316   -19611034.95244 -15242521.52842  21045542.160    21045539.445
  21857000.282   -19460881.98643 -15159081.56542  21857001.256    21856998.757
  21381569.074   -22981382.81143 -17898411.11642  21381570.583    21381567.439
  23260450.410   -12905307.36743 -10039313.98742  23260451.346    23260449.097
  23119533.855   -14174541.32743 -11005170.63742  23119535.132    23119532.154
 04  1  1  0 55  0.0000000  0  7G17G30G10G 5G 6G24G21
  20956831.290   -22534737.85544 -17543932.64942  20956831.883    20956829.185
  20296398.456   -23004346.71244 -17762124.62642  20296400.346    20296396.408
  21048662.665   -19594632.10944 -15229740.06442  21048663.502    21048660.779
  21873664.399   -19373311.61943 -15090844.93042  21873665.350    21873662.860
  21371479.803   -23034402.14743 -17939724.86442  21371481.325    21371478.170
  23276185.700   -12822617.68943  -9974880.44042  23276186.618    23276184.387
  23105058.563   -14250609.05643 -11064444.11242  23105059.875    23105056.881
 04  1  1  0 55 30.0000000  0  7G17G30G10G 5G 6G24G21
  20963983.898   -22497150.62544 -17514643.88842  20963984.478    20963981.785
  20301016.743   -22980077.44344 -17743213.50742  20301018.613    20301014.692
  21051903.908   -19577599.19944 -15216467.64042  21051904.723    21051901.999
  21890390.452   -19285415.57443 -15022354.51942  21890391.406    21890388.949
  21361420.373   -23087264.69343 -17980916.43842  21361421.895    21361418.738
  23291926.991   -12739896.71643  -9910422.51542  23291927.866    23291925.660
  23090623.326   -14326466.43943 -11123553.68342  23090624.676    23090621.532
 04  1  1  0 56  0.0000000  0  7G17G30G10G 5G 6G24G21
  20971187.177   -22459296.94644 -17485147.50042  20971187.786    20971185.106
  20305746.166   -22955224.14744 -17723847.30342  20305748.037    20305744.120
  21055265.288   -19559934.98944 -15202703.29542  21055266.089    21055263.345
  21907178.427   -19197194.14343 -14953610.56042  21907179.376    21907176.958
  21351391.340   -23139967.45943 -18021983.51142  21351392.873    21351389.729
  23307674.267   -12657144.01843  -9845939.85742  23307675.148    23307672.947
  23076228.456   -14402111.57343 -11182497.85642  23076229.810    23076226.654
 04  1  1  0 56 30.0000000  0  7G17G30G10G 5G 6G24G21
  20978440.708   -22421179.39444 -17455445.49942  20978441.309    20978438.618
  20310586.427   -22929788.43244 -17704027.26542  20310588.300    20310584.383
  21058746.491   -19541640.99344 -15188448.21042  21058747.290    21058744.546
  21924027.622   -19108650.95643 -14884615.88142  21924028.592    21924026.144
  21341392.827   -23192510.01043 -18062925.73942  21341394.347    21341391.205
  23323427.216   -12574361.62343  -9781434.06542  23323428.106    23323425.937
  23061873.896   -14477544.85443 -11241276.93242  23061875.308    23061872.130
 04  1  1  0 57  0.0000000  0  7G17G30G10G 5G 6G24G21
  20985743.684   -22382802.01144 -17425541.03442  20985744.267    20985741.576
  20315536.781   -22903774.11244 -17683756.36642  20315538.661    20315534.740
  21062346.807   -19522721.18044 -15173705.47242  21062347.608    21062344.838
  21940937.020   -19019791.51443 -14815374.77242  21940938.006    21940935.532
  21331424.411   -23244894.31243 -18103744.65242  21331425.910    21331422.779
  23339184.956   -12491554.01843  -9716908.62742  23339185.844    23339183.689
  23047559.278   -14552768.43543 -11299892.62342  23047560.675    23047557.412
 04  1  1  0 57 30.0000000  0  7G17G30G10G 5G 6G24G21
  20993096.172   -22344164.40144 -17395433.79442  20993096.757    20993094.071
  20320597.499   -22877179.84444 -17663033.56142  20320599.384    20320595.460
  21066066.418   -19503174.33644 -15158474.13942  21066067.216    21066064.459
  21957906.600   -18930615.87143 -14745887.27042  21957907.579    21957905.119
  21321486.761   -23297117.03943 -18144437.65942  21321488.241    21321485.108
  23354947.705   -12408720.19843  -9652362.76342  23354948.557    23354946.435
  23033284.865   -14627780.45843 -11358343.46542  23033286.289    23033282.959
 04  1  1  0 58  0.0000000  0  7G17G30G10G 5G 6G24G21
  21000497.877   -22305268.01944 -17365124.91042  21000498.475    21000495.785
  20325768.476   -22850006.33444 -17641859.39942  20325770.340    20325766.391
  21069905.225   -19483001.20844 -15142754.79342  21069906.015    21069903.262
  21974935.928   -18841126.47143 -14676155.28342  21974936.865    21974934.378
  21311580.087   -23349176.88143 -18185003.74342  21311581.574    21311578.423
  23370715.159   -12325861.55743  -9587797.55042  23370716.008    23370713.927
  23019050.824   -14702580.59843 -11416629.19042  23019052.220    23019048.903
 04  1  1  0 58 30.0000000  0  7G17G30G10G 5G 6G24G21
  21007949.125   -22266111.52444 -17334613.34342  21007949.721    21007947.011
  20331050.054   -22822251.50444 -17620232.25942  20331051.929    20331047.968
  21073863.542   -19462200.07644 -15126546.10042  21073864.315    21073861.560
  21992024.916   -18751323.24143 -14606178.75942  21992025.859    21992023.414
  21301705.141   -23401069.90943 -18225439.84042  21301706.649    21301703.492
  23386487.612   -12242976.81943  -9523212.01342  23386488.421    23386486.350
  23004857.824   -14777165.05643 -11474746.87442  23004859.274    23004855.803
 04  1  1  0 59  0.0000000  0  7G17G30G10G 5G 6G24G21
  21015448.560   -22226701.75944 -17303904.42542  21015449.125    21015446.432
  20336441.037   -22793921.68044 -17598157.07042  20336442.902    20336438.937
  21077940.178   -19440777.15243 -15109852.89242  21077940.950    21077938.180
  22009172.201   -18661213.82043 -14535963.64242  22009173.131    22009170.656
  21291861.181   -23452800.17343 -18265749.10542  21291862.687    21291859.514
  23402263.790   -12160072.29543  -9458611.06042  23402264.589    23402262.494
  22990704.837   -14851539.22043 -11532700.68542  22990706.250    22990702.702
 04  1  1  0 59 30.0000000  0  7G17G30G10G 5G 6G24G21
  21022996.502   -22187036.92344 -17272996.74942  21022997.091    21022994.391
  20341941.868   -22765014.59144 -17575632.06642  20341943.731    20341939.775
  21082135.561   -19418730.11543 -15092673.36242  21082136.336    21082133.558
  22026377.842   -18570797.56443 -14465509.42942  22026378.775    22026376.300
  21282049.041   -23504363.21443 -18305928.07042  21282050.552    21282047.367
  23418043.978   -12077146.45243  -9393993.48442  23418044.817    23418042.719
  22976592.651   -14925699.24243 -11590487.62642  22976594.074    22976590.517
 04  1  1  1  0  0.0000000  0  7G17G30G10G 5G 6G24G21
  21030592.898   -22147117.57244 -17241890.74842  21030593.485    21030590.770
  20347552.514   -22735530.51544 -17552657.46142  20347554.372    20347550.423
  21086449.671   -19396059.19944 -15075007.69242  21086450.450    21086447.659
  22043641.614   -18480076.04343 -14394817.34542  22043642.520    22043640.034
  21272269.055   -23555757.20843 -18345975.30642  21272270.568    21272267.387
  23433828.225   -11994199.77643  -9329359.68242  23433828.995    23433826.888
  22962521.301   -14999644.38843 -11648107.14342  22962522.696    22962519.091
 04  1  1  1  0 30.0000000  0  7G17G30G10G 5G 6G24G21
  21038236.836   -22106948.30344 -17210590.00942  21038237.421    21038234.710
  20353272.294   -22705472.92344 -17529235.96242  20353274.151    20353270.192
  21090881.749   -19372768.45444 -15056859.04142  21090882.515    21090879.713
  22060962.338   -18389054.84643 -14323891.74842  22060963.261    22060960.795
  21262520.958   -23606983.58343 -18385891.92642  21262522.496    21262519.298
  23449615.588   -11911236.23143  -9264712.72442  23449616.384    23449614.348
  22948490.373   -15073377.23243 -11705561.23942  22948491.754    22948488.061
 04  1  1  1  1  0.0000000  0  7G17G30G10G 5G 6G24G21
  21045928.632   -22066527.49644 -17179093.26342  21045929.214    21045926.513
  20359101.611   -22674839.67244 -17505365.90042  20359103.465    20359099.514
  21095432.205   -19348855.57844 -15038225.61342  21095432.974    21095430.173
  22078340.300   -18297733.00443 -14252731.88642  22078341.223    22078338.778
  21252805.635   -23658037.93343 -18425674.50742  21252807.160    21252803.962
  23465406.526   -11828253.78843  -9200051.04042  23465407.369    23465405.341
  22934500.615   -15146893.61543 -11762846.64742  22934501.971    22934498.404
 04  1  1  1  1 30.0000000  0  7G17G30G10G 5G 6G24G21
  21053668.090   -22025856.30644 -17147401.41442  21053668.678    21053665.968
  20365040.306   -22643631.56544 -17481047.89642  20365042.155    20365038.209
  21100100.885   -19324321.51844 -15019108.13842  21100101.640    21100098.817
  22095774.999   -18206113.09543 -14181339.75542  22095775.933    22095773.469
  21243123.238   -23708919.05443 -18465322.09942  21243124.793    21243121.566
  23481200.869   -11745253.73743  -9135375.64342  23481201.751    23481199.727
  22920551.997   -15220193.88543 -11819963.67842  22920553.300    22920549.695
 04  1  1  1  2  0.0000000  0  7G17G30G10G 5G 6G24G21
  21061454.206   -21984939.97943 -17115518.55042  21061454.766    21061452.070
  20371087.469   -22611853.40544 -17456285.69542  20371089.342    20371085.380
  21104886.836   -19299171.14343 -14999510.41842  21104887.567    21104884.754
  22113265.278   -18114201.10143 -14109720.04142  22113266.214    22113263.762
  21233473.380   -23759629.31143 -18504836.55642  21233474.932    21233471.697
  23496997.588   -11662241.11543  -9070690.46242  23496998.483    23496996.452
  22906643.895   -15293281.29943 -11876914.85642  22906645.195    22906641.522
 04  1  1  1  2 30.0000000  0  7G17G30G10G 5G 6G24G21
  21069287.918   -21943773.41443 -17083440.69842  21069288.487    21069285.785
  20377244.189   -22579499.68044 -17431075.00242  20377246.057    20377242.090
  21109791.047   -19273399.16343 -14979428.33442  21109791.799    21109788.968
  22130811.893   -18021992.91243 -14037869.51642  22130812.846    22130810.423
  21223857.531   -23810160.85743 -18544211.75542  21223859.059    21223855.844
  23512797.786   -11579210.43043  -9005991.19242  23512798.669    23512796.685
  22892777.577   -15366148.71943 -11933694.58542  22892778.865    22892775.323
 04  1  1  1  3  0.0000000  0  7G17G30G10G 5G 6G24G21
  21077167.166   -21902367.69443 -17051176.49042  21077167.711    21077165.022
  20383508.398   -22546581.05744 -17405424.12842  20383510.249    20383506.275
  21114811.530   -19247016.28343 -14958870.22242  21114812.271    21114809.440
  22148412.500   -17929501.03543 -13965797.93342  22148413.467    22148411.068
  21214274.055   -23860522.12343 -18583454.27142  21214275.598    21214272.359
  23528599.288   -11496172.67343  -8941286.41242  23528600.180    23528598.183
  22878951.404   -15438805.81943 -11990310.46142  22878952.645    22878949.034
 04  1  1  1  3 30.0000000  0  7G17G30G10G 5G 6G24G21
  21085092.743   -21860718.55243 -17018722.60242  21085093.279    21085090.583
  20389880.982   -22513092.90444 -17379329.46142  20389882.839    20389878.877
  21119949.120   -19220017.86943 -14937832.47442  21119949.888    21119947.051
  22166067.800   -17836722.01543 -13893502.59942  22166068.753    22166066.345
  21204724.358   -23910706.03543 -18622558.59142  21204725.901    21204722.655
  23544403.053   -11413123.08443  -8876572.41642  23544403.979    23544401.943
  22865166.269   -15511246.63543 -12046757.79042  22865167.509    22865163.856
 04  1  1  1  4  0.0000000  0  7G17G30G10G 5G 6G24G21
  21093064.914   -21818824.35943 -16986077.76642  21093065.465    21093062.768
  20396362.316   -22479033.19944 -17352789.43542  20396364.156    20396360.226
  21125204.214   -19192402.07443 -14916313.65142  21125204.984    21125202.122
  22183777.810   -17743655.26843 -13820983.06842  22183778.774    22183776.398
  21195209.256   -23960708.12343 -18661521.23242  21195210.789    21195207.540
  23560209.431   -11330059.88143  -8811847.81042  23560210.348    23560208.364
  22851423.145   -15583467.09843 -12103033.41242  22851424.411    22851420.790
 04  1  1  1  4 30.0000000  0  7G17G30G10G 5G 6G24G21
  21101082.056   -21776693.95343 -16953248.86842  21101082.612    21101079.896
  20402950.820   -22444410.29044 -17325810.54442  20402952.659    20402948.754
  21130575.196   -19164177.28243 -14894320.28042  21130575.954    21130573.093
  22201540.589   -17650311.17943 -13748247.43042  22201541.551    22201539.211
  21185727.579   -24010534.59343 -18700347.02742  21185729.121    21185725.864
  23576016.713   -11246991.59643  -8747119.24442  23576017.689    23576015.669
  22837720.521   -15655474.69043 -12159143.17642  22837721.770    22837718.089
 04  1  1  1  5  0.0000000  0  7G17G30G10G 5G 6G24G21
  21109145.322   -21734321.12643 -16920231.06442  21109145.870    21109143.178
  20409647.733   -22409217.70844 -17298387.75242  20409649.573    20409645.666
  21136063.309   -19135337.10144 -14871847.39342  21136064.052    21136061.163
  22219357.243   -17556684.05043 -13675291.24342  22219358.202    22219355.877
  21176281.061   -24060176.29043 -18739028.84342  21176282.607    21176279.332
  23591826.242   -11163911.69243  -8682381.61642  23591827.231    23591825.218
  22824059.876   -15727261.56043 -12215080.94342  22824061.106    22824057.411
 04  1  1  1  5 30.0000000  0  7G17G30G10G 5G 6G24G21
  21117253.068   -21691714.56744 -16887031.13242  21117253.628    21117250.921
  20416451.419   -22373464.00444 -17270527.71942  20416453.280    20416449.371
  21141666.772   -19105890.56644 -14848902.01742  21141667.523    21141664.618
  22237225.811   -17462784.13143 -13602122.49642  22237226.777    22237224.449
  21166868.532   -24109639.49743 -18777571.57842  21166870.038    21166866.769
  23607636.310   -11080828.96143  -8617641.80242  23607637.322    23607635.282
  22810439.879   -15798835.13243 -12270852.49342  22810441.115    22810437.430
 04  1  1  1  6  0.0000000  0  7G17G30G10G 5G 6G24G21
  21125406.553   -21648867.60144 -16853643.87142  21125407.135    21125404.402
  20423363.283   -22337142.02744 -17242224.87642  20423365.118    20423361.216
  21147387.058   -19075830.30843 -14825478.42042  21147387.789    21147384.868
  22255147.401   -17368605.71643 -13528736.73342  22255148.356    22255146.026
  21157491.817   -24158914.46943 -18815967.62942  21157493.320    21157490.024
  23623448.272   -10997736.25743  -8552894.20042  23623449.313    23623447.295
  22796862.113   -15870186.40143 -12326450.83642  22796863.339    22796859.637
 04  1  1  1  6 30.0000000  0  7G17G30G10G 5G 6G24G21
  21133604.067   -21605789.31744 -16820076.36142  21133604.669    21133601.900
  20430381.520   -22300260.79944 -17213486.25842  20430383.364    20430379.478
  21153222.355   -19045165.51743 -14801583.76242  21153223.084    21153220.164
  22273120.018   -17274158.89343 -13455141.82242  22273120.987    22273118.628
  21148149.635   -24208007.74143 -18854222.09642  21148151.149    21148147.856
  23639260.506   -10914642.37243  -8488145.67842  23639261.566    23639259.428
  22783325.244   -15941323.17743 -12381882.04642  22783326.470    22783322.681
 04  1  1  1  7  0.0000000  0  7G17G30G10G 5G 6G24G21
  21141846.316   -21562475.93143 -16786325.65442  21141846.933    21141844.139
  20437506.966   -22262816.33444 -17184308.75042  20437508.816    20437504.910
  21159173.414   -19013892.42543 -14777215.09942  21159174.125    21159171.216
  22291144.267   -17179440.99543 -13381335.68542  22291145.217    22291142.872
  21138843.285   -24256912.75943 -18892329.87342  21138844.791    21138841.525
  23655073.743   -10831543.15843  -8423393.02342  23655074.793    23655072.657
  22769830.250   -16012239.13443 -12437141.15642  22769831.489    22769827.883
 04  1  1  1  7 30.0000000  0  7G17G30G10G 5G 6G24G21
  21150132.704   -21518930.56343 -16752394.17942  21150133.333    21150130.523
  20444739.099   -22224811.33544 -17154694.46942  20444740.936    20444737.013
  21165239.673   -18982013.86843 -14752374.64742  21165240.406    21165237.485
  22309219.292   -17084456.18143 -13307321.56242  22309220.232    22309217.912
  21129572.683   -24305629.92843 -18930291.28142  21129574.189    21129570.927
  23670887.525   -10748441.22043  -8358638.22142  23670888.575    23670886.407
  22756376.958   -16082936.60343 -12492230.04342  22756378.212    22756374.438
 04  1  1  1  8  0.0000000  0  7G17G30G10G 5G 6G24G21
  21158462.541   -21475156.93744 -16718284.84342  21158463.168    21158460.356
  20452077.186   -22186249.56844 -17124646.33942  20452079.020    20452075.079
  21171420.443   -18949533.56943 -14727065.30742  21171421.192    21171418.258
  22327344.181   -16989209.28843 -13233103.21442  22327345.138    22327342.795
  21120337.698   -24354160.08643 -18968106.96442  21120339.188    21120335.929
  23686701.096   -10665340.22843  -8293884.16342  23686702.119    23686699.963
  22742964.858   -16153417.17743 -12547149.92042  22742966.146    22742962.334
 04  1  1  1  8 30.0000000  0  7G17G30G10G 5G 6G24G21
  21166835.736   -21431155.39343 -16683997.90542  21166836.377    21166833.547
  20459521.162   -22147131.22044 -17094164.50842  20459523.015    20459519.067
  21177715.644   -18916451.95243 -14701287.40442  21177716.395    21177713.451
  22345518.629   -16893702.01443 -13158681.97542  22345519.598    22345517.256
  21111138.690   -24402500.98943 -19005775.17242  21111140.207    21111136.925
  23702514.512   -10582240.30243  -8229130.93842  23702515.519    23702513.323
  22729594.400   -16223679.44843 -12601899.67842  22729595.683    22729591.937
 04  1  1  1  9  0.0000000  0  7G17G30G10G 5G 6G24G21
  21175252.575   -21386924.64443 -16649532.36842  21175253.196    21175250.367
  20467071.357   -22107454.77244 -17063247.79242  20467073.194    20467069.246
  21184125.534   -18882767.52743 -14675039.77842  21184126.296    21184123.391
  22363742.718   -16797933.83343 -13084057.43042  22363743.693    22363741.347
  21101976.534   -24450648.39043 -19043292.59842  21101978.036    21101974.758
  23718328.003   -10499139.65543  -8164377.13242  23718328.984    23718326.819
  22716265.891   -16293720.89743 -12656477.38442  22716267.172    22716263.327
 04  1  1  1  9 30.0000000  0  7G17G30G10G 5G 6G24G21
  21183712.727   -21342466.18843 -16614889.39742  21183713.354    21183710.519
  20474727.483   -22067221.56544 -17031897.24642  20474729.318    20474725.364
  21190649.848   -18848481.93743 -14648323.71542  21190650.607    21190647.706
  22382015.875   -16701907.84243 -13009232.00142  22382016.828    22382014.513
  21092851.426   -24498601.08143 -19080658.30242  21092852.939    21092849.651
  23734141.351   -10416039.63343  -8099623.81642  23734142.388    23734140.131
  22702979.482   -16363541.24543 -12710882.79542  22702980.779    22702976.971
 04  1  1  1 10  0.0000000  0  7G17G30G10G 5G 6G24G21
  21192215.455   -21297784.03043 -16580072.11342  21192216.060    21192213.234
  20482488.782   -22026435.68044 -17000116.03942  20482490.629    20482486.660
  21197287.796   -18813599.20843 -14621142.34742  21197288.561    21197285.641
  22400337.154   -16605628.97043 -12934209.51542  22400338.108    22400335.793
  21083763.175   -24546360.00643 -19117873.01942  21083764.683    21083761.396
  23749953.944   -10332943.77643  -8034873.76042  23749955.012    23749952.717
  22689734.750   -16433142.63543 -12765117.58442  22689736.033    22689732.262
 04  1  1  1 10 30.0000000  0  7G17G30G10G 5G 6G24G21
  21200760.877   -21252877.49143 -16545079.98442  21200761.480    21200758.661
  20490355.396   -21985096.42244 -16967903.63142  20490357.250    20490353.275
  21204039.442   -18778118.99443 -14593495.40742  21204040.197    21204037.292
  22418706.520   -16509097.52043 -12858990.21042  22418707.433    22418705.072
  21074712.405   -24593921.85343 -19154934.17442  21074713.935    21074710.653
  23765765.932   -10249851.01243  -7970126.11442  23765767.009    23765764.656
  22676532.169   -16502522.64443 -12819179.88042  22676533.385    22676529.466
 04  1  1  1 11  0.0000000  0  7G17G30G10G 5G 6G24G21
  21209347.951   -21207752.11243 -16509917.33342  21209348.533    21209345.720
  20498326.240   -21943209.37344 -16935264.37542  20498328.083    20498324.138
  21210903.730   -18742046.76543 -14565387.15542  21210904.488    21210901.581
  22437122.578   -16412320.43243 -12783579.51142  22437123.512    22437121.173
  21065698.610   -24641289.55643 -19191844.04742  21065700.117    21065696.844
  23781576.336   -10166766.75043  -7905385.08242  23781577.315    23781574.961
  22663370.850   -16571685.68043 -12873073.09342  22663372.108    22663368.253
 04  1  1  1 11 30.0000000  0  7G17G30G10G 5G 6G24G21
  21217977.288   -21162404.50943 -16474581.51742  21217977.884    21217975.077
  20506401.990   -21900770.98244 -16902195.49942  20506403.847    20506399.881
  21217881.248   -18705379.55243 -14536815.27842  21217882.008    21217879.088
  22455585.701   -16315295.94743 -12707976.03142  22455586.654    22455584.279
  21056722.977   -24688456.78144 -19228597.70542  21056724.468    21056721.180
  23797385.849   -10083687.06143  -7840647.61942  23797386.845    23797384.443
  22650251.776   -16640626.36743 -12926793.03142  22650253.008    22650249.203
 04  1  1  1 12  0.0000000  0  7G17G30G10G 5G 6G24G21
  21226648.433   -21116837.31143 -16439074.59042  21226649.018    21226646.206
  20514582.167   -21857783.94344 -16868699.10842  20514584.003    20514580.039
  21224971.526   -18668119.94843 -14507781.80142  21224972.268    21224969.332
  22474095.433   -16218026.95943 -12632182.02342  22474096.354    22474093.998
  21047785.504   -24735423.38843 -19265195.03742  21047787.015    21047783.696
  23813194.082   -10000614.33143  -7775915.55442  23813195.035    23813192.648
  22637174.876   -16709346.00543 -12980340.76642  22637176.122    22637172.188
 04  1  1  1 12 30.0000000  0  7G17G30G10G 5G 6G24G21
  21235360.889   -21071052.95543 -16403398.44642  21235361.461    21235358.661
  20522866.234   -21814250.83344 -16834777.19842  20522868.083    20522864.122
  21232174.024   -18630270.51043 -14478288.70342  21232174.748    21232171.803
  22492650.780   -16120518.05143 -12556201.06642  22492651.709    22492649.329
  21038886.274   -24782189.02844 -19301635.77242  21038887.793    21038884.477
  23829000.573    -9917550.47943  -7711190.43742  23829001.443    23828999.141
  22624139.781   -16777845.40843 -13033716.84142  22624140.985    22624137.228
 04  1  1  1 13  0.0000000  0  7G17G30G10G 5G 6G24G21
  21244114.488   -21025052.40243 -16367553.83842  21244115.054    21244112.265
  20531254.015   -21770172.77344 -16800430.65242  20531255.856    20531251.910
  21239488.500   -18591832.59143 -14448337.05042  21239489.228    21239486.263
  22511251.391   -16022771.09243 -12480034.62042  22511252.313    22511249.970
  21030025.629   -24828751.94644 -19337918.54242  21030027.156    21030023.827
  23844805.167    -9834496.41243  -7646472.93342  23844806.115    23844803.750
  22611146.895   -16846123.72743 -13086920.69942  22611148.109    22611144.135
 04  1  1  1 13 30.0000000  0  7G17G30G10G 5G 6G24G21
  21252909.300   -20978835.13743 -16331540.36642  21252909.889    21252907.105
  20539745.587   -21725549.16644 -16765659.01042  20539747.443    20539743.516
  21246915.004   -18552805.83643 -14417926.56542  21246915.764    21246912.773
  22529897.319   -15924786.14343 -12403682.72342  22529898.244    22529895.936
  21021204.241   -24875108.68044 -19374040.65142  21021205.749    21021202.402
  23860608.204    -9751450.80843  -7581762.02142  23860609.176    23860606.745
  22598196.303   -16914179.04343 -13139950.75242  22598197.496    22598193.653
 04  1  1  1 14  0.0000000  0  7G17G30G10G 5G 6G24G21
  21261744.691   -20932404.71343 -16295360.79542  21261745.279    21261742.511
  20548340.284   -21680383.75944 -16730465.18842  20548342.129    20548338.179
  21254452.836   -18513194.12043 -14387060.26342  21254453.606    21254450.617
  22548587.533   -15826568.67743 -12327149.64042  22548588.425    22548586.107
  21012421.879   -24921260.18943 -19410002.84642  21012423.399    21012420.035
  23876408.967    -9668417.07443  -7517060.37542  23876409.959    23876407.506
  22585287.915   -16982013.19543 -13192808.48142  22585289.118    22585285.218
 04  1  1  1 14 30.0000000  0  7G17G30G10G 5G 6G24G21
  21270619.954   -20885764.82743 -16259018.00942  21270620.507    21270617.795
  20557037.346   -21634680.42644 -16694852.20842  20557039.183    20557035.254
  21262101.256   -18473001.22843 -14355741.10042  21262102.031    21262099.036
  22567321.025   -15728123.32143 -12250438.99342  22567321.944    22567319.657
  21003678.449   -24967207.24144 -19445805.72842  21003679.943    21003676.584
  23892206.867    -9585398.22443  -7452370.29642  23892207.910    23892205.379
  22572421.112   -17049628.09143 -13245495.36142  22572422.305    22572418.379
 04  1  1  1 15  0.0000000  0  7G17G30G10G 5G 6G24G21
  21279536.073   -20838910.17743 -16222507.87542  21279536.633    21279533.910
  20565837.680   -21588434.28044 -16658816.25142  20565839.529    20565835.594
  21269861.174   -18432222.53043 -14323965.46342  21269861.945    21269858.953
  22586098.656   -15629446.05143 -12173547.62342  22586099.577    22586097.281
  20994975.392   -25012941.95844 -19481443.14642  20994976.905    20994973.525
  23908002.991    -9502388.94543  -7387687.68542  23908004.059    23908001.533
  22559597.336   -17117017.54843 -13298006.57542  22559598.522    22559594.657
 04  1  1  1 15 30.0000000  0  7G17G30G10G 5G 6G24G21
  21288491.611   -20791848.43243 -16185836.36542  21288492.156    21288489.441
  20574739.908   -21541652.71944 -16622363.09042  20574741.757    20574737.839
  21277731.097   -18390865.75543 -14291739.37442  21277731.853    21277728.866
  22604918.817   -15530545.46743 -12096482.24842  22604919.745    22604917.485
  20986311.891   -25058468.86044 -19516918.63042  20986313.410    20986310.010
  23923796.038    -9419396.04543  -7323017.85442  23923797.024    23923794.557
  22546815.239   -17184187.36043 -13350346.63342  22546816.408    22546812.584
 04  1  1  1 16  0.0000000  0  8G17G30G29G10G 5G 6G24G21
  21297485.334   -20744586.06143 -16149008.52242  21297485.862    21297483.161
  20583742.698   -21494342.80244 -16585498.22142  20583744.534    20583740.616
  24581588.900    -4991504.36953  -3863537.20552  24581591.044    24581589.354
  21285709.650   -18348937.95243 -14259068.33242  21285710.420    21285707.422
  22623779.859   -15431429.98443 -12019249.40842  22623780.803    22623778.525
  20977687.193   -25103791.85644 -19552235.22042  20977688.721    20977685.313
  23939584.753    -9336425.80543  -7258365.67642  23939585.702    23939583.273
  22534074.134   -17251142.55843 -13402519.47942  22534075.275    22534071.348
 04  1  1  1 16 30.0000000  0  8G17G30G29G10G 5G 6G24G21
  21306519.874   -20697109.28943 -16112013.62142  21306520.391    21306517.676
  20592848.563   -21446491.17344 -16548211.24042  20592850.411    20592846.452
  24568251.812    -5061590.95643  -3918150.04742  24568253.745    24568252.424
  21293799.397   -18306425.89343 -14225942.02842  21293800.170    21293797.196
  22642684.137   -15332087.22643 -11941839.48942  22642685.121    22642682.811
  20969104.406   -25148894.46344 -19587380.08142  20969105.943    20969102.539
  23955371.734    -9253464.48043  -7193720.43142  23955372.689    23955370.223
  22521376.607   -17317867.92043 -13454513.20942  22521377.796    22521373.939
 04  1  1  1 17  0.0000000  0  8G17G30G29G10G 5G 6G24G21
  21315594.030   -20649424.09243 -16074856.30242  21315594.576    21315591.842
  20602056.352   -21398103.80544 -16510506.80142  20602058.207    20602054.273
  24554934.605    -5131572.67843  -3972681.14242  24554936.473    24554935.109
  21301999.141   -18263335.90843 -14192365.39242  21301999.885    21301996.907
  22661630.462   -15232523.70943 -11864257.54542  22661631.425    22661629.126
  20960562.983   -25193779.78144 -19622355.62342  20960564.523    20960561.123
  23971156.048    -9170517.26443  -7129086.20342  23971156.976    23971154.532
  22508722.175   -17384367.63143 -13506331.13542  22508723.345    22508719.330
 04  1  1  1 17 30.0000000  0  8G17G30G29G10G 5G 6G24G21
  21324706.923   -20601535.46143 -16037540.46542  21324707.463    21324704.719
  20611365.048   -21349186.07044 -16472389.09342  20611366.926    20611362.997
  24541637.310    -5201450.21643  -4027131.06642  24541639.312    24541637.742
  21310307.807   -18219673.40643 -14158342.63842  21310308.556    21310305.589
  22680617.640   -15132745.56843 -11786508.35242  22680618.600    22680616.263
  20952062.533   -25238449.91844 -19657163.49342  20952064.067    20952060.650
  23986936.787    -9087588.60043  -7064466.41642  23986937.741    23986935.251
  22496109.882   -17450645.26143 -13557975.99342  22496111.064    22496107.097
 04  1  1  1 18  0.0000000  0  8G17G30G29G10G 5G 6G24G21
  21333857.791   -20553447.15143 -16000069.03042  21333858.348    21333855.605
  20620773.941   -21299742.04144 -16433861.27642  20620775.800    20620771.879
  24528359.883    -5271223.03743  -4081499.37642  24528362.082    24528360.279
  21318724.639   -18175442.41143 -14123876.90442  21318725.409    21318722.435
  22699644.621   -15032758.23843 -11708596.16442  22699645.570    22699643.243
  20943602.863   -25282905.73944 -19691804.35742  20943604.389    20943600.968
  24002713.330    -9004681.93643  -6999863.77142  24002714.297    24002711.792
  22483539.556   -17516703.04443 -13609449.55742  22483540.755    22483536.675
 04  1  1  1 18 30.0000000  0  8G17G30G29G10G 5G 6G24G21
  21343047.857   -20505152.99343 -15962437.19642  21343048.411    21343045.641
  20630284.076   -21249765.94244 -16394918.85842  20630285.941    20630282.008
  24515104.348    -5340880.58243  -4135777.87242  24515106.329    24515104.805
  21327250.740   -18130637.38443 -14088963.87242  21327251.509    21327248.526
  22718712.360   -14932556.70443 -11630517.06042  22718713.301    22718710.926
  20935185.648   -25327138.31744 -19726271.26842  20935187.198    20935183.755
  24018486.955    -8921790.60943  -6935273.07642  24018487.997    24018485.515
  22471012.309   -17582533.59443 -13660746.04742  22471013.520    22471009.488
 04  1  1  1 19  0.0000000  0  8G17G30G29G10G 5G 6G24G21
  21352275.331   -20456662.06543 -15924652.03542  21352275.906    21352273.134
  20639893.654   -21199267.21944 -16355569.20042  20639895.529    20639891.586
  24501869.933    -5410427.59443  -4189970.23242  24501871.838    24501870.440
  21335884.214   -18085268.07443 -14053611.13942  21335884.972    21335882.010
  22737818.784   -14832151.80543 -11552279.49042  22737819.731    22737817.403
  20926809.692   -25371154.15644 -19760569.28742  20926811.243    20926807.796
  24034256.053    -8838923.49343  -6870701.25242  24034256.989    24034254.605
  22458527.038   -17648144.31243 -13711871.24842  22458528.233    22458524.224
 04  1  1  1 19 30.0000000  0  8G17G30G29G10G 5G 6G24G21
  21361541.053   -20407970.27743 -15886710.36042  21361541.628    21361538.843
  20649603.415   -21148242.19244 -16315809.44642  20649605.281    20649601.329
  24488658.173    -5479855.62043  -4244069.86342  24488660.090    24488658.585
  21344625.766   -18039330.86143 -14017815.88442  21344626.512    21344623.537
  22756964.594   -14731540.10843 -11473880.78242  22756965.491    22756963.136
  20918476.312   -25414946.31244 -19794693.00742  20918477.832    20918474.406
  24050021.379    -8756075.97443  -6806144.68742  24050022.351    24050019.956
  22446084.492   -17713529.65843 -13762820.82242  22446085.720    22446081.680
 04  1  1  1 20  0.0000000  0  8G17G30G29G10G 5G 6G24G21
  21370844.364   -20359080.98043 -15848614.77742  21370844.944    21370842.154
  20659412.552   -21096694.72244 -16275642.59642  20659414.444    20659410.488
  24475469.170    -5549163.75143  -4298076.02642  24475471.155    24475469.562
  21353474.609   -17992829.70343 -13981581.19142  21353475.366    21353472.381
  22776148.800   -14630726.21243 -11395324.51742  22776149.746    22776147.412
  20910185.370   -25458515.32944 -19828642.85442  20910186.900    20910183.452
  24065782.444    -8673251.04643  -6741605.72742  24065783.327    24065780.996
  22433684.609   -17778691.57243 -13813596.30342  22433685.846    22433681.802
 04  1  1  1 20 30.0000000  0  8G17G30G29G10G 5G 6G24G21
  21380184.841   -20309996.40243 -15810367.03242  21380185.411    21380182.612
  20669320.684   -21044627.18644 -16235070.48642  20669322.555    20669318.605
  24462303.493    -5618349.64043  -4351986.96942  24462305.323    24462303.964
  21362430.243   -17945767.37943 -13944909.22442  21362431.006    21362428.019
  22795370.861   -14529713.66943 -11316613.44842  22795371.826    22795369.445
  20901937.042   -25501860.37144 -19862418.17642  20901938.590    20901935.142
  24081538.966    -8590450.08443  -6677085.45242  24081539.753    24081537.475
  22421327.066   -17843630.51143 -13864198.03342  22421328.285    22421324.245
 04  1  1  1 21  0.0000000  0  8G17G30G29G10G 5G 6G24G21
  21389562.649   -20260715.73143 -15771966.48342  21389563.193    21389560.361
  20679327.795   -20992039.58244 -16194093.12342  20679329.647    20679325.704
  24449161.961    -5687408.42243  -4405798.84142  24449163.903    24449162.341
  21371492.732   -17898143.54243 -13907799.71142  21371493.486    21371490.515
  22814630.561   -14428503.44643 -11237748.35042  22814631.518    22814629.193
  20893732.013   -25544977.99644 -19896016.28742  20893733.550    20893730.095
  24097291.088    -8507671.99243  -6612583.00642  24097291.857    24097289.558
  22409012.298   -17908344.98243 -13914624.86042  22409013.512    22409009.468
 04  1  1  1 21 30.0000000  0  8G17G30G29G10G 5G 6G24G21
  21398976.776   -20211244.01443 -15733417.06942  21398977.332    21398974.507
  20689432.830   -20938937.22844 -16152714.66742  20689434.688    20689430.741
  24436044.460    -5756340.78343  -4459512.21342  24436046.545    24436044.770
  21380660.941   -17849964.17043 -13870257.31342  21380661.678    21380658.729
  22833926.742   -14327101.52443 -11158733.87542  22833927.699    22833925.337
  20885569.809   -25587870.46244 -19929438.95642  20885571.333    20885567.886
  24113038.080    -8424921.11543  -6548101.77642  24113038.819    24113036.505
  22396739.649   -17972837.95843 -13964879.08642  22396740.855    22396736.874
 04  1  1  1 22  0.0000000  0  8G17G30G29G10G 5G 6G24G21
  21408427.790   -20161578.41743 -15694716.57742  21408428.349    21408425.531
  20699636.170   -20885318.24544 -16110933.64242  20699638.042    20699634.091
  24422952.357    -5825139.74143  -4513121.61342  24422954.463    24422952.788
  21389935.204   -17801227.39743 -13832280.57542  21389935.969    21389932.998
  22853259.655   -14225506.63843 -11079569.04642  22853260.585    22853258.289
  20877451.439   -25630532.61244 -19962682.15342  20877452.982    20877449.501
  24128780.393    -8342194.73543  -6483639.62142  24128781.062    24128778.781
  22384509.875   -18037105.70643 -14014957.82242  22384511.092    22384507.052
 04  1  1  1 22 30.0000000  0  8G17G30G29G10G 5G 6G24G21
  21417915.148   -20111721.80443 -15655867.24042  21417915.727    21417912.901
  20709937.261   -20831185.47044 -16068752.25242  20709939.140    20709935.198
  24409885.957    -5893803.58243  -4566625.73842  24409888.194    24409886.344
  21399315.029   -17751936.02243 -13793871.67742  21399315.797    21399312.809
  22872628.469   -14123722.89843 -11000257.04342  22872629.382    22872627.042
  20869377.020   -25672963.80444 -19995745.38542  20869378.569    20869375.075
  24144517.700    -8259494.84943  -6419198.11942  24144518.338    24144516.009
  22372322.794   -18101149.16543 -14064861.77142  22372324.027    22372319.977
 04  1  1  1 23  0.0000000  0  8G17G30G29G10G 5G 6G24G21
  21427438.846   -20061674.27843 -15616869.14542  21427439.430    21427436.614
  20720335.966   -20776539.83544 -16026171.23942  20720337.849    20720333.897
  24396846.076    -5962328.14843  -4620021.34542  24396848.226    24396846.328
  21408800.142   -17702091.30343 -13755031.60542  21408800.921    21408797.914
  22892033.012   -14021751.28543 -10920798.65442  22892033.935    22892031.683
  20861347.023   -25715161.57444 -20028626.73542  20861348.556    20861345.067
  24160249.891    -8176821.30443  -6354777.14942  24160250.557    24160248.281
  22360178.641   -18164966.96843 -14114589.90342  22360179.866    22360175.746
 04  1  1  1 23 30.0000000  0  9G17G30G29G10G 5G18G 6G24G21
  21436996.212   -20011449.80443 -15577733.16642  21436996.800    21436993.976
  20730829.490   -20721395.95244 -15983201.99042  20730831.370    20730827.426
  24383830.778    -6030723.27343  -4673316.09242  24383832.978    24383830.896
  21418387.756   -17651708.01143 -13715771.86142  21418388.544    21418385.505
  22911470.293   -13919607.69143 -10841206.25242  22911471.225    22911468.926
  24767448.511    -4417628.75453  -3394368.09952  24767450.092    24767448.390
  20853359.305   -25757137.25944 -20061335.03642  20853360.826    20853357.336
  24175974.566    -8094187.63343  -6290387.24242  24175975.148    24175972.890
  22348074.976   -18228572.07343 -14164152.29242  22348076.196    22348072.088
 04  1  1  1 24  0.0000000  0  9G17G30G29G10G 5G18G 6G24G21
  21446590.930   -19961029.20343 -15538444.36242  21446591.511    21446588.667
  20741421.355   -20665735.28444 -15939830.04142  20741423.233    20741419.277
  24370844.602    -6098965.57243  -4726491.80042  24370846.675    24370844.741
  21428081.392   -17600767.47743 -13676077.90842  21428082.182    21428079.154
  22930943.668   -13817274.27543 -10761465.95142  22930944.588    22930942.391
  24746312.026    -4528700.28343  -3480917.06742  24746313.736    24746312.129
  20845418.056   -25798868.74944 -20093853.05242  20845419.585    20845416.062
  24191695.422    -8011574.03643  -6226012.97942  24191696.001    24191693.709
  22336015.625   -18291943.98243 -14213532.96542  22336016.838    22336012.764
 04  1  1  1 24 30.0000000  0  9G17G30G29G10G 5G18G 6G24G21
  21456221.404   -19910420.65643 -15499009.10542  21456221.964    21456219.115
  20752109.896   -20609566.61644 -15896062.23942  20752111.799    20752107.830
  24357886.738    -6167058.74443  -4779551.25442  24357888.948    24357886.884
  21437879.276   -17549279.06043 -13635957.02742  21437880.072    21437877.043
  22950451.439   -13714760.47843 -10681585.07442  22950452.323    22950450.090
  24725180.787    -4639746.14543  -3567446.23242  24725182.470    24725180.323
  20837522.213   -25840361.47744 -20126185.01942  20837523.755    20837520.237
  24207410.939    -7928988.44043  -6161660.52842  24207411.442    24207409.169
  22323999.503   -18355089.32443 -14262737.10442  22324000.682    22323996.555
 04  1  1  1 25  0.0000000  0  9G17G30G29G10G 5G18G 6G24G21
  21465886.883   -19859628.07943 -15459430.44442  21465887.462    21465884.582
  20762894.231   -20552894.48644 -15851902.13542  20762896.125    20762892.174
  24344957.469    -6235002.25043  -4832494.09942  24344959.572    24344957.309
  21447780.642   -17497246.98543 -13595412.52142  21447781.439    21447778.404
  22969992.527   -13612071.54943 -10601567.76042  22969993.386    22969991.224
  24704054.385    -4750766.17043  -3653955.20142  24704055.967    24704053.845
  20829671.654   -25881616.29144 -20158331.59842  20829673.213    20829669.685
  24223120.526    -7846433.80343  -6097332.19742  24223120.939    24223118.746
  22312025.924   -18418010.58043 -14311766.61442  22312027.064    22312023.018
 04  1  1  1 25 30.0000000  0  9G17G30G29G10G 5G18G 6G24G21
  21475587.422   -19808651.31543 -15419708.26742  21475587.998    21475585.107
  20773774.217   -20495719.60644 -15807350.27142  20773776.134    20773772.189
  24332057.328    -6302792.05143  -4885317.18342  24332059.448    24332057.145
  21457785.233   -17444672.43043 -13554445.30642  21457786.024    21457782.961
  22989566.665   -13509208.57843 -10521414.80342  22989567.522    22989565.372
  24682933.062    -4861757.21943  -3740441.37642  24682934.881    24682932.828
  20821866.867   -25922630.71344 -20190290.86142  20821868.382    20821864.868
  24238824.210    -7763909.90043  -6033027.82542  24238824.636    24238822.458
  22300095.317   -18480706.51543 -14360620.57542  22300096.445    22300092.298
 04  1  1  1 26  0.0000000  0  9G17G30G29G10G 5G18G 6G24G21
  21485321.871   -19757496.45343 -15379847.31042  21485322.438    21485319.524
  20784748.677   -20438048.57544 -15762411.80142  20784750.552    20784746.617
  24319186.203    -6370429.79543  -4938021.78942  24319188.225    24319185.921
  21467891.710   -17391562.26143 -13513060.72842  21467892.538    21467889.462
  23009172.523   -13406179.22543 -10441132.21142  23009173.416    23009171.296
  24661817.304    -4972721.32543  -3826906.86142  24661818.969    24661816.797
  20814107.208   -25963407.78044 -20222065.17142  20814108.726    20814105.211
  24254521.127    -7681422.06743  -5968751.55742  24254521.501    24254519.364
  22288206.608   -18543181.72343 -14409302.51142  22288207.726    22288203.689
 04  1  1  1 26 30.0000000  0  9G17G30G29G10G 5G18G 6G24G21
  21495091.632   -19706155.81543 -15339841.59942  21495092.217    21495089.288
  20795818.840   -20379874.46943 -15717081.33242  20795820.702    20795816.745
  24306346.262    -6437903.41443  -4990598.48742  24306348.426    24306346.031
  21478101.507   -17337909.37743 -13471253.26042  21478102.310    21478099.236
  23028811.292   -13302976.70943 -10360714.67742  23028812.201    23028810.021
  24640708.419    -5083647.58943  -3913342.65142  24640710.234    24640708.235
  20806394.751   -26003936.86544 -20253646.25042  20806396.273    20806392.748
  24270212.670    -7598962.10843  -5904497.00542  24270213.090    24270210.890
  22276361.711   -18605427.11543 -14457805.38942  22276362.809    22276358.676
 04  1  1  1 27  0.0000000  0  9G17G30G29G10G 5G18G 6G24G21
  21504895.066   -19654638.26043 -15299698.02342  21504895.659    21504892.729
  20806982.895   -20321207.01844 -15671366.43842  20806984.744    20806980.784
  24293536.632    -6505217.93543  -5043051.28642  24293538.859    24293536.347
  21488412.670   -17283723.79843 -13429030.70442  21488413.455    21488410.386
  23048480.956   -13199611.82243 -10280170.63442  23048481.858    23048479.793
  24619606.012    -5194541.17943  -3999753.05542  24619607.756    24619605.862
  20798728.302   -26044224.30444 -20285039.02842  20798729.804    20798726.268
  24285897.283    -7516538.44543  -5840270.73742  24285897.712    24285895.609
  22264559.076   -18667450.29343 -14506135.09342  22264560.176    22264556.074
 04  1  1  1 27 30.0000000  0  9G17G30G29G10G 5G18G 6G24G21
  21514732.388   -19602942.70543 -15259415.74642  21514732.978    21514730.040
  20818240.871   -20262045.97344 -15625266.92642  20818242.726    20818238.755
  24280758.404    -6572367.91543  -5095375.86742  24280760.458    24280758.084
  21498825.174   -17229005.53043 -13386393.06842  21498825.951    21498822.901
  23068181.549   -13096084.72743 -10199500.15942  23068182.459    23068180.317
  24598510.607    -5305397.59643  -4086134.50742  24598512.301    24598510.410
  20791108.503   -26084266.43144 -20316240.65742  20791110.035    20791106.481
  24301575.300    -7434149.36343  -5776071.42042  24301575.743    24301573.706
  22252799.125   -18729249.08343 -14554289.95942  22252800.235    22252796.090
 04  1  1  1 28  0.0000000  0  9G17G30G29G10G 5G18G 6G24G21
  21524603.582   -19551069.20143 -15218994.81442  21524604.137    21524601.198
  20829592.620   -20202392.10444 -15578783.39742  20829594.471    20829590.520
  24268012.351    -6639348.82943  -5147568.69042  24268014.235    24268011.858
  21509338.891   -17173755.42843 -13343341.01442  21509339.649    21509336.634
  23087912.719   -12992396.60243 -10118704.25642  23087913.604    23087911.572
  24577423.003    -5416213.21643  -4172484.18042  24577424.763    24577422.648
  20783535.956   -26124060.39644 -20347248.90642  20783537.457    20783533.922
  24317246.893    -7351794.49843  -5711898.76542  24317247.356    24317245.186
  22241082.127   -18790822.41343 -14602269.13942  22241083.227    22241079.063
 04  1  1  1 28 30.0000000  0  9G17G30G29G10G 5G18G 6G24G21
  21534507.814   -19499022.02943 -15178438.55342  21534508.370    21534505.410
  20841037.225   -20142250.34544 -15531919.69442  20841039.070    20841035.108
  24255298.375    -6706160.74643  -5199629.82942  24255300.347    24255297.888
  21519952.853   -17117978.48143 -13299878.43442  21519953.608    21519950.604
  23107673.409   -12888553.54543 -10037787.56542  23107674.328    23107672.180
  24556343.064    -5526988.43843  -4258802.36242  24556344.753    24556342.751
  20776010.387   -26163607.40144 -20378064.72642  20776011.898    20776008.341
  24332911.319    -7269477.57843  -5647755.67442  24332911.699    24332909.621
  22229407.474   -18852172.64643 -14650074.46542  22229408.600    22229404.452
 04  1  1  1 29  0.0000000  0  9G17G30G29G10G 5G18G 6G24G21
  21544445.578   -19446798.57143 -15137744.92942  21544446.152    21544443.167
  20852574.997   -20081618.91043 -15484674.40842  20852576.859    20852572.894
  24242617.793    -6772796.92043  -5251554.03542  24242619.765    24242617.345
  21530667.354   -17061673.19943 -13256004.16442  21530668.124    21530665.144
  23127463.863   -12784554.05243  -9956749.02142  23127464.798    23127462.669
  24535271.957    -5637717.25743  -4345084.45142  24535273.545    24535271.383
  20768532.836   -26202902.12744 -20408683.94942  20768534.356    20768530.771
  24348569.052    -7187195.50743  -5583639.74242  24348569.516    24348567.413
  22217776.090   -18913296.16843 -14697703.15642  22217777.201    22217772.962
 04  1  1  1 29 30.0000000  0  9G17G30G29G10G 5G18G 6G24G21
  21554416.365   -19394401.70743 -15096916.18542  21554416.931    21554413.947
  20864205.185   -20020501.86443 -15437050.73942  20864207.032    20864203.084
  24229970.997    -6839255.69343  -5303339.96442  24229972.881    24229970.532
  21541481.646   -17004843.51843 -13211721.27342  21541482.420    21541479.452
  23147283.194   -12680402.51543  -9875592.00042  23147284.130    23147282.004
  24514209.689    -5748399.09643  -4431329.86642  24514211.385    24514209.234
  20761103.243   -26241944.85444 -20439106.82242  20761104.747    20761101.156
  24364219.618    -7104950.64543  -5519552.81342  24364220.180    24364217.919
  22206187.395   -18974194.75443 -14745156.55842  22206188.539    22206184.335
 04  1  1  1 30  0.0000000  0  9G17G30G29G10G 5G18G 6G24G21
  21564420.398   -19341830.17643 -15055951.33342  21564420.955    21564417.950
  20875927.917   -19958898.61444 -15389048.20942  20875929.757    20875925.795
  24217358.864    -6905532.03643  -5354983.73142  24217360.939    24217358.339
  21552395.784   -16947489.25743 -13167029.61542  21552396.557    21552393.581
  23167131.643   -12576098.90643  -9794316.45742  23167132.541    23167130.289
  24493157.432    -5859028.80143  -4517534.72142  24493159.145    24493156.985
  20753722.347   -26280731.64444 -20469330.27142  20753723.843    20753720.249
  24379863.385    -7022741.42443  -5455493.66542  24379864.098    24379861.771
  22194642.077   -19034865.63343 -14792432.52942  22194643.224    22194638.972
 04  1  1  1 30 30.0000000  0  9G17G30G29G10G 5G18G 6G24G21
  21574456.153   -19289091.95543 -15014856.59842  21574456.693    21574453.686
  20887741.383   -19896818.33344 -15340673.97742  20887743.236    20887739.285
  24204780.778    -6971629.82243  -5406488.38642  24204782.854    24204780.202
  21563408.002   -16889619.64343 -13121936.38342  21563408.751    21563405.789
  23187007.015   -12471652.89443  -9712929.97642  23187007.927    23187005.734
  24472114.391    -5969610.92443  -4603702.55242  24472116.012    24472113.873
  20746389.130   -26319267.76544 -20499358.39242  20746390.639    20746387.052
  24395499.027    -6940575.14543  -5391467.98042  24395499.876    24395497.435
  22183138.789   -19095315.67443 -14839536.41042  22183139.920    22183135.729
 04  1  1  1 31  0.0000000  0  9G17G30G29G10G 5G18G 6G24G21
  21584523.871   -19236185.62343 -14973630.86342  21584524.423    21584521.413
  20899645.821   -19834260.11543 -15291927.32242  20899647.673    20899643.741
  24192237.912    -7037542.92843  -5457849.16742  24192239.652    24192237.313
  21574518.320   -16831234.25143 -13076441.24742  21574519.101    21574516.099
  23206909.671   -12367064.21643  -9631432.30242  23206910.556    23206908.256
  24451081.138    -6080140.52443  -4689829.37042  24451082.747    24451080.719
  20739104.484   -26357548.70144 -20529187.67042  20739105.998    20739102.385
  24411126.920    -6858449.58743  -5327474.00842  24411127.781    24411125.390
  22171678.060   -19155541.89743 -14886465.89642  22171679.200    22171674.966
 04  1  1  1 31 30.0000000  0  9G17G30G29G10G 5G18G 6G24G21
  21594624.609   -19183105.78843 -14932269.93542  21594625.164    21594622.137
  20911641.949   -19771220.06243 -15242805.20642  20911643.802    20911639.872
  24179731.911    -7103262.45543  -5509059.11442  24179733.703    24179731.307
  21585727.668   -16772328.69843 -13030540.79042  21585728.443    21585725.426
  23226840.091   -12262329.21543  -9549820.64342  23226840.973    23226838.717
  24430059.492    -6190608.91843  -4775908.56542  24430061.039    24430059.083
  20731869.916   -26395566.68944 -20558812.05542  20731871.395    20731867.773
  24426748.078    -6776359.31143  -5263507.54142  24426748.882    24426746.652
  22160261.141   -19215538.22943 -14933216.23942  22160262.255    22160258.055
 04  1  1  1 32  0.0000000  0  9G17G30G29G10G 5G18G 6G24G21
  21604756.550   -19129862.18643 -14890781.39442  21604757.075    21604754.044
  20923727.820   -19707708.41043 -15193315.59542  20923729.663    20923725.755
  24167261.827    -7168793.29943  -5560122.06342  24167263.707    24167261.179
  21597033.950   -16712913.54543 -12984243.24242  21597034.735    21597031.718
  23246796.186   -12157458.77943  -9468103.41642  23246797.119    23246794.802
  24409048.525    -6301021.81143  -4861944.52042  24409050.069    24409047.972
  20724684.086   -26433328.34844 -20588236.70042  20724685.577    20724681.935
  24442360.913    -6694312.94643  -5199575.27742  24442361.725    24442359.579
  22148886.310   -19275312.88543 -14979793.84142  22148887.457    22148883.225
 04  1  1  1 32 30.0000000  0  9G17G30G29G10G 5G18G 6G24G21
  21614919.883   -19076453.43143 -14849164.16342  21614920.397    21614917.385
  20935903.464   -19643725.00343 -15143458.38842  20935905.323    20935901.385
  24154828.513    -7234130.35643  -5611033.93742  24154830.426    24154827.760
  21608437.173   -16652989.06443 -12937548.81942  21608437.963    21608434.938
  23266778.208   -12052453.02743  -9386280.78142  23266779.075    23266776.862
  24388049.024    -6411374.73343  -4947933.77442  24388050.556    24388048.239
  20717547.809   -26470829.76044 -20617458.55942  20717549.293    20717545.630
  24457965.623    -6612309.03643  -5135676.11342  24457966.458    24457964.306
  22137554.185   -19334863.59243 -15026196.93942  22137555.338    22137551.092
 04  1  1  1 33  0.0000000  0  9G17G30G29G10G 5G18G 6G24G21
  21625115.044   -19022877.41443 -14807416.60142  21625115.563    21625112.544
  20948169.131   -19579268.60343 -15093232.63242  20948170.949    20948167.060
  24142433.335    -7299267.03343  -5661789.70642  24142435.103    24142432.491
  21619937.607   -16592553.86043 -12890456.43142  21619938.397    21619935.362
  23286785.897   -11947311.34443  -9304352.21942  23286786.820    23286784.580
  24367062.049    -6521661.65743  -5033871.59442  24367063.580    24367061.301
  20710462.017   -26508065.69244 -20646473.54542  20710463.498    20710459.836
  24473562.775    -6530344.73143  -5071807.80342  24473563.768    24473561.543
  22126265.355   -19394186.67043 -15072422.66142  22126266.472    22126262.215
 04  1  1  1 33 30.0000000  0  9G17G30G29G10G 5G18G 6G24G21
  21635341.308   -18969137.86643 -14765541.61142  21635341.834    21635338.844
  20960523.849   -19514344.04443 -15042642.06542  20960525.699    20960521.774
  24130076.401    -7364202.91643  -5712389.01942  24130078.153    24130075.452
  21631534.238   -16531613.00343 -12842970.03242  21631535.023    21631531.988
  23306818.715   -11842038.92643  -9222321.78642  23306819.578    23306817.347
  24346087.558    -6631882.88843  -5119758.20242  24346089.015    24346086.857
  20703426.507   -26545037.43044 -20675282.65842  20703427.999    20703424.317
  24489151.926    -6448422.86943  -5007972.57742  24489152.969    24489150.722
  22115019.310   -19453284.80343 -15118473.10242  22115020.408    22115016.191
 04  1  1  1 34  0.0000000  0  9G17G30G29G10G 5G18G 6G24G21
  21645598.294   -18915237.01443 -14723540.92742  21645598.824    21645595.803
  20972966.979   -19448954.82343 -14991689.41242  20972968.854    20972964.937
  24117758.015    -7428936.19943  -5762830.49442  24117759.778    24117757.022
  21643226.417   -16470170.13943 -12795092.45442  21643227.181    21643224.155
  23326875.494   -11736639.23443  -9140192.16642  23326876.383    23326874.167
  24325125.953    -6742037.27443  -5205592.77242  24325127.296    24325125.080
  20696441.321   -26581744.67844 -20703885.67842  20696442.818    20696439.126
  24504732.547    -6366545.88143  -4944172.30442  24504733.633    24504731.341
  22103815.865   -19512159.24143 -15164349.23542  22103816.960    22103812.718
 04  1  1  1 34 30.0000000  0  9G17G30G29G10G 5G18G 6G24G21
  21655886.521   -18861171.93343 -14681412.27342  21655887.041    21655884.026
  20985498.947   -19383098.92843 -14940373.12342  20985500.799    20985496.902
  24105479.402    -7493459.79543  -5813108.54742  24105481.146    24105478.586
  21655014.534   -16408223.12943 -12746822.03542  21655015.288    21655012.263
  23346956.868   -11631111.13143  -9057962.48242  23346957.796    23346955.558
  24304178.267    -6852118.12743  -5291370.01042  24304179.561    24304177.389
  20689507.634   -26618181.37744 -20732277.89842  20689509.119    20689505.425
  24520305.405    -6284709.94543  -4880404.03142  24520306.535    24520304.219
  22092655.776   -19570805.59943 -15210047.64742  22092656.860    22092652.625
 04  1  1  1 35  0.0000000  0 10G17G30G29G26G10G 5G18G 6G24G21
  21666204.252   -18806951.66843 -14639162.69642  21666204.806    21666201.787
  20998117.790   -19316786.56343 -14888701.17042  20998119.637    20998115.723
  24093239.798    -7557778.56843  -5863227.00742  24093241.705    24093239.141
  24286326.703    -7035458.76453  -5478475.52752  24286328.575    24286327.219
  21666896.583   -16345782.44243 -12698166.93042  21666897.340    21666894.288
  23367060.681   -11525464.71643  -8975640.62342  23367061.616    23367059.413
  24283243.358    -6962130.65143  -5377093.99842  24283244.766    24283242.613
  20682624.190   -26654354.00744 -20760464.34142  20682625.694    20682621.981
  24535868.784    -6202923.39043  -4816674.23942  24535870.005    24535867.572
  22081537.589   -19629231.93743 -15255574.61242  22081538.687    22081534.409
 04  1  1  1 35 30.0000000  0 10G17G30G29G26G10G 5G18G 6G24G21
  21676552.759   -18752569.84943 -14596787.23242  21676553.311    21676550.289
  21010824.484   -19250012.45843 -14836669.41542  21010826.325    21010822.396
  24081041.207    -7621882.02343  -5913177.66342  24081043.230    24081040.615
  24269360.031    -7124618.48643  -5547950.47842  24269362.009    24269360.620
  21678873.504   -16282843.23143 -12649123.35542  21678874.259    21678871.187
  23387187.801   -11419695.66543  -8893223.19642  23387188.762    23387186.573
  24262323.519    -7072065.30243  -5462757.27742  24262324.934    24262322.726
  20675792.713   -26690253.44444 -20788437.90042  20675794.228    20675790.515
  24551424.276    -6121179.41043  -4752977.62242  24551425.373    24551422.912
  22070462.636   -19687430.85243 -15300924.37142  22070463.776    22070459.440
 04  1  1  1 36  0.0000000  0 10G17G30G29G26G10G 5G18G 6G24G21
  21686930.910   -18698032.24143 -14554290.37242  21686931.445    21686928.431
  21023617.699   -19182783.64043 -14784283.30242  21023619.560    21023615.646
  24068883.235    -7685771.95043  -5962961.91842  24068885.281    24068882.615
  24252402.021    -7213733.32743  -5617390.44342  24252404.034    24252402.582
  21690943.924   -16219412.61443 -12599696.87442  21690944.690    21690941.612
  23407337.047   -11313811.13243  -8810715.78642  23407337.958    23407335.820
  24241417.969    -7181924.67043  -5548361.96142  24241419.400    24241417.075
  20669012.653   -26725882.84544 -20816201.05342  20669014.150    20669010.444
  24566970.526    -6039483.37543  -4689318.36742  24566971.695    24566969.144
  22059430.171   -19745406.55143 -15346100.19642  22059431.343    22059427.002
 04  1  1  1 36 30.0000000  0 10G17G30G29G26G10G 5G18G 6G24G21
  21697339.087   -18643336.69043 -14511670.44342  21697339.641    21697336.632
  21036497.647   -19115098.91843 -14731541.94342  21036499.523    21036495.614
  24056767.233    -7749441.95143  -6012574.83842  24056769.202    24056766.594
  24235453.723    -7302796.54543  -5686790.18842  24235455.775    24235454.306
  21703108.087   -16155489.52143 -12549886.64342  21703108.827    21703105.726
  23427508.219   -11207810.32843  -8728117.76442  23427509.171    23427507.023
  24220527.709    -7291702.72743  -5633903.20342  24220529.148    24220527.008
  20662284.909   -26761237.30544 -20843749.96142  20662286.401    20662282.683
  24582508.193    -5957832.33243  -4625694.18142  24582509.436    24582506.826
  22048440.750   -19803156.29643 -15391099.96142  22048441.897    22048437.529
 04  1  1  1 37  0.0000000  0 10G17G30G29G26G10G 5G18G 6G24G21
  21707777.160   -18588484.07943 -14468928.12342  21707777.725    21707774.729
  21049463.956   -19046960.49643 -14678447.06742  21049465.833    21049461.925
  24044693.796    -7812888.72343  -6062013.81142  24044695.647    24044693.015
  24218515.925    -7391804.60143  -5756146.95742  24218518.027    24218516.373
  21715365.560   -16091076.03943 -12499694.28742  21715366.307    21715363.187
  23447701.354   -11101695.44743  -8645430.87442  23447702.258    23447700.114
  24199653.474    -7401396.87043  -5719379.04342  24199654.950    24199652.813
  20655609.833   -26796315.05544 -20871083.24542  20655611.320    20655607.592
  24598037.237    -5876226.39343  -4562105.12042  24598038.510    24598035.917
  22037494.407   -19860679.29943 -15435923.03342  22037495.562    22037491.236
 04  1  1  1 37 30.0000000  0 10G17G30G29G26G10G 5G18G 6G24G21
  21718244.934   -18533475.46643 -14426064.24342  21718245.499    21718242.493
  21062516.151   -18978370.82443 -14625000.57142  21062518.005    21062514.085
  24032663.229    -7876109.50843  -6111276.69642  24032665.094    24032662.361
  24201589.270    -7480753.96943  -5825457.98342  24201591.443    24201589.865
  21727715.909   -16026174.46343 -12449121.60342  21727716.638    21727713.517
  23467915.436   -10995469.25643  -8562657.24142  23467916.366    23467914.248
  24178795.756    -7511004.60843  -5804787.59042  24178797.133    24178795.045
  20648987.705   -26831114.52644 -20898199.69442  20648989.180    20648985.435
  24613557.580    -5794666.41643  -4498551.86742  24613558.840    24613556.250
  22026591.145   -19917976.17943 -15480569.90642  22026592.277    22026587.948
 04  1  1  1 38  0.0000000  0 10G17G30G29G26G10G 5G18G 6G24G21
  21728740.628   -18478320.09843 -14383086.00642  21728741.197    21728738.189
  21075652.175   -18909340.33843 -14571210.59342  21075654.049    21075650.159
  24020674.697    -7939109.30943  -6160367.38742  24020676.457    24020673.788
  24184672.895    -7569649.70443  -5894727.23342  24184674.967    24184673.388
  21740157.024   -15960795.91143 -12398177.25342  21740157.759    21740154.614
  23488148.907   -10889142.51743  -8479805.24342  23488149.816    23488147.619
  24157953.381    -7620531.73243  -5890133.28342  24157954.851    24157952.781
  20642417.287   -26865642.30744 -20925104.44442  20642418.750    20642415.000
  24629067.561    -5713161.02943  -4435041.15142  24629068.802    24629066.248
  22015729.481   -19975054.50943 -15525046.48442  22015730.597    22015726.286
 04  1  1  1 38 30.0000000  0 10G17G30G29G26G10G 5G18G 6G24G21
  21739266.211   -18423007.67243 -14339985.38742  21739266.794    21739263.763
  21088873.928   -18839859.53343 -14517069.71442  21088875.781    21088871.882
  24008730.984    -8001873.42343  -6209274.43542  24008732.621    24008730.068
  24167769.737    -7658476.17943  -5963942.52842  24167771.728    24167770.097
  21752690.732   -15894930.83043 -12346853.78942  21752691.453    21752688.296
  23508403.023   -10782705.89243  -8396867.67142  23508403.953    23508401.870
  24137128.939    -7729963.98543  -5975405.05642  24137130.528    24137128.279
  20635901.086   -26899884.97244 -20951787.01342  20635902.567    20635898.804
  24644569.230    -5631699.00043  -4371564.22642  24644570.450    24644567.971
  22004911.577   -20031902.74043 -15569343.76642  22004912.693    22004908.369
 04  1  1  1 39  0.0000000  0 10G17G30G29G26G10G 5G18G 6G24G21
  21749820.216   -18367545.96543 -14296768.45242  21749820.756    21749817.759
  21102179.548   -18769937.94143 -14462585.35942  21102181.408    21102177.524
  23996831.325    -8064406.38243  -6258001.36742  23996832.914    23996830.352
  24150879.023    -7747237.35043  -6033106.93942  24150880.955    24150879.208
  21765315.148   -15828588.97043 -12295158.81042  21765315.891    21765312.692
  23528676.396   -10676169.22543  -8313852.08442  23528677.335    23528675.120
  24116321.701    -7839306.51643  -6060606.92142  24116323.281    24116321.076
  20629438.080   -26933848.10544 -20978251.76542  20629439.573    20629435.812
  24660061.226    -5550288.30843  -4308127.31042  24660062.387    24660059.840
  21994136.020   -20088528.50043 -15613467.69142  21994137.119    21994132.832
 04  1  1  1 39 30.0000000  0 10G17G30G29G26G10G 5G18G 6G24G21
  21760402.550   -18311935.34543 -14253435.47742  21760403.088    21760400.084
  21115568.775   -18699577.00943 -14407758.66342  21115570.635    21115566.755
  23984976.402    -8126703.71143  -6306544.68842  23984978.207    23984975.536
  24134001.452    -7835928.81443  -6102217.03042  24134003.460    24134001.661
  21778030.020   -15761771.80143 -12243093.45542  21778030.757    21778027.540
  23548968.312   -10569534.30043  -8230759.97742  23548969.234    23548967.124
  24095532.109    -7948555.87743  -6145736.18342  24095533.840    24095531.522
  20623028.800   -26967528.94644 -21004496.55442  20623030.296    20623026.544
  24675543.561    -5468928.11743  -4244729.75842  24675544.777    24675542.080
  21983403.072   -20144930.39443 -15657417.18342  21983404.181    21983399.862
 04  1  1  1 40  0.0000000  0 10G17G30G29G26G10G 5G18G 6G24G21
  21771013.344   -18256175.19543 -14209985.98842  21771013.864    21771010.844
  21129041.463   -18628777.53643 -14352590.26542  21129043.302    21129039.432
  23973167.190    -8188761.14943  -6354901.07542  23973169.046    23973166.349
  24117138.043    -7924545.62743  -6171268.95342  24117140.163    24117138.226
  21790835.169   -15694480.17643 -12190658.40342  21790835.911    21790832.685
  23569278.909   -10462802.06843  -8147591.99842  23569279.828    23569277.591
  24074760.963    -8057707.91543  -6230789.54542  24074762.797    24074760.470
  20616673.827   -27000924.45544 -21030519.00842  20616675.325    20616671.566
  24691016.558    -5387617.41743  -4181370.73642  24691017.610    24691014.921
  21972712.974   -20201107.02843 -15701191.13542  21972714.110    21972709.766
 04  1  1  1 40 30.0000000  0 10G17G30G29G26G10G 5G18G 6G24G21
  21781652.331   -18200266.77943 -14166420.97342  21781652.862    21781649.834
  21142597.130   -18557542.06643 -14297082.10842  21142598.966    21142595.090
  23961404.182    -8250575.87843  -6403068.29342  23961405.956    23961403.444
  24100289.549    -8013084.35543  -6240260.03842  24100291.641    24100289.644
  21803730.083   -15626716.79443 -12137855.74442  21803730.837    21803727.589
  23589607.455   -10355974.73343  -8064349.96742  23589608.339    23589606.262
  24054009.002    -8166760.48543  -6315765.45142  24054010.766    24054008.384
  20610373.404   -27034033.38544 -21056318.14842  20610374.883    20610371.122
  24706479.984    -5306356.88043  -4118050.82542  24706481.054    24706478.252
  21962065.752   -20257058.33243 -15744789.50742  21962066.914    21962062.547
 04  1  1  1 41  0.0000000  0 10G17G30G29G26G10G 5G18G 6G24G21
  21792319.062   -18144212.54043 -14122742.32642  21792319.611    21792316.582
  21156235.058   -18485874.29143 -14241237.07842  21156236.891    21156233.023
  23949687.742    -8312146.12343  -6451045.04942  23949689.532    23949686.861
  24083456.294    -8101542.82243  -6309188.57742  24083458.478    24083456.432
  21816714.082   -15558485.32843 -12084688.34842  21816714.855    21816711.579
  23609953.313   -10249056.78443  -7981037.29542  23609954.190    23609952.102
  24033276.067    -8275712.56643  -6400663.07042  24033277.733    24033275.278
  20604127.569   -27066855.30944 -21081893.65442  20604129.055    20604125.282
  24721933.537    -5225147.96043  -4054771.10242  24721934.589    24721931.744
  21951461.153   -20312785.74943 -15788213.42442  21951462.318    21951457.919
 04  1  1  1 41 30.0000000  0 10G17G30G29G26G10G 5G18G 6G24G21
  21803013.194   -18088014.51443 -14078951.63942  21803013.720    21803010.675
  21169954.565   -18413777.83443 -14185058.00842  21169956.391    21169952.533
  23938018.063    -8373470.36443  -6498830.09742  23938019.953    23938017.117
  24066638.849    -8189918.80043  -6378052.84542  24066640.893    24066638.866
  21829786.422   -15489789.68743 -12031159.25542  21829787.179    21829783.896
  23630315.707   -10142051.74243  -7897656.76042  23630316.560    23630314.450
  24012562.359    -8384563.20543  -6485481.57042  24012564.008    24012561.585
  20597936.501   -27099389.52644 -21107244.97242  20597937.977    20597934.187
  24737376.914    -5143992.43743  -3991533.01742  24737378.063    24737375.121
  21940898.882   -20368290.47143 -15831463.81042  21940900.055    21940895.688
 04  1  1  1 42  0.0000000  0 10G17G30G29G26G10G 5G18G 6G24G21
  21813735.820   -18031666.65443 -14035044.19342  21813736.341    21813733.290
  21183756.568   -18341247.84343 -14128541.12442  21183758.413    21183754.557
  23926397.173    -8434538.16343  -6546415.27542  23926399.118    23926396.296
  24049839.090    -8278201.52343  -6446844.43042  24049841.145    24049839.105
  21842947.985   -15420625.25843 -11977264.87742  21842948.746    21842945.434
  23650695.568   -10034955.27743  -7814204.99742  23650696.406    23650694.350
  23991869.989    -8493302.38343  -6570213.30242  23991871.623    23991869.017
  20591801.838   -27131627.36744 -21132365.34942  20591803.303    20591799.498
  24752811.400    -5062883.82243  -3928331.51342  24752812.494    24752809.412
  21930380.356   -20423565.49943 -15874535.21542  21930381.544    21930377.158
 04  1  1  1 42 30.0000000  0 10G17G30G29G26G10G 5G18G 6G24G21
  21824484.427   -17975182.24943 -13991030.34942  21824484.949    21824481.887
  21197638.294   -18268299.06243 -14071697.91942  21197640.126    21197636.230
  23914823.230    -8495358.99543  -6593808.01942  23914825.225    23914822.413
  24033055.369    -8366399.75243  -6515570.17942  24033057.457    24033055.375
  21856195.954   -15351006.70343 -11923016.63342  21856196.695    21856193.395
  23671089.985    -9927781.89143  -7730693.28642  23671090.820    23671088.667
  23971196.906    -8601939.75043  -6654865.66342  23971198.508    23971195.829
  20585721.527   -27163579.53244 -21157263.11942  20585723.008    20585719.193
  24768234.574    -4981834.62043  -3865176.23142  24768235.691    24768232.626
  21919903.238   -20478622.94543 -15917437.07542  21919904.419    21919900.022
 04  1  1  1 43  0.0000000  0 10G17G30G29G26G10G 5G18G 6G24G21
  21835260.449   -17918553.76543 -13946904.23542  21835260.981    21835257.897
  21211600.831   -18194925.43843 -14014523.66242  21211602.676    21211598.760
  23903298.550    -8555921.29543  -6640999.32242  23903300.560    23903297.669
  24016290.024    -8454501.62543  -6584220.85942  24016292.074    24016289.998
  21869531.413   -15280928.25143 -11868410.03042  21869532.175    21869528.856
  23691500.145    -9820525.68343  -7647117.05042  23691501.000    23691498.927
  23950545.149    -8710464.88043  -6739430.55242  23950546.729    23950544.133
  20579697.518   -27195235.84544 -21181930.35342  20579698.998    20579695.183
  24783647.933    -4900836.85943  -3802061.07342  24783649.026    24783646.087
  21909469.123   -20533454.39143 -15960162.82042  21909470.282    21909465.912
 04  1  1  1 43 30.0000000  0 10G17G30G29G26G10G 5G18G 6G24G21
  21846063.849   -17861781.46943 -13902666.06642  21846064.356    21846061.276
  21225643.912   -18121128.79443 -13957019.78542  21225645.738    21225641.789
  23891823.827    -8616221.43843  -6687986.36142  23891825.780    23891822.894
  23999543.893    -8542502.94443  -6652793.20942  23999545.878    23999543.707
  21882954.078   -15210391.59443 -11813446.38542  21882954.839    21882951.517
  23711925.782    -9713188.49143  -7563477.72042  23711926.567    23711924.534
  23929915.519    -8818874.30343  -6823905.31942  23929917.094    23929914.365
  20573730.253   -27226593.93544 -21206365.21042  20573731.745    20573727.912
  24799051.456    -4819890.31643  -3738985.80742  24799052.570    24799049.600
  21899078.096   -20588059.36043 -16002712.10742  21899079.241    21899074.888
 04  1  1  1 44  0.0000000  0 10G17G30G29G26G10G 5G18G 6G24G21
  21856893.789   -17804869.55643 -13858319.10042  21856894.315    21856891.240
  21239766.421   -18046914.55343 -13899190.51242  21239768.252    21239764.289
  23880398.936    -8676259.53943  -6734769.20842  23880400.782    23880397.959
  23982817.036    -8630403.04743  -6721286.69242  23982818.975    23982816.754
  21896462.914   -15139402.24043 -11758129.99142  21896463.648    21896460.321
  23732365.761    -9605775.78243  -7479779.50842  23732366.534    23732364.511
  23909307.651    -8927169.12043  -6908290.78142  23909309.163    23909306.412
  20567819.453   -27257655.32644 -21230568.87042  20567820.931    20567817.118
  24814444.653    -4738998.55743  -3675953.24742  24814445.774    24814442.714
  21888729.637   -20642440.74843 -16045087.16642  21888730.769    21888726.436
 04  1  1  1 44 30.0000000  0 10G17G30G29G26G10G 5G18G 6G24G21
  21867750.012   -17747819.65843 -13813864.61742  21867750.530    21867747.462
  21253967.789   -17972285.89743 -13841038.32142  21253969.625    21253965.666
  23869024.211    -8736033.48543  -6781346.19942  23869026.033    23869023.244
  23966109.899    -8718199.19943  -6789699.17842  23966111.854    23966109.613
  21910057.213   -15067963.60543 -11702463.50942  21910057.936    21910054.613
  23752819.401    -9498291.17843  -7396025.33042  23752820.170    23752818.231
  23888721.850    -9035347.35243  -6992585.36542  23888723.443    23888720.675
  20561965.292   -27288419.01144 -21254540.55142  20561966.774    20561962.950
  24829827.277    -4658162.37843  -3612963.98142  24829828.296    24829825.118
  21878423.645   -20696598.85143 -16087288.23642  21878424.796    21878420.472
 04  1  1  1 45  0.0000000  0 10G17G30G29G26G10G 5G18G 6G24G21
  21878632.398   -17690632.25543 -13769302.98942  21878632.926    21878629.836
  21268247.635   -17897244.82043 -13782564.76442  21268249.496    21268245.510
  23857700.534    -8795539.69843  -6827714.57442  23857702.269    23857699.393
  23949423.279    -8805887.53343  -6858027.65542  23949425.255    23949422.986
  21923736.625   -14996077.63243 -11646448.45242  21923737.370    21923734.055
  23773286.357    -9390736.49043  -7312216.48342  23773287.206    23773285.188
  23868158.814    -9143406.16743  -7076786.94542  23868160.417    23868157.563
  20556168.195   -27318882.92144 -21278278.64542  20556169.676    20556165.829
  24845199.412    -4577381.57743  -3550017.88042  24845200.234    24845197.325
  21868160.153   -20750533.68543 -16129315.33142  21868161.308    21868156.969
 04  1  1  1 45 30.0000000  0 10G17G30G29G26G10G 5G18G 6G24G21
  21889540.350   -17633310.52943 -13724636.69342  21889540.867    21889537.782
  21282605.056   -17821796.12743 -13723773.58842  21282606.911    21282602.920
  23846427.888    -8854777.56943  -6873873.86842  23846429.594    23846426.717
  23932757.458    -8893466.54343  -6926270.93142  23932759.439    23932757.137
  21937500.278   -14923749.19243 -11590088.61642  21937501.003    21937497.691
  23793765.823    -9283116.38543  -7228356.69542  23793766.610    23793764.673
  23847618.666    -9251345.11143  -7160895.09142  23847620.214    23847617.359
  20550428.005   -27349047.61244 -21301783.58542  20550429.490    20550425.658
  24860560.532    -4496658.90143  -3487117.10442  24860561.314    24860558.280
  21857938.704   -20804247.53243 -16171170.22442  21857939.877    21857935.548
 04  1  1  1 46  0.0000000  0 10G17G30G29G26G10G 5G18G 6G24G21
  21900475.050   -17575848.29543 -13679860.91742  21900475.535    21900472.455
  21297040.939   -17745935.04243 -13664661.05742  21297042.795    21297038.815
  23835208.292    -8913736.84443  -6919816.07542  23835209.977    23835207.042
  23916114.524    -8980925.51943  -6994420.70842  23916116.457    23916114.116
  21951348.997   -14850973.65643 -11533380.39542  21951349.698    21951346.426
  23814258.687    -9175426.24943  -7144442.33342  23814259.451    23814257.501
  23827103.026    -9359154.76343  -7244902.49542  23827104.612    23827101.783
  20544746.459   -27378904.22044 -21325048.45142  20544747.945    20544744.110
  24875911.841    -4415987.54343  -3424256.30042  24875912.552    24875909.438
  21847760.753   -20857732.88543 -16212847.07542  21847761.921    21847757.557
 04  1  1  1 46 30.0000000  0  9G17G30G29G26G10G 5G18G 6G21
  21911434.558   -17518255.45243 -13634983.36242  21911435.095    21911431.988
  21311553.119   -17669673.06143 -13605236.15842  21311554.950    21311551.011
  23824040.503    -8972423.67843  -6965546.02342  23824042.186    23824039.184
  23899493.390    -9068269.87043  -7062481.15242  23899495.293    23899492.934
  21965280.550   -14777762.75343 -11476332.92342  21965281.228    21965277.970
  23834762.566    -9067677.54943  -7060482.32842  23834763.400    23834761.312
  23806610.883    -9466841.55843  -7328814.18542  23806612.481    23806609.531
  20539122.110   -27408460.26344 -21348079.10842  20539123.597    20539119.782
  21837624.527   -20910998.99543 -16254353.08842  21837625.690    21837621.310
 04  1  1  1 47  0.0000000  0  9G17G30G29G26G10G 5G18G 6G21
  21922420.697   -17460522.99243 -13589997.01542  21922421.213    21922418.098
  21326142.976   -17593002.91743 -13545493.21742  21326144.794    21326140.875
  23812927.017    -9030825.23443  -7011053.64842  23812928.687    23812925.667
  23882896.595    -9155486.42243  -7130442.02342  23882898.503    23882896.156
  21979296.350   -14704109.02743 -11418940.39742  21979297.072    21979293.813
  23855279.030    -8959863.25143  -6976471.20442  23855279.869    23855277.755
  23786144.335    -9574393.55343  -7412620.83042  23786145.873    23786142.928
  20533557.158   -27437704.27244 -21370866.63242  20533558.647    20533554.802
  21827531.868   -20964036.15043 -16295680.69242  21827533.041    21827528.627
 04  1  1  1 47 30.0000000  0  9G17G30G29G26G10G 5G18G 6G21
  21933431.522   -17402660.71343 -13544909.50842  21933432.044    21933428.904
  21340808.336   -17515935.87743 -13485440.98942  21340810.159    21340806.269
  23801866.592    -9088947.55443  -7056343.72142  23801868.397    23801865.355
  23866323.109    -9242580.17943  -7198307.20442  23866325.059    23866322.659
  21993394.225   -14630024.07943 -11361211.85842  21993394.945    21993391.698
  23875805.712    -8851994.63243  -6892417.79342  23875806.554    23875804.517
  23765702.278    -9681816.86843  -7496327.19842  23765703.765    23765700.837
  20528050.249   -27466643.36044 -21393416.55142  20528051.706    20528047.853
  21817481.114   -21016853.09443 -16336836.70742  21817482.276    21817477.844
 04  1  1  1 48  0.0000000  0  9G17G30G29G26G10G 5G18G 6G21
  21944470.357   -17344651.06043 -13499707.16742  21944470.901    21944467.747
  21355552.241   -17438456.01843 -13425067.08742  21355554.085    21355550.218
  23790863.474    -9146768.94243  -7101399.29642  23790865.300    23790862.171
  23849777.272    -9329529.11543  -7266059.56742  23849779.177    23849776.750
  22007577.224   -14555491.72543 -11303134.68742  22007577.939    22007574.728
  23896345.950    -8744055.69543  -6808309.52742  23896346.771    23896344.655
  23745288.750    -9789090.44143  -7579916.88642  23745290.235    23745287.269
  20522605.184   -27495257.12744 -21415712.97442  20522606.682    20522602.811
  21807475.793   -21069431.37243 -16377806.75042  21807476.928    21807472.487
 04  1  1  1 48 30.0000000  0  9G17G30G29G26G10G 5G18G 6G21
  21955531.856   -17286522.51543 -13454412.18742  21955532.396    21955529.239
  21370368.988   -17360593.23343 -13364394.78742  21370370.851    21370367.019
  23779912.944    -9204314.22643  -7146239.73742  23779914.754    23779911.601
  23833254.354    -9416357.06743  -7333717.67542  23833256.262    23833253.884
  22021839.580   -14480542.36143 -11244732.57542  22021840.301    22021837.107
  23916893.766    -8636076.07843  -6724169.62042  23916894.572    23916892.520
  23724898.796    -9896239.68643  -7663409.71142  23724900.263    23724897.282
  20517217.118   -27523571.58244 -21437776.16542  20517218.617    20517214.722
  21797510.603   -21121798.43443 -16418612.20242  21797511.754    21797507.298
 04  1  1  1 49  0.0000000  0  9G17G30G29G26G10G 5G18G 6G21
  21966617.364   -17228267.67943 -13409018.79642  21966617.924    21966614.760
  21385259.736   -17282341.80043 -13303419.63242  21385261.597    21385257.787
  23769017.155    -9261572.11543  -7190856.22342  23769018.879    23769015.786
  23816756.785    -9503052.24243  -7401272.34242  23816758.671    23816756.308
  22036182.407   -14405170.14943 -11186000.97242  22036183.142    22036179.952
  23937450.508    -8528050.11143  -6639993.56542  23937451.307    23937449.232
  23704534.676   -10003253.74143  -7746797.18842  23704536.166    23704533.083
  20511887.901   -27551576.86744 -21459598.44942  20511889.392    20511885.498
  21787587.179   -21173946.03443 -16459246.64742  21787588.352    21787583.887
 04  1  1  1 49 30.0000000  0  9G17G30G29G26G10G 5G18G 6G21
  21977727.251   -17169884.78543 -13363525.62242  21977727.807    21977724.629
  21400224.401   -17203701.97843 -13242141.84442  21400226.271    21400222.444
  23758176.975    -9318537.32843  -7235244.66842  23758178.670    23758175.568
  23800285.659    -9589608.58643  -7468718.82242  23800287.479    23800285.075
  22050605.654   -14329375.35143 -11126940.08742  22050606.404    22050603.213
  23958015.898    -8419977.81543  -6555781.39142  23958016.756    23958014.634
  23684197.183   -10110127.82443  -7830075.63242  23684198.558    23684195.522
  20506618.315   -27579268.73044 -21481176.50542  20506619.782    20506615.885
  21777706.036   -21225871.66243 -16499708.14142  21777707.212    21777702.714
 04  1  1  1 50  0.0000000  0  9G17G30G29G26G10G 5G18G 6G21
  21988861.436   -17111374.18043 -13317932.93142  21988861.986    21988858.817
  21415262.626   -17124675.51743 -13180562.78242  21415264.500    21415260.679
  23747393.293    -9375206.06743  -7279402.07042  23747394.966    23747391.813
  23783841.706    -9676021.93543  -7536053.86942  23783843.504    23783841.114
  22065108.991   -14253159.79143 -11067551.33142  22065109.733    22065106.559
  23978589.909    -8311861.10143  -6471534.65642  23978590.739    23978588.685
  23663886.892   -10216858.80143  -7913242.55042  23663888.251    23663885.205
  20501408.767   -27606645.03844 -21502508.67542  20501410.235    20501406.329
  21767867.238   -21277574.77343 -16539996.22542  21767868.393    21767863.873
 04  1  1  1 50 30.0000000  0  9G17G30G29G26G10G 5G18G 6G21
  22000019.985   -17052735.60443 -13272240.52642  22000020.543    22000017.371
  21430374.168   -17045263.75543 -13118683.49342  21430376.048    21430372.243
  23736666.825    -9431574.28543  -7323325.32442  23736668.454    23736665.240
  23767425.980    -9762287.07743  -7603273.42442  23767427.749    23767425.345
  22079692.125   -14176524.82543 -11007835.76742  22079692.882    22079689.681
  23999172.085    -8203701.05243  -6387254.11042  23999172.987    23999170.810
  23643604.639   -10323442.66443  -7996294.85042  23643605.865    23643602.874
  20496259.871   -27633702.55444 -21523592.43542  20496261.342    20496257.455
  21758071.012   -21329054.05943 -16580109.90342  21758072.164    21758067.640
 04  1  1  1 51  0.0000000  0  9G17G30G29G26G10G 5G18G 6G21
  22011202.797   -16993969.45443 -13226448.71242  22011203.355    22011200.196
  21445558.657   -16965468.89343 -13056505.68642  21445560.501    21445556.698
  23725997.978    -9487638.92243  -7367011.98242  23725999.675    23725996.465
  23751039.168    -9848400.17243  -7670374.48242  23751040.964    23751038.535
  22094354.606   -14099472.95843 -10947795.34842  22094355.344    22094352.128
  24019762.087    -8095499.79143  -6302941.46442  24019762.991    24019760.851
  23623350.760   -10429876.75843  -8079230.42742  23623352.024    23623349.052
  20491171.966   -27660439.53044 -21544426.42342  20491173.437    20491169.566
  21748317.443   -21380309.25043 -16620048.96642  21748318.589    21748314.035
 04  1  1  1 51 30.0000000  0  9G17G30G29G26G10G 5G18G 6G21
  22022408.788   -16935081.52843 -13180562.01142  22022409.345    22022406.179
  21460814.581   -16885298.64543 -12994035.37642  21460816.391    21460812.590
  23715386.736    -9543401.84643  -7410463.55042  23715388.410    23715385.144
  23734680.960    -9934362.71643  -7737358.21542  23734682.762    23734680.377
  22109095.033   -14022011.57543 -10887435.82142  22109095.755    22109092.557
  24040358.587    -7987264.95643  -6218602.67142  24040359.517    24040357.315
  23603124.984   -10536163.84743  -8162051.48142  23603126.245    23603123.216
  20486144.426   -27686859.41144 -21565013.32742  20486145.881    20486142.006
  21738605.560   -21431345.41343 -16659817.36142  21738606.704    21738602.142
 04  1  1  1 52  0.0000000  0  9G17G30G29G26G10G 5G18G 6G21
  22033638.482   -16876069.15643 -13134578.33442  22033639.040    22033635.872
  21476142.155   -16804751.71143 -12931271.53942  21476143.954    21476140.159
  23704833.867    -9598856.48443  -7453674.86842  23704835.680    23704832.370
  23718352.845   -10020167.25843  -7804218.83542  23718354.687    23718352.254
  22123913.553   -13944139.63443 -10826756.38342  22123914.297    22123911.070
  24060961.632    -7878995.30143  -6134236.72942  24060962.538    24060960.326
  23582928.335   -10642297.77243  -8244753.17942  23582929.605    23582926.627
  20481178.270   -27712956.59844 -21585348.77942  20481179.740    20481175.862
  21728936.066   -21482158.79443 -16699412.15842  21728937.215    21728932.613
 04  1  1  1 52 30.0000000  0  9G17G30G29G26G10G 5G18G 6G21
  22044892.159   -16816930.77043 -13088496.46442  22044892.672    22044889.522
  21491541.348   -16723828.58043 -12868214.57042  21491543.134    21491539.324
  23694340.797    -9653998.00643  -7496642.24142  23694342.584    23694339.221
  23702055.968   -10105808.01643  -7870951.82942  23702057.761    23702055.303
  22138810.112   -13865857.78343 -10765757.53242  22138810.839    22138807.597
  24081571.269    -7770690.75943  -6049843.59542  24081572.231    24081570.007
  23562761.592   -10748273.96343  -8327331.96542  23562762.893    23562759.927
  20476274.252   -27738727.42744 -21605429.92942  20476275.691    20476271.821
  21719309.357   -21532747.38743 -16738831.78842  21719310.508    21719305.871
 04  1  1  1 53  0.0000000  0  9G17G30G29G26G10G 5G18G 6G21
  22056168.342   -16757674.04843 -13042322.38542  22056168.843    22056165.692
  21507010.308   -16642538.84443 -12804871.93042  21507012.103    21507008.247
  23683906.448    -9708830.22743  -7539368.57242  23683908.215    23683905.001
  23685789.558   -10191288.28543  -7937559.76242  23685791.423    23685788.885
  22153782.878   -13787175.37143 -10704446.55842  22153783.600    22153780.316
  24102185.766    -7662360.84943  -5965430.72242  24102186.766    24102184.580
  23542624.260   -10854096.44143  -8409790.98942  23542625.560    23542622.528
  20471431.324   -27764177.08344 -21625260.81642  20471432.776    20471428.902
  21709724.080   -21583118.07943 -16778081.63242  21709725.236    21709720.611
 04  1  1  1 53 30.0000000  0  9G17G30G29G26G10G 5G18G 6G21
  22067468.625   -16698290.62343 -12996049.58442  22067469.117    22067465.967
  21522550.329   -16560875.49643 -12741238.15542  21522552.141    21522548.262
  23673533.332    -9763340.93443  -7581844.37842  23673535.137    23673531.914
  23669556.168   -10276595.03743  -8004032.49742  23669558.054    23669555.491
  22168833.117   -13708085.74743 -10642818.27242  22168833.868    22168830.541
  24122806.428    -7553998.72343  -5880992.72742  24122807.456    24122805.262
  23522518.180   -10959753.63543  -8492121.16542  23522519.572    23522516.535
  20466651.642   -27789294.44944 -21644832.77442  20466653.090    20466649.215
  21700182.155   -21633261.18343 -16817154.13742  21700183.288    21700178.655
 04  1  1  1 54  0.0000000  0  9G17G30G29G26G10G 5G18G 6G21
  22078791.013   -16638790.93343 -12949686.17842  22078791.538    22078788.379
  21538159.048   -16478851.05543 -12677323.00142  21538160.883    21538156.999
  23663220.000    -9817537.13743  -7624075.11142  23663221.772    23663218.659
  23653354.698   -10361734.26643  -8070374.70242  23653356.567    23653354.020
  22183958.493   -13628601.40943 -10580882.41242  22183959.234    22183955.859
  24143430.916    -7445616.48043  -5796539.04442  24143431.909    24143429.719
  23502442.271   -11065252.96843  -8574328.35942  23502443.712    23502440.569
  20461933.661   -27814087.46344 -21664151.98842  20461935.131    20461931.245
  21690681.631   -21683186.77343 -16856057.15942  21690682.743    21690678.081
 04  1  1  1 54 30.0000000  0  9G17G30G29G26G10G 5G18G 6G21
  22090135.507   -16579175.18143 -12903232.33742  22090136.033    22090132.886
  21553836.134   -16396467.52243 -12613128.04142  21553837.944    21553834.048
  23652967.361    -9871415.31643  -7666058.02442  23652969.191    23652965.917
  23637185.875   -10446701.78343  -8136583.07242  23637187.774    23637185.212
  22199158.595   -13548724.34343 -10518640.53942  22199159.326    22199155.951
  24164058.830    -7337216.03043  -5712071.20842  24164059.744    24164057.729
  23482397.019   -11170590.95543  -8656409.80942  23482398.468    23482395.364
  20457277.817   -27838554.03144 -21683216.82542  20457279.288    20457275.402
  21681222.643   -21732893.95643 -16894789.98742  21681223.752    21681219.059
 04  1  1  1 55  0.0000000  0  9G17G30G29G26G10G 5G18G 6G21
  22101503.070   -16519438.20843 -12856684.04242  22101503.594    22101500.452
  21569582.205   -16313721.38643 -12548650.52542  21569584.032    21569580.120
  23642776.706    -9924966.50043  -7707786.13842  23642778.524    23642775.420
  23621051.517   -10531487.86843  -8202650.09142  23621053.445    23621050.921
  22214434.118   -13468451.00243 -10456089.87142  22214434.808    22214431.429
  24184690.992    -7228793.71043  -5627586.28642  24184691.820    24184689.819
  23462384.033   -11275759.72343  -8738359.39142  23462385.478    23462382.372
  20452685.574   -27862686.39744 -21702021.24842  20452687.046    20452683.144
  21671806.330   -21782376.96443 -16933348.13442  21671807.418    21671802.706
 04  1  1  1 55 30.0000000  0  9G17G30G29G26G10G 5G18G 6G21
  22112893.103   -16459583.12643 -12810043.70542  22112893.625    22112890.500
  21585396.270   -16230617.83143 -12483894.50342  21585398.101    21585394.194
  23632648.554    -9978190.37143  -7749259.23442  23632650.380    23632647.132
  23604951.969   -10616091.28643  -8268574.77042  23604953.920    23604951.308
  22229784.036   -13387786.54043 -10393234.43342  22229784.764    22229781.331
  24205326.373    -7120354.03043  -5543087.86242  24205327.226    24205325.267
  23442403.311   -11380759.01043  -8820176.93242  23442404.752    23442401.493
  20448156.757   -27886485.39244 -21720565.90442  20448158.231    20448154.345
  21662432.126   -21831638.48743 -16971733.69842  21662433.218    21662428.486
 04  1  1  1 56  0.0000000  0 10G17G30G29G26G10G 5G18G 6G16G21
  22124302.471   -16399626.65443 -12763324.36842  22124302.938    22124299.819
  21601274.869   -16147175.16443 -12418874.25242  21601276.701    21601272.790
  23622580.127   -10031099.82843  -7790487.29342  23622581.974    23622578.744
  23588884.857   -10700524.16643  -8334366.52842  23588886.813    23588884.186
  22245204.866   -13306749.50443 -10330088.68242  22245205.605    22245202.118
  24225961.506    -7011915.50243  -5458590.34742  24225962.390    24225960.458
  23422452.221   -11485602.14743  -8901872.75442  23422453.611    23422450.445
  20443688.685   -27909965.22644 -21738861.86142  20443690.150    20443686.259
  24744231.973    -5386843.68953  -3857732.77852  24744233.493    24744230.159
  21653097.114   -21880694.21543 -17009958.90542  21653098.196    21653093.436
 04  1  1  1 56 30.0000000  0 10G17G30G29G26G10G 5G18G 6G16G21
  22135737.391   -16339535.61243 -12716500.17242  22135737.878    22135734.757
  21617223.924   -16063362.38443 -12353565.60242  21617225.753    21617221.819
  23612578.564   -10083658.25843  -7831441.85242  23612580.411    23612577.116
  23572857.323   -10784749.16143  -8399996.32042  23572859.254    23572856.626
  22260702.500   -13225308.81143 -10266628.39042  22260703.231    22260699.758
  24246602.315    -6903447.16043  -5374069.58442  24246603.219    24246601.310
  23402537.827   -11590252.86943  -8983418.67642  23402539.246    23402535.963
  20439288.092   -27933090.53744 -21756881.57442  20439289.539    20439285.649
  24727311.212    -5475762.71043  -3927020.24942  24727312.660    24727309.316
  21643807.742   -21929510.07643 -17047997.20742  21643808.802    21643804.040
 04  1  1  1 57  0.0000000  0 10G17G30G29G26G10G 5G18G 6G16G21
  22147193.256   -16279334.43243 -12669590.15142  22147193.744    22147190.658
  21633238.456   -15979205.58543 -12287988.87442  21633240.285    21633236.319
  23602639.772   -10135886.51243  -7872139.12242  23602641.666    23602638.354
  23556865.526   -10868786.02343  -8465479.50042  23556867.456    23556864.846
  22276271.966   -13143490.58843 -10202873.91542  22276272.690    22276269.241
  24267244.052    -6794974.17443  -5289545.19942  24267244.874    24267243.024
  23382655.814   -11694732.78343  -9064831.48342  23382657.238    23382654.011
  20434950.770   -27955883.28544 -21774642.14142  20434952.210    20434948.306
  24710445.062    -5564394.56443  -3996083.95642  24710446.479    24710443.175
  21634559.527   -21978109.59543 -17085866.92742  21634560.574    21634555.816
 04  1  1  1 57 30.0000000  0 10G17G30G29G26G10G 5G18G 6G16G21
  22158670.829   -16219019.37343 -12622591.39142  22158671.295    22158668.200
  21649318.705   -15894703.18043 -12222142.83942  21649320.540    21649316.611
  23592765.216   -10187777.56443  -7912573.65442  23592767.101    23592763.705
  23540911.130   -10952626.73143  -8530809.85442  23540913.081    23540910.395
  22291913.574   -13061293.11643 -10138823.92742  22291914.341    22291910.881
  24287887.076    -6686494.79543  -5205015.82642  24287887.857    24287886.013
  23362807.856   -11799034.71343  -9146105.61142  23362809.232    23362805.944
  20430677.908   -27978337.12544 -21792138.62842  20430679.371    20430675.486
  24693634.983    -5652731.87143  -4064918.14142  24693636.344    24693632.961
  21625353.201   -22026489.06543 -17123565.17942  21625354.237    21625349.472
 04  1  1  1 58  0.0000000  0 10G17G30G29G26G10G 5G18G 6G16G21
  22170170.453   -16158588.52943 -12575502.41242  22170170.873    22170167.813
  21665464.765   -15809855.02343 -12156027.39842  21665466.604    21665462.681
  23582955.814   -10239325.73643  -7952740.99842  23582957.707    23582954.358
  23524995.262   -11036265.14143  -8595982.60742  23524997.151    23524994.470
  22307627.336   -12978716.78343 -10074478.72542  22307628.094    22307624.630
  24308531.151    -6578009.19943  -5120481.64042  24308531.954    24308530.201
  23342994.620   -11903153.69143  -9227237.17242  23342995.991    23342992.707
  20426470.373   -28000447.92844 -21809367.81642  20426471.819    20426467.929
  24676881.870    -5740769.63443  -4133518.92242  24676883.338    24676879.872
  21616189.277   -22074645.75043 -17161089.83642  21616190.290    21616185.507
 04  1  1  1 58 30.0000000  0 10G17G30G29G26G10G 5G18G 6G16G21
  22181691.212   -16098046.56743 -12528326.84742  22181691.604    22181688.547
  21681675.383   -15724667.75443 -12089647.70942  21681677.212    21681673.285
  23573211.526   -10290532.30743  -7992642.18042  23573213.349    23573210.048
  23509117.851   -11119701.05643  -8660997.55542  23509119.765    23509117.081
  22323411.974   -12895767.92743 -10009843.24242  22323412.751    22323409.261
  24329175.303    -6469523.15543  -5035947.09842  24329176.138    24329174.406
  23323216.008   -12007090.90543  -9308227.13242  23323217.348    23323213.956
  20422327.702   -28022217.95544 -21826331.46142  20422329.110    20422325.212
  24660185.628    -5828508.71143  -4201886.95642  24660187.089    24660183.595
  21607067.111   -22122582.98443 -17198443.49342  21607068.098    21607063.308
 04  1  1  1 59  0.0000000  0 10G17G30G29G26G10G 5G18G 6G16G21
  22193232.591   -16037396.13643 -12481066.76442  22193232.965    22193229.913
  21697949.662   -15639145.85543 -12023007.26342  21697951.489    21697947.555
  23563532.257   -10341396.17743  -8032276.30842  23563534.195    23563530.894
  23493279.402   -11202932.98143  -8725853.60042  23493281.240    23493278.545
  22339266.694   -12812450.96943  -9944920.93042  22339267.431    22339263.940
  24349818.900    -6361040.85443  -4951415.45542  24349819.699    24349817.919
  23303472.017   -12110845.98643  -9389075.14542  23303473.394    23303469.912
  20418249.792   -28043647.49744 -21843029.79642  20418251.200    20418247.296
  24643546.380    -5915948.34843  -4270021.66542  24643547.965    24643544.275
  21597986.285   -22170302.90543 -17235627.81142  21597987.272    21597982.499
 04  1  1  1 59 30.0000000  0 10G17G30G29G26G10G 5G18G 6G16G21
  22204795.248   -15976634.09443 -12433719.71442  22204795.594    22204792.523
  21714287.771   -15553288.43943 -11956105.39742  21714289.613    21714285.696
  23553919.650   -10391910.98843  -8071638.45542  23553921.447    23553918.159
  23477481.091   -11285953.49943  -8790544.88042  23477482.900    23477480.209
  22355191.639   -12728764.82143  -9879710.93742  22355192.370    22355188.870
  24370461.912    -6252561.29443  -4866885.99342  24370462.703    24370460.999
  23283763.873   -12214412.77243  -9469776.46542  23283765.206    23283761.673
  20414237.708   -28064731.16244 -21859458.61242  20414239.099    20414235.177
  24626965.290    -6003082.30743  -4337918.18342  24626966.832    24626963.203
  21588947.453   -22217802.04743 -17272640.09842  21588948.460    21588943.663
 04  1  1  2  0  0.0000000  0 10G17G30G29G26G10G 5G18G 6G16G21
  22216379.008   -15915760.87643 -12386286.03342  22216379.364    22216376.291
  21730689.279   -15467097.61443 -11888943.71242  21730691.154    21730687.265
  23544373.972   -10442073.59043  -8110726.15042  23544375.772    23544372.489
  23461723.778   -11368758.52143  -8855068.24742  23461725.629    23461722.884
  22371186.386   -12644711.99843  -9814215.22442  22371187.097    22371183.573
  24391104.059    -6144086.22343  -4782359.97642  24391104.819    24391103.162
  23264092.047   -12317788.67843  -9550329.04542  23264093.346    23264089.790
  20410291.780   -28085466.98044 -21875616.38342  20410293.190    20410289.249
  24610442.988    -6089907.45043  -4405574.06142  24610444.411    24610440.841
  21579950.722   -22265079.86143 -17309479.91742  21579951.754    21579946.965
 04  1  1  2  0 30.0000000  0 10G17G30G29G26G10G 5G18G 6G16G21
  22227982.675   -15854783.25643 -12338770.99842  22227983.013    22227979.951
  21747152.599   -15380582.44743 -11821529.29542  21747154.451    21747150.568
  23534894.736   -10491887.40543  -8149542.07642  23534896.537    23534893.158
  23446007.056   -11451350.46543  -8919425.57342  23446008.845    23446006.158
  22387249.186   -12560301.33143  -9748440.66442  22387249.925    22387246.360
  24411743.744    -6035624.10343  -4697844.05542  24411744.556    24411742.846
  23244455.861   -12420977.26143  -9630735.66742  23244457.167    23244453.590
  20406411.197   -28105859.42744 -21891506.58742  20406412.643    20406408.675
  24593978.830    -6176427.42143  -4472992.15742  24593980.139    24593976.518
  21570994.947   -22312142.50543 -17346152.06942  21570995.981    21570991.216
 04  1  1  2  1  0.0000000  0 10G17G30G29G26G10G 5G18G 6G16G21
  22239607.552   -15793694.01043 -12291168.98242  22239607.920    22239604.820
  21763678.667   -15293737.30743 -11753857.74442  21763680.522    21763676.630
  23525483.863   -10541341.46643  -8188077.66542  23525485.708    23525482.273
  23430333.070   -11533717.51643  -8983607.64742  23430334.883    23430332.192
  22403381.198   -12475527.12843  -9682382.83542  22403381.905    22403378.338
  24432382.009    -5927169.40443  -4613333.94542  24432382.785    24432381.063
  23224857.366   -12523967.98943  -9710988.12742  23224858.626    23224854.946
  20402597.854   -28125898.64244 -21907121.54942  20402599.306    20402595.325
  24577574.634    -6262631.55043  -4540164.14142  24577576.011    24577572.387
  21562081.644   -22358982.17843 -17382650.48542  21562082.658    21562077.888
 04  1  1  2  1 30.0000000  0 10G17G30G29G26G10G 5G18G 6G16G21
  22251253.088   -15732496.38143 -12243482.51042  22251253.447    22251250.330
  21780266.476   -15206567.62343 -11685933.31942  21780268.335    21780264.505
  23516141.480   -10590435.90643  -8226333.03142  23516143.305    23516139.948
  23414702.150   -11615858.62843  -9047613.68542  23414703.957    23414701.230
  22419581.304   -12390394.91343  -9616046.03942  22419582.018    22419578.455
  24453018.048    -5818726.58043  -4528833.07442  24453018.736    24453017.116
  23205296.462   -12626761.12543  -9791086.61442  23205297.717    23205293.998
  20398851.553   -28145585.54144 -21922461.97642  20398853.017    20398849.019
  24561230.667    -6348519.51043  -4607089.75742  24561232.003    24561228.253
  21553210.279   -22405601.32043 -17418977.06542  21553211.292    21553206.532
 04  1  1  2  2  0.0000000  0 10G17G30G29G26G10G 5G18G 6G16G21
  22262918.328   -15671195.03743 -12195715.22142  22262918.705    22262915.562
  21796914.796   -15119080.25143 -11617761.33642  21796916.652    21796912.773
  23506867.247   -10639171.94343  -8264309.11742  23506869.049    23506865.690
  23399114.134   -11697774.28343  -9111444.05842  23399115.894    23399113.182
  22435848.267   -12304911.35443  -9549435.46342  22435849.014    22435845.443
  24473650.371    -5710302.76543  -4444346.99842  24473651.124    24473649.492
  23185772.780   -12729358.37543  -9871032.46242  23185774.075    23185770.350
  20395171.798   -28164922.69944 -21937529.88142  20395173.254    20395169.259
  24544946.499    -6434092.90743  -4673770.25642  24544947.784    24544944.148
  21544380.028   -22452004.28443 -17455135.17842  21544381.060    21544376.345
 04  1  1  2  2 30.0000000  0 10G17G30G29G26G10G 5G18G 6G16G21
  22274603.957   -15609786.65743 -12147864.52042  22274604.323    22274601.169
  21813623.799   -15031273.88043 -11549340.78742  21813625.614    21813621.791
  23497662.547   -10687543.00443  -8302000.82042  23497664.321    23497660.916
  23383570.480   -11779456.64843  -9175092.64242  23383572.266    23383569.525
  22452182.341   -12219075.27643  -9482550.20442  22452183.036    22452179.519
  24494279.415    -5601896.42743  -4359874.55042  24494280.129    24494278.589
  23166287.615   -12831753.33143  -9950820.69042  23166288.950    23166285.168
  20391559.639   -28183904.63744 -21952320.99242  20391561.098    20391557.090
  24528723.417    -6519345.25343  -4740200.58042  24528724.780    24528721.178
  21535591.715   -22498187.03643 -17491121.71242  21535592.748    21535588.008
 04  1  1  2  3  0.0000000  0 10G17G30G29G26G10G 5G18G 6G16G21
  22286309.361   -15548274.58943 -12099933.02842  22286309.703    22286306.510
  21830392.436   -14943154.01343 -11480675.94942  21830394.248    21830390.437
  23488527.237   -10735549.05443  -8339408.08442  23488528.984    23488525.690
  23368071.386   -11860904.77243  -9238558.66842  23368073.194    23368070.436
  22468582.430   -12132892.16643  -9415394.53542  22468583.111    22468579.617
  24514904.225    -5493512.42843  -4275419.52642  24514904.874    24514903.366
  23146840.873   -12933946.43343 -10030451.60442  23146842.192    23146838.486
  20388014.902   -28202532.40944 -21966836.12742  20388016.331    20388012.328
  24512561.603    -6604276.34043  -4806380.58942  24512562.996    24512559.243
  21526844.803   -22544152.23643 -17526938.72042  21526845.850    21526841.111
 04  1  1  2  3 30.0000000  0 10G17G30G29G26G10G 5G18G 6G16G21
  22298034.883   -15486656.42343 -12051918.86442  22298035.275    22298032.041
  21847220.886   -14854720.06743 -11411766.38942  21847222.680    21847218.878
  23479462.541   -10783184.17843  -8376526.32242  23479464.316    23479460.936
  23352618.192   -11942111.95643  -9301836.96542  23352619.983    23352617.196
  22485048.616   -12046361.55243  -9347968.07842  22485049.338    22485045.857
  24535525.035    -5385149.65143  -4190981.03442  24535525.675    24535524.140
  23127433.631   -13035931.96843 -10109920.79442  23127434.946    23127431.221
  20384538.482   -28220801.10444 -21981071.46642  20384539.924    20384535.908
  24496461.886    -6688880.40843  -4872305.75442  24496463.322    24496459.692
  21518139.904   -22589896.68343 -17562583.71542  21518140.950    21518136.206
 04  1  1  2  4  0.0000000  0 10G17G30G29G26G10G 5G18G 6G16G21
  22309779.310   -15424938.82343 -12003827.20842  22309779.727    22309776.484
  21864107.389   -14765980.77943 -11342618.89542  21864109.198    21864105.368
  23470467.760   -10830451.85943  -8413358.23142  23470469.522    23470466.174
  23337210.383   -12023080.41143  -9364929.22342  23337212.153    23337209.410
  22501579.365   -11959491.95043  -9280277.47342  22501580.067    22501576.608
  24556140.186    -5276816.19043  -4106565.37342  24556140.916    24556139.319
  23108065.237   -13137713.42343 -10189230.96542  23108066.526    23108062.800
  20381129.517   -28238715.21244 -21995030.50442  20381130.971    20381126.960
  24480423.819    -6773160.72643  -4937978.65342  24480425.223    24480421.616
  21509475.830   -22635426.42243 -17598061.39242  21509476.883    21509472.149
 04  1  1  2  4 30.0000000  0 10G17G30G29G26G10G 5G18G 6G16G21
  22321543.857   -15363115.73443 -11955653.37142  22321544.276    22321541.018
  21881052.736   -14676932.31343 -11273230.47842  21881054.555    21881050.750
  23461544.711   -10877342.92043  -8449896.68442  23461546.422    23461543.055
  23321849.950   -12103799.80343  -9427827.40242  23321851.715    23321848.993
  22518175.296   -11872279.63243  -9212319.82542  22518176.003    22518172.597
  24576750.531    -5168507.92043  -4022169.32942  24576751.353    24576749.655
  23088737.312   -13239282.05743 -10268375.27042  23088738.633    23088734.912
  20377789.548   -28256266.77844 -22008707.04242  20377791.016    20377786.998
  24464449.044    -6857108.36543  -5003392.31042  24464450.467    24464446.887
  21500853.859   -22680734.98143 -17633366.73042  21500854.915    21500850.187
 04  1  1  2  5  0.0000000  0 10G17G30G29G26G10G 5G18G 6G16G21
  22333327.244   -15301193.41943 -11907402.20742  22333327.711    22333324.422
  21898055.403   -14587582.83543 -11203607.50142  21898057.205    21898053.362
  23452692.840   -10923859.78843  -8486143.55742  23452694.569    23452691.161
  23306536.560   -12184271.85043  -9490532.82742  23306538.396    23306535.633
  22534834.973   -11784732.39143  -9144101.17942  22534835.685    22534832.308
  24597354.730    -5060232.65343  -3937798.99442  24597355.504    24597353.739
  23069449.317   -13340640.85143 -10347356.08242  23069450.645    23069446.843
  20374517.906   -28273459.44744 -22022103.91542  20374519.341    20374515.338
  24448537.049    -6940726.13443  -5068548.92142  24448538.481    24448534.903
  21492272.985   -22725827.70643 -17668503.88942  21492274.034    21492269.297
 04  1  1  2  5 30.0000000  0 10G17G30G29G26G10G 5G18G 6G16G21
  22345129.614   -15239171.48543 -11859073.42142  22345130.121    22345126.758
  21915114.895   -14497934.53643 -11133751.69042  21915116.694    21915112.881
  23443912.760   -10969999.35843  -8522096.43242  23443914.500    23443911.062
  23291271.086   -12264492.29543  -9553042.20842  23291272.923    23291270.110
  22551557.951   -11696852.57343  -9075623.38942  22551558.653    22551555.271
  24617952.310    -4951991.82943  -3853455.53442  24617953.124    24617951.363
  23050201.862   -13441786.72743 -10426170.96642  23050203.198    23050199.358
  20371314.958   -28290290.96744 -22035219.37242  20371316.403    20371312.396
  24432688.429    -7024010.64943  -5133445.86142  24432689.862    24432686.254
  21483733.284   -22770704.09143 -17703472.47442  21483734.324    21483729.561
 04  1  1  2  6  0.0000000  0 10G17G30G29G26G10G 5G18G 6G16G21
  22356951.463   -15177047.49143 -11810665.10642  22356951.893    22356948.532
  21932231.464   -14407986.59243 -11063662.38042  21932233.258    21932229.372
  23435205.544   -11015755.57143  -8557750.58042  23435207.292    23435203.869
  23276054.785   -12344454.07143  -9615350.05742  23276056.605    23276053.789
  22568344.308   -11608639.42343  -9006885.83542  22568345.054    22568341.692
  24638543.425    -4843784.46343  -3769138.13142  24638544.330    24638542.670
  23030995.978   -13542713.78443 -10504815.33342  23030997.307    23030993.525
  20368181.648   -28306756.42544 -22048049.58642  20368183.119    20368179.103
  24416904.379    -7106955.89043  -5198078.44242  24416905.814    24416902.289
  21475235.397   -22815360.62543 -17738269.74342  21475236.445    21475231.681
 04  1  1  2  6 30.0000000  0 10G17G30G29G26G10G 5G18G 6G16G21
  22368792.080   -15114824.64143 -11762179.75342  22368792.505    22368789.132
  21949403.935   -14317744.48943 -10993343.86142  21949405.722    21949401.889
  23426571.383   -11061128.67943  -8593106.20942  23426573.087    23426569.698
  23260887.988   -12424156.07843  -9677455.49042  23260889.760    23260886.960
  22585193.100   -11520098.46943  -8937892.88542  22585193.801    22585190.476
  24659127.198    -4735615.98343  -3684851.02942  24659128.075    24659126.468
  23011831.723   -13643422.37343 -10583289.48842  23011833.107    23011829.155
  20365117.817   -28322857.02944 -22060595.50342  20365119.260    20365115.244
  24401184.858    -7189561.93343  -5262446.69242  24401186.279    24401182.815
  21466778.783   -22859800.21343 -17772897.96742  21466779.865    21466775.076
 04  1  1  2  7  0.0000000  0 10G17G30G29G26G10G 5G18G 6G16G21
  22380651.844   -15052501.09143 -11713615.93542  22380652.290    22380648.903
  21966632.341   -14227208.73743 -10922796.51042  21966634.138    21966630.216
  23418011.040   -11106113.57843  -8628159.34242  23418012.727    23418009.301
  23245771.746   -12503592.36843  -9739353.87442  23245773.509    23245770.671
  22602104.190   -11431230.20143  -8868644.88142  22602104.870    22602101.542
  24679703.605    -4627486.22443  -3600594.07242  24679704.588    24679702.882
  22992709.900   -13743908.01543 -10661589.89842  22992711.251    22992707.333
  20362124.135   -28338588.79944 -22072854.01242  20362125.585    20362121.581
  24385530.862    -7271823.89243  -5326546.84742  24385532.227    24385528.755
  21458363.848   -22904020.95643 -17807355.66942  21458364.915    21458360.127
 04  1  1  2  7 30.0000000  0 10G17G30G29G26G10G 5G18G 6G16G21
  22392529.382   -14990083.90443 -11664979.15742  22392529.850    22392526.502
  21983914.868   -14136388.48043 -10852027.49142  21983916.662    21983912.762
  23409523.799   -11150714.32443  -8662913.11342  23409525.504    23409522.071
  23230705.531   -12582765.78343  -9801047.42342  23230707.251    23230704.436
  22619075.821   -11342043.48743  -8799148.73542  22619076.535    22619073.211
  24700271.046    -4519403.50543  -3516373.81442  24700272.050    24700270.330
  22973629.723   -13844174.76043 -10739719.74942  22973631.041    22973627.059
  20359199.758   -28353956.53744 -22084828.86242  20359201.190    20359197.193
  24369941.592    -7353745.58643  -5390381.86542  24369942.978    24369939.462
  21449989.407   -22948028.84543 -17841647.50842  21449990.485    21449985.679
 04  1  1  2  8  0.0000000  0 10G17G30G29G26G10G 5G18G 6G16G21
  22404426.158   -14927565.76243 -11616263.71742  22404426.626    22404423.299
  22001252.465   -14045278.53843 -10781032.72842  22001254.286    22001250.400
  23401111.706   -11194920.26243  -8697359.27142  23401113.379    23401109.806
  23215691.617   -12661664.54743  -9862526.95442  23215693.367    23215690.465
  22636109.095   -11252532.86143  -8729400.17642  22636109.847    22636106.507
  24720830.554    -4411362.47043  -3432186.00942  24720831.547    24720829.852
  22954593.127   -13944212.15843 -10817670.87642  22954594.456    22954590.501
  20356346.445   -28368950.70444 -22096512.62242  20356347.890    20356343.893
  24354419.066    -7435316.49743  -5453943.53042  24354420.539    24354416.897
  21441656.929   -22991816.18143 -17875767.49042  21441658.016    21441653.205
 04  1  1  2  8 30.0000000  0 10G17G30G29G26G10G 5G18G 6G16G21
  22416340.826   -14864953.74343 -11567475.11942  22416341.278    22416337.972
  22018643.507   -13953888.15643 -10709819.43242  22018645.337    22018641.401
  23392773.896   -11238735.43143  -8731500.90042  23392775.569    23392772.056
  23200729.441   -12740291.49243  -9923794.69442  23200731.161    23200728.213
  22653202.232   -11162707.81743  -8659406.63242  22653202.987    22653199.640
  24741380.584    -4303371.54243  -3348037.22442  24741381.522    24741379.875
  22935599.358   -14044024.85443 -10895446.91842  22935600.733    22935596.724
  20353563.279   -28383576.24744 -22107909.13642  20353564.732    20353560.718
  24338962.636    -7516540.59543  -5517234.97042  24338964.050    24338960.459
  21433365.265   -23035389.13143 -17909720.41442  21433366.340    21433361.505
 04  1  1  2  9  0.0000000  0 10G17G30G29G26G10G 5G18G 6G16G21
  22428273.568   -14802247.02943 -11518612.73442  22428273.948    22428270.645
  22036087.535   -13862218.84643 -10638388.81742  22036089.347    22036085.516
  23384511.188   -11282155.84643  -8765334.94742  23384512.946    23384509.438
  23185819.839   -12818641.75243  -9984846.81542  23185821.589    23185818.623
  22670354.960   -11072569.76143  -8589169.17642  22670355.660    22670352.324
  24761920.817    -4195432.09643  -3263928.59342  24761921.662    24761920.100
  22916649.136   -14143608.60343 -10973044.57342  22916650.507    22916646.426
  20350850.807   -28397830.37244 -22119016.23442  20350852.242    20350848.232
  24323572.891    -7597413.82943  -5580253.01442  24323574.303    24323570.725
  21425114.638   -23078746.47743 -17943505.34242  21425115.675    21425110.862
 04  1  1  2  9 30.0000000  0 10G17G30G29G26G10G 5G18G 6G16G21
  22440224.187   -14739446.14643 -11469676.96942  22440224.561    22440221.231
  22053584.276   -13770273.06043 -10566742.72742  22053586.099    22053582.169
  23376324.044   -11325178.81743  -8798859.30342  23376325.880    23376322.335
  23170963.663   -12896711.23243 -10045680.15442  23170965.392    23170962.500
  22687566.762   -10982121.00843  -8518689.61142  22687567.481    22687564.124
  24782450.904    -4087545.98343  -3179861.54642  24782451.714    24782450.225
  22897743.069   -14242960.55743 -11050461.60042  22897744.452    22897740.338
  20348209.381   -28411711.19744 -22129832.45642  20348210.793    20348206.791
  24308250.453    -7677933.47843  -5642995.52242  24308251.841    24308248.193
  21416904.960   -23121888.33043 -17977122.34242  21416906.050    21416901.217
 04  1  1  2 10  0.0000000  0 10G17G30G29G26G10G 5G18G 6G16G21
  22452193.461   -14676547.10743 -11420664.71942  22452193.833    22452190.526
  22071133.816   -13678049.23943 -10494880.00542  22071135.671    22071131.832
  23368214.029   -11367797.50843  -8832068.63342  23368215.806    23368212.241
  23156162.462   -12974492.04843 -10106288.56142  23156164.176    23156161.325
  22704837.978   -10891360.06643  -8447966.79742  22704838.683    22704835.355
  24802971.288    -3979711.00143  -3095834.29642  24802972.081    24802970.573
  22878882.177   -14342074.71943 -11127693.34742  22878883.561    22878879.376
  20345640.067   -28425212.94144 -22140353.28642  20345641.499    20345637.475
  24292996.584    -7758092.80443  -5705457.26942  24292998.012    24292994.326
  21408737.180   -23164810.26543 -18010567.98342  21408738.256    21408733.419
 04  1  1  2 10 30.0000000  0 10G17G30G29G26G10G 5G18G 6G16G21
  22464179.484   -14613559.83943 -11371583.71242  22464179.902    22464176.592
  22088734.010   -13585559.44343 -10422810.02542  22088735.871    22088731.992
  23360179.529   -11410018.68443  -8864968.21242  23360181.277    23360177.796
  23141415.054   -13051989.63143 -10166676.21542  23141416.821    23141414.017
  22722166.341   -10800298.87043  -8377010.01342  22722167.065    22722163.700
  24823479.759    -3871938.73243  -3011855.94742  24823480.537    24823479.020
  22860065.325   -14440957.70943 -11204744.96542  22860066.735    22860062.497
  20343141.459   -28438343.18244 -22150584.63442  20343142.890    20343138.866
  24277810.125    -7837898.21443  -5767643.23642  24277811.513    24277807.773
  21400609.462   -23207521.67643 -18043849.57642  21400610.525    21400605.678
 04  1  1  2 11  0.0000000  0  9G17G30G29G26G10G18G 6G16G21
  22476185.971   -14550465.22143 -11322419.06242  22476186.386    22476183.069
  22106388.121   -13492786.68743 -10350519.57342  22106389.964    22106386.150
  23352225.017   -11451819.97443  -8897540.61042  23352226.749    23352223.229
  23126726.038   -13129180.68743 -10226825.02842  23126727.891    23126725.037
  22739555.075   -10708920.46443  -8305806.06042  22739555.793    22739552.412
  22841296.629   -14539587.58843 -11281599.34342  22841297.984    22841293.839
  20340717.583   -28451080.68644 -22160509.94742  20340719.011    20340714.998
  24262695.145    -7917327.60243  -5829536.20242  24262696.542    24262692.802
  21392525.553   -23250002.80843 -18076951.73642  21392526.634    21392521.759
 04  1  1  2 11 30.0000000  0  9G17G30G29G26G10G18G 6G16G21
  22488207.165   -14487293.57643 -11273194.40642  22488207.540    22488204.257
  22124089.684   -13399763.90843 -10278034.27542  22124091.565    22124087.736
  23344345.132   -11493229.25943  -8929807.54842  23344346.823    23344343.286
  23112090.352   -13206091.58843 -10286755.54742  23112092.231    23112089.310
  22756997.946   -10617257.56743  -8234380.42942  22756998.624    22756995.247
  22822570.864   -14637992.37743 -11358278.35542  22822572.139    22822567.852
  20338362.994   -28463454.03644 -22170151.51142  20338364.427    20338360.424
  24247646.499    -7996408.55143  -5891157.65442  24247647.837    24247644.099
  21384479.721   -23292283.78043 -18109897.92242  21384480.801    21384475.933
 04  1  1  2 12  0.0000000  0  9G17G30G29G26G10G18G 6G16G21
  22500246.719   -14424025.25743 -11223894.42042  22500247.083    22500243.849
  22141842.330   -13306473.70143 -10205340.61442  22141844.147    22141840.299
  23336544.112   -11534223.71643  -8961751.23242  23336545.792    23336542.267
  23097512.494   -13282698.51643 -10346449.20442  23097514.399    23097511.379
  22774498.329   -10525292.49243  -8162719.32642  22774499.007    22774495.639
  22803892.162   -14736149.14543 -11434764.07642  22803893.467    22803889.255
  20336081.843   -28475441.48944 -22179492.37242  20336083.273    20336079.270
  24232668.516    -8075118.16743  -5952489.76342  24232669.873    24232666.110
  21376475.824   -23334344.43543 -18142672.44342  21376476.910    21376472.034
 04  1  1  2 12 30.0000000  0  9G17G30G29G26G10G18G 6G16G21
  22512302.963   -14360669.61243 -11174526.37342  22512303.249    22512300.049
  22159643.481   -13212927.48943 -10132447.47342  22159645.344    22159641.544
  23328820.861   -11574809.63243  -8993376.58142  23328822.552    23328818.970
  23082991.513   -13359006.58243 -10405909.99542  23082993.437    23082990.385
  22792054.005   -10433036.64943  -8090831.63342  22792054.702    22792051.313
  22785259.518   -14834064.38043 -11511061.62142  22785260.793    22785256.470
  20333872.706   -28487050.52144 -22188538.36142  20333874.145    20333870.138
  24217759.975    -8153462.69343  -6013537.38242  24217761.342    24217757.614
  21368512.219   -23376193.46143 -18175282.05342  21368513.285    21368508.406
 04  1  1  2 13  0.0000000  0  9G17G30G29G26G10G18G 6G16G21
  22524376.401   -14297223.24443 -11125087.63642  22524376.702    22524373.499
  22177493.785   -13119123.96743 -10059353.79542  22177495.608    22177491.764
  23321176.622   -11614980.28543  -9024678.34042  23321178.317    23321174.730
  23068528.917   -13435008.12343 -10465131.93642  23068530.771    23068527.760
  22809665.234   -10340488.90543  -8018716.48242  22809665.967    22809662.579
  22766673.927   -14931731.80043 -11587166.04442  22766675.228    22766670.946
  20331736.684   -28498275.36144 -22197284.98042  20331738.114    20331734.113
  24202922.196    -8231435.40743  -6074295.27642  24202923.553    24202919.805
  21360589.585   -23417827.19843 -18207723.90742  21360590.648    21360585.772
 04  1  1  2 13 30.0000000  0  9G17G30G29G26G10G18G 6G16G21
  22536467.434   -14233684.31543 -11075576.77842  22536467.732    22536464.546
  22195392.747   -13025063.94943  -9986060.29942  22195394.550    22195390.838
  23313612.139   -11654731.51343  -9055653.28442  23313613.839    23313610.263
  23054125.765   -13510697.12143 -10524110.31942  23054127.621    23054124.571
  22827331.899   -10247650.01843  -7946374.50642  22827332.620    22827329.198
  22748136.447   -15029146.75343 -11663073.74542  22748137.786    22748133.457
  20329674.454   -28509112.33944 -22205729.37942  20329675.886    20329671.902
  24188156.034    -8309031.84143  -6134759.96742  24188157.439    24188153.677
  21352708.413   -23459242.89343 -18239995.85642  21352709.479    21352704.604
 04  1  1  2 14  0.0000000  0  9G17G30G29G26G10G18G 6G16G21
  22548574.438   -14170061.65543 -11026000.67842  22548574.740    22548571.543
  22213338.520   -12930758.38743  -9912575.42342  22213340.316    22213336.512
  23306126.528   -11694068.82743  -9086305.69942  23306128.185    23306124.606
  23039781.201   -13586078.27343 -10582848.84842  23039783.037    23039779.950
  22845051.990   -10154530.37643  -7873813.72742  22845052.695    22845049.257
  22729645.874   -15126315.05843 -11738789.26642  22729647.205    22729642.809
  20327684.769   -28519568.18544 -22213876.78942  20327686.207    20327682.199
  24173460.410    -8386257.79043  -6194935.97242  24173461.763    24173458.040
  21344867.127   -23500449.09844 -18272104.56342  21344868.174    21344863.326
 04  1  1  2 14 30.0000000  0  9G17G30G29G26G10G18G 6G16G21
  22560698.953   -14106346.86543 -10976352.78642  22560699.229    22560696.033
  22231332.121   -12836201.29243  -9838894.58942  22231333.907    22231330.212
  23298721.635   -11732981.47643  -9116627.19442  23298723.306    23298719.708
  23025497.559   -13661139.23243 -10641337.85342  23025499.343    23025496.262
  22862826.604   -10061124.12743  -7801029.60442  22862827.311    22862823.852
  22711204.320   -15223225.96143 -11814304.19642  22711205.661    22711201.312
  20325769.555   -28529632.76644 -22221719.31542  20325770.988    20325766.963
  24158837.470    -8463101.91743  -6254814.45142  24158838.765    24158835.006
  21337067.317   -23541437.16343 -18304043.26542  21337068.384    21337063.533
 04  1  1  2 15  0.0000000  0  9G17G30G29G26G10G18G 6G16G21
  22572839.440   -14042548.04043 -10926639.40142  22572839.738    22572836.555
  22249371.662   -12741402.72943  -9765025.55842  22249373.481    22249369.699
  23291396.649   -11771474.06543  -9146621.37142  23291398.348    23291394.770
  23011274.112   -13735883.55543 -10699580.11342  23011275.868    23011272.883
  22880653.871    -9967441.20443  -7728029.92942  22880654.575    22880651.096
  22692810.746   -15319884.48243 -11889622.48842  22692812.076    22692807.663
  20323927.686   -28539311.84644 -22229261.44642  20323929.116    20323925.093
  24144286.182    -8539569.02643  -6314399.15542  24144287.483    24144283.747
  21329307.580   -23582214.60844 -18335817.86042  21329308.673    21329303.812
 04  1  1  2 15 30.0000000  0  9G17G30G29G26G10G18G 6G16G21
  22584996.467   -13978662.21043 -10876858.23242  22584996.800    22584993.619
  22267457.302   -12646362.35543  -9690968.13642  22267459.094    22267455.356
  23284152.726   -11809541.11743  -9176283.94942  23284154.397    23284150.807
  22997112.181   -13810304.50443 -10757570.39042  22997113.971    22997110.969
  22898533.885    -9873480.92743  -7654814.11242  22898534.606    22898531.153
  22674466.311   -15416285.02043 -11964739.74742  22674467.607    22674463.252
  20322160.049   -28548600.79844 -22236499.57842  20322161.470    20322157.451
  24129807.800    -8615653.16443  -6373685.43442  24129809.074    24129805.395
  21321588.551   -23622778.23444 -18367425.84842  21321589.659    21321584.769
 04  1  1  2 16  0.0000000  0  9G17G30G29G26G10G18G 6G16G21
  22597170.239   -13914688.52943 -10827008.60342  22597170.575    22597167.412
  22285588.536   -12551081.84343  -9616723.59442  22285590.346    22285586.618
  23276990.390   -11847179.15843  -9205612.24342  23276992.037    23276988.475
  22983012.681   -13884397.39343 -10815305.04242  22983014.529    22983011.490
  22916466.398    -9779245.16343  -7581383.64442  22916467.064    22916463.611
  22656171.609   -15512424.12343 -12039653.29742  22656172.919    22656168.458
  20320467.123   -28557497.09844 -22243431.75342  20320468.560    20320464.538
  24115402.966    -8691351.00543  -6432670.70742  24115404.166    24115400.434
  21313910.514   -23663126.62744 -18398866.12842  21313911.599    21313906.691
 04  1  1  2 16 30.0000000  0  9G17G30G29G26G10G18G 6G16G21
  22609359.993   -13850630.82743 -10777093.50142  22609360.331    22609357.191
  22303764.508   -12455567.05243  -9542296.48742  22303766.288    22303762.479
  23269909.528   -11884389.06243  -9234606.94342  23269911.214    23269907.581
  22968975.765   -13958161.37543 -10872783.40342  22968977.663    22968974.632
  22934450.224    -9684739.51343  -7507742.87842  22934450.900    22934447.429
  22637926.477   -15608302.61343 -12114363.76842  22637927.770    22637923.371
  20318848.668   -28566002.26344 -22250059.14642  20318850.089    20318846.055
  24101071.463    -8766663.06343  -6491355.36542  24101072.763    24101068.966
  21306272.786   -23703262.96544 -18430141.16242  21306273.909    21306268.966
 04  1  1  2 17  0.0000000  0 10G17G15G30G29G26G10G18G 6G16G21
  22621563.361   -13786501.60643 -10727122.67542  22621563.722    22621560.591
  24734181.548    -4840689.30653  -3760313.45552  24734182.418    24734181.667
  22321982.007   -12359832.90343  -9467698.46342  22321983.811    22321980.128
  23262908.321   -11921180.59643  -9263275.62842  23262909.983    23262906.390
  22954999.859   -14031605.30943 -10930012.37742  22955001.727    22954998.712
  22952482.541    -9589978.74343  -7433903.30042  22952483.242    22952479.755
  22619729.060   -15703930.57543 -12188879.02442  22619730.358    22619726.000
  20317302.595   -28574126.95344 -22256390.06542  20317304.013    20317299.952
  24086811.500    -8841599.16743  -6549747.07242  24086812.871    24086809.033
  21298673.065   -23743199.74744 -18461260.71142  21298674.185    21298669.202
 04  1  1  2 17 30.0000000  0 10G17G15G30G29G26G10G18G 6G16G21
  22633785.799   -13722272.29443 -10677073.85642  22633786.172    22633782.990
  24718698.004    -4922056.18243  -3823716.12442  24718698.730    24718697.990
  22340246.439   -12263853.12043  -9392909.01242  22340248.246    22340244.396
  23255992.665   -11957522.26443  -9291593.77542  23255994.384    23255990.740
  22941091.085   -14104696.26743 -10986966.32142  22941092.929    22941089.915
  22970568.532    -9494936.47043  -7359844.41942  22970569.186    22970565.730
  22601585.222   -15799276.53043 -12263174.54642  22601586.542    22601582.158
  20315834.714   -28581840.67744 -22262400.74842  20315836.135    20315832.061
  24072629.225    -8916127.65743  -6607821.16842  24072630.522    24072626.646
  21291116.879   -23782907.81744 -18492202.02942  21291117.967    21291112.982
 04  1  1  2 18  0.0000000  0 10G17G15G30G29G26G10G18G 6G16G21
  22646023.773   -13657961.28443 -10626961.37742  22646024.147    22646021.000
  24703230.021    -5003340.42543  -3887054.36842  24703230.723    24703229.965
  22358553.498   -12167648.61943  -9317944.48442  22358555.287    22358551.608
  23249159.557   -11993430.00743  -9319573.78442  23249161.291    23249157.663
  22927246.664   -14177448.94343 -11043656.64542  22927248.545    22927245.449
  22988704.036    -9399633.50643  -7285582.35542  22988704.729    22988701.271
  22583492.134   -15894356.49143 -12337262.79542  22583493.426    22583489.069
  20314441.845   -28589160.23644 -22268104.29342  20314443.248    20314439.185
  24058521.427    -8990264.36443  -6665589.97742  24058522.704    24058518.816
  21283600.789   -23822405.05844 -18522979.05542  21283601.870    21283596.891
 04  1  1  2 18 30.0000000  0 10G17G15G30G29G26G10G18G 6G16G21
  22658277.724   -13593566.26043 -10576783.43342  22658278.085    22658274.937
  24687778.349    -5084539.02143  -3950325.92842  24687779.145    24687778.219
  22376903.409   -12071219.47643  -9242804.87342  22376905.211    22376901.382
  23242410.084   -12028898.72543  -9347211.68942  23242411.801    23242408.163
  22913467.872   -14249856.84943 -11100078.33142  22913469.701    22913466.672
  23006889.254    -9304069.60043  -7211116.97042  23006889.945    23006886.474
  22565450.527   -15989165.35043 -12411139.80842  22565451.797    22565447.412
  20313124.811   -28596081.20144 -22273497.24242  20313126.237    20313122.159
  24044489.222    -9064003.78443  -6723049.20442  24044490.481    24044486.643
  21276125.311   -23861688.86744 -18553589.78242  21276126.385    21276121.399
 04  1  1  2 19  0.0000000  0 10G17G15G30G29G26G10G18G 6G16G21
  22670547.078   -13529090.49143 -10526542.56742  22670547.448    22670544.261
  24672342.472    -5165654.36343  -4013532.61342  24672343.518    24672342.320
  22395294.867   -11974571.16043  -9167494.52642  22395296.680    22395292.977
  23235744.044   -12063929.08843  -9374508.03042  23235745.746    23235742.044
  22899754.761   -14321919.18943 -11156230.74642  22899756.696    22899753.632
  23025123.036    -9208250.43243  -7136452.67642  23025123.705    23025120.240
  22547460.496   -16083703.51043 -12484805.86142  22547461.753    22547457.435
  20311883.352   -28602605.01944 -22278580.71642  20311884.775    20311880.707
  24030532.533    -9137346.39443  -6780199.23842  24030533.849    24030529.929
  21268689.857   -23900762.27844 -18584036.55942  21268690.940    21268685.933
 04  1  1  2 19 30.0000000  0 10G17G15G30G29G26G10G18G 6G16G21
  22682832.579   -13464529.80443 -10476235.52242  22682832.960    22682829.741
  24656923.393    -5246681.80843  -4076670.80642  24656924.500    24656923.233
  22413728.487   -11877701.98143  -9092012.05442  22413730.294    22413726.606
  23229162.669   -12098514.12043  -9401457.34942  23229164.372    23229160.649
  22886108.982   -14393627.81343 -11212107.52742  22886110.940    22886107.893
  23043405.778    -9112173.95743  -7061587.87442  23043406.438    23043403.002
  22529523.253   -16177964.16043 -12558255.68542  22529524.513    22529520.106
  20310718.599   -28608725.80444 -22283350.16042  20310720.028    20310715.952
  24016652.669    -9210285.25143  -6837034.65642  24016654.053    24016650.019
  21261295.381   -23939620.39344 -18614315.58542  21261296.462    21261291.450
 04  1  1  2 20  0.0000000  0 10G17G15G30G29G26G10G18G 6G16G21
  22695133.206   -13399889.37043 -10425866.33442  22695133.611    22695130.398
  24641520.200    -5327625.73543  -4139743.89242  24641521.338    24641519.990
  22432202.622   -11780619.60243  -9016363.44542  22432204.413    22432200.701
  23222665.529   -12132656.46643  -9428061.71842  23222667.280    23222663.520
  22872530.322   -14464983.88343 -11267709.60142  22872532.260    22872529.184
  23061736.036    -9015847.48443  -6986528.28342  23061736.744    23061733.314
  22511638.312   -16271950.14343 -12631491.50042  22511639.550    22511635.167
  20309629.878   -28614446.98344 -22287808.21542  20309631.292    20309627.235
  24002849.243    -9282822.77943  -6893557.36642  24002850.577    24002846.607
  21253940.913   -23978268.28844 -18644430.80442  21253941.991    21253936.961
 04  1  1  2 20 30.0000000  0 10G17G15G30G29G26G10G18G 6G16G21
  22707448.860   -13335170.22843 -10375435.84242  22707449.258    22707446.011
  24626132.867    -5408486.52643  -4202752.15542  24626133.975    24626132.578
  22450716.776   -11683327.33043  -8940551.29642  22450718.535    22450714.944
  23216252.920   -12166354.46143  -9454319.83442  23216254.693    23216250.946
  22859019.321   -14535984.47143 -11323034.69642  22859021.213    22859018.083
  23080113.298    -8919274.40143  -6911276.53742  23080113.984    23080110.563
  22493805.942   -16365659.83043 -12704512.01742  22493807.157    22493802.777
  20308617.375   -28619767.62544 -22291954.15942  20308618.814    20308614.733
  23989122.552    -9354957.13443  -6949765.90842  23989123.825    23989119.845
  21246626.350   -24016706.52144 -18674382.63942  21246627.404    21246622.377
 04  1  1  2 21  0.0000000  0 10G17G15G30G29G26G10G18G 6G16G21
  22719780.578   -13270366.51343 -10324939.44942  22719780.983    22719777.737
  24610762.513    -5489257.57943  -4265690.47042  24610763.724    24610762.215
  22469271.432   -11585821.83143  -8864572.98142  22469273.229    22469269.514
  23209926.480   -12199599.95943  -9480225.36242  23209928.213    23209924.430
  22845577.794   -14606619.77343 -11378075.13342  22845579.709    22845576.575
  23098538.128    -8822451.35243  -6835830.00842  23098538.776    23098535.370
  22476027.691   -16459084.70043 -12777310.59242  22476028.951    22476024.563
  20307682.508   -28624680.33244 -22295782.23542  20307683.951    20307679.873
  23975474.186    -9426679.85843  -7005653.69542  23975475.426    23975471.367
  21239352.811   -24054929.02444 -18704166.36442  21239353.869    21239348.829
 04  1  1  2 21 30.0000000  0 10G17G15G30G29G26G10G18G 6G16G21
  22732126.926   -13205485.58843 -10274382.86142  22732127.373    22732124.149
  24595407.934    -5569945.66443  -4328564.17842  24595409.288    24595407.647
  22487864.816   -11488112.92143  -8788436.19542  22487866.616    22487862.993
  23203685.249   -12232397.66243  -9505781.95942  23203686.995    23203683.235
  22832205.154   -14676893.30043 -11432833.66342  22832207.084    22832203.921
  23117008.726    -8725387.77543  -6760196.05942  23117009.359    23117005.951
  22458302.838   -16552229.62143 -12849891.02542  22458304.097    22458299.705
  20306824.212   -28629190.67344 -22299296.77542  20306825.655    20306821.588
  23961903.264    -9497995.26243  -7061224.09542  23961904.511    23961900.440
  21232118.967   -24092943.05644 -18733787.66142  21232120.002    21232114.956
 04  1  1  2 22  0.0000000  0 10G17G15G30G29G26G10G18G 6G16G21
  22744487.988   -13140527.76143 -10223766.36542  22744488.435    22744485.208
  24580069.331    -5650550.27243  -4391372.84442  24580070.652    24580069.082
  22506496.448   -11390203.20643  -8712142.91442  22506498.220    22506494.536
  23197529.644   -12264745.22943  -9530987.79542  23197531.382    23197527.655
  22818902.073   -14746801.29743 -11487307.36442  22818903.992    22818900.829
  23135524.607    -8628086.16143  -6684376.62542  23135525.287    23135521.860
  22440631.670   -16645092.04343 -12922251.35042  22440632.918    22440628.486
  20306042.771   -28633297.03744 -22302496.51242  20306044.230    20306040.155
  23948410.304    -9568900.91743  -7116475.20442  23948411.579    23948407.471
  21224924.889   -24130748.01244 -18763246.04742  21224925.940    21224920.873
 04  1  1  2 22 30.0000000  0 10G17G15G30G29G26G10G18G 6G16G21
  22756864.817   -13075487.04343 -10173085.28942  22756865.265    22756862.000
  24564747.877    -5731064.73643  -4454111.29042  24564749.240    24564747.556
  22525166.874   -11292089.17743  -8635690.43042  22525168.679    22525165.051
  23191461.345   -12296634.32443  -9555836.38342  23191463.084    23191459.334
  22805670.430   -14816333.84243 -11541488.51842  22805672.306    22805669.118
  23154086.491    -8530542.56943  -6608368.63442  23154087.211    23154083.779
  22423015.981   -16737663.34543 -12994384.81242  22423017.220    22423012.814
  20305339.695   -28636991.76844 -22305375.51942  20305341.145    20305337.053
  23934996.940    -9639388.32443  -7171400.41142  23934998.267    23934994.135
  21217771.811   -24168337.64544 -18792536.65442  21217772.829    21217767.765
 04  1  1  2 23  0.0000000  0 10G17G15G30G29G26G10G18G 6G16G21
  22769255.936   -13010371.15243 -10122345.62742  22769256.423    22769253.089
  24549442.186    -5811496.37143  -4516785.21142  24549443.511    24549441.738
  22543874.401   -11193780.89343  -8559086.58742  22543876.159    22543872.586
  23185479.242   -12328070.06943  -9580331.70942  23185480.993    23185477.238
  22792509.492   -14885494.68043 -11595380.01442  22792511.355    22792508.225
  23172692.603    -8432766.99543  -6532179.88842  23172693.256    23172689.848
  22405454.620   -16829948.88643 -13066295.63042  22405455.860    22405451.350
  20304713.823   -28640280.76444 -22307938.37242  20304715.258    20304711.160
  23921662.204    -9709462.47943  -7226003.60442  23921663.508    23921659.431
  21210658.283   -24205719.32844 -18821665.21242  21210659.303    21210654.244
 04  1  1  2 23 30.0000000  0 10G17G15G30G29G26G10G18G 6G16G21
  22781662.035   -12945176.87643 -10071544.88142  22781662.498    22781659.147
  24534152.946    -5891841.60443  -4579391.80442  24534154.294    24534152.409
  22562618.866   -11095277.79243  -8482330.91242  22562620.638    22562616.987
  23179584.459   -12359046.94943  -9604469.48942  23179586.312    23179582.439
  22779420.589   -14954277.05243 -11648976.60042  22779422.442    22779419.317
  23191342.938    -8334758.80243  -6455809.86342  23191343.576    23191340.183
  22387948.673   -16921943.10443 -13137979.41842  22387949.924    22387945.511
  20304166.039   -28643159.39344 -22310181.45542  20304167.457    20304163.373
  23908407.298    -9779117.41843  -7280280.13142  23908408.582    23908404.439
  21203584.970   -24242889.75244 -18850629.15142  21203585.992    21203580.919
 04  1  1  2 24  0.0000000  0 10G17G15G30G29G26G10G18G 6G16G21
  22794082.938   -12879904.57343 -10020683.34342  22794083.421    22794080.044
  24518880.321    -5972099.93643  -4641930.67542  24518881.579    24518879.615
  22581399.999   -10996582.79743  -8405425.74042  22581401.740    22581398.145
  23173777.474   -12389562.87443  -9628248.10442  23173779.262    23173775.366
  22766404.370   -15022677.35443 -11702275.46242  22766406.280    22766403.110
  23210037.018    -8236520.76243  -6379260.72242  23210037.692    23210034.252
  22370498.655   -17013643.76643 -13209434.49242  22370499.905    22370495.355
  20303696.599   -28645626.18544 -22312103.61842  20303698.046    20303693.963
  23895232.561    -9848350.91943  -7334228.26442  23895233.875    23895229.731
  21196551.837   -24279849.03144 -18879428.56842  21196552.851    21196547.772
 04  1  1  2 24 30.0000000  0 10G17G15G30G29G26G10G18G 6G16G21
  22806518.028   -12814557.62943  -9969763.63942  22806518.553    22806515.177
  24503623.649    -6052274.13043  -4704403.96942  24503624.851    24503622.859
  22600216.426   -10897701.52143  -8328375.40942  22600218.154    22600214.620
  23168058.045   -12419618.78343  -9651668.26042  23168059.772    23168055.880
  22753461.018   -15090694.87143 -11755276.03442  22753462.904    22753459.781
  23228773.808    -8138058.18543  -6302536.64942  23228774.526    23228771.071
  22353104.225   -17105051.79443 -13280661.50742  22353105.471    22353101.068
  20303305.227   -28647682.76344 -22313706.12842  20303306.670    20303302.600
  23882137.834    -9917163.77543  -7387848.63742  23882139.165    23882135.063
  21189558.314   -24316600.21844 -18908065.83942  21189559.324    21189554.225
 04  1  1  2 25  0.0000000  0 10G17G15G30G29G26G10G18G 6G16G21
  22818967.786   -12749133.67543  -9918783.93642  22818968.308    22818964.962
  24488383.574    -6132361.14943  -4766809.36042  24488384.698    24488382.730
  22619068.438   -10798634.04843  -8251179.96342  22619070.166    22619066.516
  23162427.013   -12449209.89943  -9674726.21742  23162428.700    23162424.846
  22740591.628   -15158323.66043 -11807973.72242  22740593.524    22740590.338
  23247553.448    -8039370.81443  -6225637.40942  23247554.097    23247550.626
  22335766.558   -17196162.15143 -13351656.60242  22335767.794    22335763.249
  20302992.653   -28649325.28044 -22314985.99442  20302994.113    20302990.038
  23869124.239    -9985550.60543  -7441137.02942  23869125.550    23869121.447
  21182604.941   -24353140.41444 -18936538.69242  21182605.957    21182600.835
 04  1  1  2 25 30.0000000  0 10G17G15G30G29G26G10G18G 6G16G21
  22831431.872   -12683634.35943  -9867745.51242  22831432.387    22831429.083
  24473159.883    -6212362.03143  -4829147.63742  24473161.012    24473158.957
  22637954.906   -10699384.53543  -8173842.70842  22637956.665    22637953.179
  23156884.606   -12478335.37843  -9697421.35942  23156886.300    23156882.397
  22727796.685   -15225561.24643 -11860366.57142  22727798.580    22727795.417
  23266375.036    -7940462.86043  -6148566.28042  23266375.634    23266372.171
  22318485.563   -17286974.09643 -13422419.13742  22318486.813    22318482.383
  20302758.880   -28650553.72044 -22315943.21642  20302760.319    20302756.262
  23856191.863   -10053510.59643  -7494092.81242  23856193.135    23856189.058
  21175691.489   -24389470.80744 -18964848.07642  21175692.505    21175687.367
 04  1  1  2 26  0.0000000  0 10G17G15G30G29G26G10G18G 6G16G21
  22843910.115   -12618060.66543  -9816649.12742  22843910.613    22843907.366
  24457952.455    -6292277.27043  -4891419.20042  24457953.598    24457951.442
  22656875.467   -10599956.51043  -8096366.30642  22656877.263    22656873.609
  23151430.950   -12506994.23343  -9719752.89342  23151432.658    23151428.779
  22715076.695   -15292405.08443 -11912452.60942  22715078.556    22715075.360
  23285237.924    -7841337.63643  -6071325.85042  23285238.543    23285235.089
  22301261.657   -17377486.21943 -13492948.05842  22301262.911    22301258.459
  20302604.006   -28651367.54344 -22316577.35742  20302605.445    20302601.383
  23843340.992   -10121042.22843  -7546714.82042  23843342.243    23843338.206
  21168817.776   -24425592.35444 -18992994.72142  21168818.791    21168813.642
 04  1  1  2 26 30.0000000  0 10G17G15G30G29G26G10G18G 6G16G21
  22856402.854   -12552410.96843  -9765493.51342  22856403.311    22856400.077
  24442761.764    -6372104.90143  -4953622.51242  24442762.823    24442760.711
  22675829.803   -10500350.72043  -8018751.43542  22675831.584    22675828.042
  23146066.847   -12535182.43243  -9741717.67842  23146068.623    23146064.695
  22702432.606   -15358849.65543 -11964227.51642  22702434.503    22702431.301
  23304142.058    -7741995.77843  -5993916.61042  23304142.672    23304139.226
  22284095.717   -17467694.24743 -13563240.02542  22284096.920    22284092.496
  20302528.644   -28651763.53044 -22316885.91542  20302530.073    20302526.007
  23830572.467   -10188141.30343  -7598999.77342  23830573.646    23830569.643
  21161984.179   -24461502.99844 -19020977.01542  21161985.197    21161980.049
 04  1  1  2 27  0.0000000  0 10G17G15G30G29G26G10G18G 6G16G21
  22868909.719   -12486687.27243  -9714280.24342  22868910.095    22868906.910
  24427587.492    -6451846.09843  -5015758.46242  24427588.537    24427586.410
  22694817.144   -10400571.87743  -7941001.70242  22694818.900    22694815.357
  23140792.480   -12562899.48743  -9763315.33842  23140794.180    23140790.239
  22689864.832   -15424893.22343 -12015689.95342  22689866.744    22689863.523
  23323086.610    -7642441.30343  -5916341.68342  23323087.233    23323083.832
  22266987.549   -17557597.89143 -13633294.78942  22266988.776    22266984.395
  20302532.703   -28651742.08944 -22316869.20642  20302534.160    20302530.093
  23817886.292   -10254807.33443  -7650947.30242  23817887.552    23817883.460
  21155190.363   -24497204.54344 -19048796.37942  21155191.398    21155186.257
 04  1  1  2 27 30.0000000  0 10G17G15G30G29G26G10G18G 6G16G21
  22881430.534   -12420889.92643  -9663009.58242  22881430.921    22881427.717
  24412429.629    -6531500.83943  -5077827.04042  24412430.605    24412428.626
  22713836.850   -10300622.71743  -7863119.24242  22713838.569    22713834.973
  23135608.026   -12590143.76843  -9784544.61042  23135609.726    23135605.787
  22677373.996   -15490532.44443 -12066837.31142  22677375.927    22677372.738
  23342071.084    -7542676.97143  -5838603.26142  23342071.749    23342068.364
  22249937.818   -17647195.04443 -13703110.74942  22249939.023    22249934.632
  20302616.460   -28651301.95444 -22316526.23742  20302617.896    20302613.847
  23805283.032   -10321037.89343  -7702555.48842  23805284.322    23805280.194
  21148436.316   -24532697.16044 -19076452.93242  21148437.349    21148432.221
 04  1  1  2 28  0.0000000  0 10G17G15G30G29G26G10G18G 6G16G21
  22893964.865   -12355021.59343  -9611683.61242  22893965.292    22893962.021
  24397287.887    -6611071.13943  -5139829.81142  24397288.802    24397286.818
  22732887.982   -10200508.29543  -7785108.03442  22732889.735    22732886.186
  23130513.517   -12616915.58343  -9805405.71342  23130515.209    23130511.241
  22664960.406   -15555766.02743 -12117668.62742  22664962.355    22664959.108
  23361094.639    -7442707.67443  -5760705.11342  23361095.290    23361091.919
  22232946.315   -17736485.87843 -13772688.00542  22232947.533    22232943.176
  20302779.699   -28650444.13644 -22315857.79042  20302781.133    20302777.086
  23792762.615   -10386833.23443  -7753824.56342  23792763.826    23792759.672
  21141721.668   -24567982.71144 -19103948.12942  21141722.716    21141717.582
 04  1  1  2 28 30.0000000  0 10G17G15G30G29G26G10G18G 6G16G21
  22906513.599   -12289077.48643  -9560298.59542  22906514.024    22906510.795
  24382163.223    -6690551.87843  -5201762.82442  24382164.070    24382161.974
  22751970.901   -10100226.50243  -7706966.38142  22751972.701    22751969.112
  23125510.138   -12643208.17843  -9825893.42942  23125511.863    23125507.822
  22652625.590   -15620585.74143 -12168177.42942  22652627.466    22652624.274
  23380157.544    -7342531.21843  -5682645.53342  23380158.216    23380154.867
  22216014.372   -17825463.62343 -13842021.30042  22216015.603    22216011.270
  20303023.558   -28649162.54544 -22314859.12242  20303025.014    20303020.946
  23780326.265   -10452186.29643  -7804748.98542  23780327.529    23780323.352
  21135047.253   -24603056.90344 -19131278.64842  21135048.293    21135043.158
 04  1  1  2 29  0.0000000  0 10G17G15G30G29G26G10G18G 6G16G21
  22919075.482   -12223064.34343  -9508859.77442  22919075.877    22919072.740
  24367054.507    -6769948.89443  -5263630.64542  24367055.312    24367053.075
  22771084.035    -9999786.48943  -7628701.44842  22771085.809    22771082.215
  23120597.182   -12669025.84143  -9846011.04642  23120598.909    23120594.855
  22640369.018   -15684994.53543 -12218366.04742  22640370.846    22640367.604
  23399258.278    -7242156.31543  -5604431.33642  23399258.970    23399255.587
  22199141.286   -17914132.18843 -13911113.67042  22199142.529    22199138.256
  20303347.120   -28647462.31444 -22313534.27542  20303348.540    20303344.486
  23767973.377   -10517100.97343  -7855331.81342  23767974.643    23767970.469
  21128411.953   -24637925.52244 -19158448.97442  21128412.971    21128407.870
 04  1  1  2 29 30.0000000  0 10G17G15G30G29G26G10G18G 6G16G21
  22931651.372   -12156977.51643  -9457363.54942  22931651.763    22931648.650
  24351962.707    -6849257.02043  -5325429.18842  24351963.411    24351961.090
  22790227.642    -9899186.25243  -7550311.66542  22790229.402    22790225.830
  23115775.842   -12694361.97643  -9865753.45342  23115777.600    23115773.483
  22628192.205   -15748984.05843 -12268227.94642  22628193.997    22628190.751
  23418397.131    -7141580.85243  -5526060.84542  23418397.819    23418394.506
  22182328.269   -18002484.98243 -13979959.98542  22182329.506    22182325.238
  20303751.468   -28645337.42144 -22311878.50942  20303752.887    20303748.841
  23755705.188   -10581570.38743  -7905567.68642  23755706.462    23755702.316
  21121816.548   -24672584.52644 -19185455.97142  21121817.551    21121812.439
 04  1  1  2 30  0.0000000  0 10G17G15G30G29G26G10G18G 6G16G21
  22944240.582   -12090820.64143  -9405812.73842  22944240.965    22944237.881
  24336887.122    -6928479.64743  -5387161.07142  24336887.838    24336885.598
  22809400.542    -9798431.87843  -7471801.76542  22809402.299    22809398.628
  23111045.821   -12719218.06843  -9885121.79242  23111047.590    23111043.517
  22616095.187   -15812554.37743 -12317763.21942  22616096.998    22616093.632
  23437572.993    -7040810.55743  -5447538.54442  23437573.799    23437570.488
  22165575.134   -18090523.24843 -14048561.20642  22165576.369    22165572.162
  20304236.219   -28642790.05044 -22309893.53942  20304237.623    20304233.563
  23743521.619   -10645595.67943  -7955457.48742  23743522.881    23743518.723
  21115260.509   -24707036.57544 -19212301.69442  21115261.511    21115256.407
 04  1  1  2 30 30.0000000  0 10G17G15G30G29G26G10G18G 6G16G21
  22956843.505   -12024591.90743  -9354205.93342  22956843.880    22956840.738
  24321828.231    -7007614.22443  -5448824.34042  24321829.023    24321826.830
  22828602.738    -9697524.05943  -7393172.31042  22828604.465    22828600.809
  23106407.982   -12743590.15743  -9904113.01142  23106409.710    23106405.622
  22604079.001   -15875699.86343 -12366967.45242  22604080.792    22604077.431
  23456785.927    -6939845.85743  -5368864.75342  23456786.727    23456783.391
  22148882.665   -18178242.67143 -14116914.00042  22148883.892    22148879.646
  20304802.025   -28639816.74644 -22307576.67142  20304803.425    20304799.346
  23731423.282   -10709172.46943  -8004997.79542  23731424.587    23731420.447
  21108744.268   -24741279.52144 -19238984.47842  21108745.288    21108740.154
 04  1  1  2 31  0.0000000  0 10G17G15G30G29G26G10G18G 6G16G21
  22969459.381   -11958294.99743  -9302546.01342  22969459.741    22969456.587
  24306785.531    -7086664.01843  -5510421.53642  24306786.284    24306784.195
  22847832.800    -9596468.93643  -7314428.08042  22847834.591    22847830.953
  23101861.897   -12767479.71443  -9922728.22342  23101863.670    23101859.505
  22592143.636   -15938420.68543 -12415840.77542  22592145.427    22592141.995
  23476034.764    -6838692.58643  -5290044.00242  23476035.549    23476032.181
  22132250.528   -18265644.99343 -14185019.68942  22132251.771    22132247.575
  20305448.446   -28636419.79044 -22304929.68042  20305449.836    20305445.766
  23719410.099   -10772302.25243  -8054189.79442  23719411.387    23719407.168
  21102267.112   -24775317.11444 -19265507.24642  21102268.114    21102262.995
 04  1  1  2 31 30.0000000  0 10G17G15G30G29G26G10G18G 6G16G21
  22982089.567   -11891922.94843  -9250827.53042  22982089.960    22982086.785
  24291760.400    -7165621.77643  -5571947.02842  24291760.987    24291759.112
  22867091.820    -9495262.17343  -7235565.66742  22867093.595    22867089.876
  23097409.351   -12790877.87443  -9940960.53942  23097411.091    23097406.961
  22580291.031   -16000706.22243 -12464374.91242  22580292.864    22580289.434
  23495320.331    -6737346.27343  -5211072.85742  23495321.079    23495317.714
  22115680.602   -18352720.74343 -14252870.91042  22115681.811    22115677.561
  20306177.055   -28632590.79644 -22301946.02542  20306178.460    20306174.366
  23707483.726   -10834975.56443  -8103026.09942  23707484.962    23707480.783
  21095830.400   -24809142.04344 -19291864.29942  21095831.423    21095826.299
 04  1  1  2 32  0.0000000  0 10G17G15G30G29G26G10G18G 6G16G21
  22994732.212   -11825485.29143  -9199057.93342  22994732.596    22994729.400
  24276751.004    -7244496.54843  -5633407.86642  24276751.497    24276749.681
  22886377.354    -9393915.88843  -7156594.56542  22886379.144    22886375.489
  23093048.883   -12813792.38243  -9958815.97942  23093050.597    23093046.449
  22568520.183   -16062562.38543 -12512574.46842  22568521.995    22568518.612
  23514640.331    -6635818.87743  -5131960.59242  23514641.066    23514637.741
  22099171.389   -18439477.03443 -14320473.20542  22099172.625    22099168.398
  20306986.342   -28628337.97644 -22298632.14142  20306987.740    20306983.637
  23695642.828   -10897199.74543  -8151512.43342  23695644.063    23695639.912
  21089432.367   -24842763.82444 -19318063.06442  21089433.371    21089428.256
 04  1  1  2 32 30.0000000  0 10G17G15G30G29G26G10G18G 6G16G21
  23007388.252   -11758977.26443  -9147233.49642  23007388.626    23007385.457
  24261758.357    -7323283.12443  -5694800.00042  24261758.841    24261757.013
  22905689.907    -9292427.99943  -7077513.09442  22905691.680    22905687.942
  23088781.679   -12836216.44843  -9976289.25242  23088783.428    23088779.240
  22556832.648   -16123980.98343 -12560433.07342  22556834.386    22556830.939
  23533995.291    -6534107.92543  -5052705.30342  23533996.007    23533992.700
  22082724.290   -18525907.01343 -14387821.22042  22082725.534    22082721.277
  20307877.428   -28623655.24544 -22294983.25742  20307878.840    20307874.725
  23683888.778   -10958967.52343  -8199643.13142  23683889.995    23683885.821
  21083074.009   -24876177.20044 -19344099.43542  21083075.007    21083069.882
 04  1  1  2 33  0.0000000  0 10G17G15G30G29G26G10G18G 6G16G21
  23020057.189   -11692401.79343  -9095356.50942  23020057.514    23020054.355
  24246782.036    -7401983.98843  -5756125.32742  24246782.468    24246780.730
  22925028.332    -9190803.74843  -6998325.37042  22925030.136    22925026.363
  23084607.674   -12858150.97443  -9993381.07542  23084609.433    23084605.216
  22545228.382   -16184961.39443 -12607950.22442  22545230.151    22545226.707
  23553384.177    -6432218.43543  -4973310.89142  23553384.901    23553381.638
  22066339.213   -18612011.28943 -14454915.42942  22066340.439    22066336.212
  20308850.045   -28618544.09644 -22291000.54442  20308851.439    20308847.352
  23672221.462   -11020279.57743  -8247418.71242  23672222.677    23672218.481
  21076754.760   -24909384.96944 -19369975.59142  21076755.761    21076750.629
 04  1  1  2 33 30.0000000  0 10G17G15G30G29G26G10G18G 6G16G21
  23032739.162   -11625757.78243  -9043426.10342  23032739.440    23032736.264
  24231822.505    -7480597.17843  -5817382.33542  24231822.918    24231821.144
  22944392.507    -9089044.50743  -6919032.47042  22944394.290    22944390.613
  23080527.447   -12879592.59843 -10010088.80442  23080529.194    23080524.979
  22533708.487   -16245498.68743 -12655122.08342  22533710.250    22533706.764
  23572806.848    -6330151.62443  -4893778.30142  23572807.614    23572804.363
  22050016.710   -18697786.21143 -14521752.95842  22050017.971    22050013.722
  20309904.657   -28613002.04644 -22286682.04742  20309906.064    20309901.956
  23660641.545   -11081132.34143  -8294836.40642  23660642.746    23660638.594
  21070474.959   -24942385.37544 -19395690.16542  21070475.973    21070470.821
 04  1  1  2 34  0.0000000  0 10G17G15G30G29G26G10G18G 6G16G21
  23045434.353   -11559044.16543  -8991441.47142  23045434.630    23045431.455
  24216879.758    -7559121.41843  -5878570.01042  24216880.288    24216878.472
  22963781.957    -8987152.02243  -6839635.73742  22963783.797    22963780.047
  23076541.501   -12900538.81043 -10026410.50242  23076543.248    23076539.030
  22522273.674   -16305588.59143 -12701945.32742  22522275.430    22522271.985
  23592263.040    -6227908.75643  -4814108.53642  23592263.793    23592260.503
  22033757.464   -18783229.09243 -14588331.80442  22033758.703    22033754.505
  20311041.697   -28607026.95144 -22282026.12342  20311043.078    20311038.962
  23649149.673   -11141522.62843  -8341893.73742  23649150.809    23649146.646
  21064234.770   -24975177.68944 -19421242.58542  21064235.781    21064230.632
 04  1  1  2 34 30.0000000  0 10G17G15G30G29G26G10G18G 6G16G21
  23058142.234   -11492263.80143  -8939404.82242  23058142.539    23058139.326
  24201953.493    -7637559.13243  -5939690.23542  24201954.066    24201952.139
  22983195.829    -8885131.66443  -6760139.35942  22983197.676    22983193.887
  23072649.676   -12920990.31043 -10042346.70942  23072651.426    23072647.223
  22510924.190   -16365230.27643 -12748419.30542  22510925.968    22510922.542
  23611751.742    -6125494.85243  -4734305.48042  23611752.452    23611749.221
  22017561.379   -18868340.38943 -14654652.29242  22017562.573    22017558.292
  20312260.863   -28600620.15344 -22277033.81142  20312262.248    20312258.118
  23637745.612   -11201450.99943  -8388591.12342  23637746.798    23637742.617
  21058033.632   -25007764.64044 -19446634.97842  21058034.653    21058029.517
 04  1  1  2 35  0.0000000  0 10G17G15G30G29G26G10G18G 6G16G21
  23070863.058   -11425415.44443  -8887315.20742  23070863.389    23070860.147
  24187043.982    -7715908.81043  -6000741.86542  24187044.650    24187042.599
  23002633.782    -8782984.69043  -6680544.32742  23002635.585    23002631.839
  23068852.626   -12940944.02743 -10057895.03842  23068854.355    23068850.143
  22499660.844   -16424419.23143 -12794540.51342  22499662.667    22499659.175
  23631272.760    -6022910.99143  -4654369.98642  23631273.485    23631270.210
  22001428.927   -18953116.77043 -14720711.79042  22001430.115    22001425.911
  20313562.668   -28593779.09044 -22271703.11142  20313564.074    20313559.931
  23626430.145   -11260914.07943  -8434925.94742  23626431.361    23626427.098
  21051871.879   -25040144.73044 -19471866.19542  21051872.900    21051867.763
 04  1  1  2 35 30.0000000  0 10G17G15G30G29G26G10G18G 6G16G21
  23083596.366   -11358501.34043  -8835174.34742  23083596.695    23083593.501
  24172150.994    -7794172.06343  -6061726.16442  24172151.606    24172149.541
  23022094.888    -8680715.95743  -6600854.41742  23022096.696    23022092.884
  23065150.129   -12960400.70443 -10073056.06442  23065151.866    23065147.687
  22488483.944   -16483154.15843 -12840307.93242  22488485.759    22488482.216
  23650825.198    -5920161.96543  -4574305.80842  23650825.984    23650822.650
  21985360.273   -19037558.09643 -14786510.20542  21985361.469    21985357.200
  20314946.905   -28586504.79244 -22266034.82042  20314948.322    20314944.172
  23615203.271   -11319911.63943  -8480898.03842  23615204.506    23615200.182
  21045749.195   -25072319.52744 -19496937.44342  21045750.216    21045745.054
 04  1  1  2 36  0.0000000  0 10G17G15G30G29G26G10G18G 6G16G21
  23096342.897   -11291517.90543  -8782979.47242  23096343.214    23096340.021
  24157275.127    -7872345.08743  -6122640.15442  24157275.673    24157273.783
  23041579.367    -8578324.54243  -6521068.91142  23041581.142    23041577.418
  23061543.291   -12979354.54143 -10087825.25542  23061545.034    23061540.909
  22477394.729   -16541428.01043 -12885716.08542  22477396.559    22477392.999
  23670409.372    -5817246.30643  -4494111.77942  23670410.115    23670406.864
  21969356.443   -19121658.69943 -14852043.11442  21969357.663    21969353.401
  20316414.520   -28578792.40644 -22260025.15342  20316415.945    20316411.791
  23604066.027   -11378438.08843  -8526503.03342  23604067.254    23604062.957
  21039666.296   -25104285.32744 -19521845.83042  21039667.316    21039662.135
 04  1  1  2 36 30.0000000  0 10G17G15G30G29G26G10G18G 6G16G21
  23109101.162   -11224472.67543  -8730736.43342  23109101.528    23109098.329
  24142415.089    -7950434.66843  -6183489.02742  24142415.595    24142413.833
  23061085.203    -8475820.36543  -6441195.54742  23061087.015    23061083.303
  23058031.057   -12997811.60643 -10102207.37042  23058032.814    23058028.601
  22466392.559   -16599244.97943 -12930768.20842  22466394.318    22466390.750
  23690023.488    -5714173.77543  -4413795.52142  23690024.136    23690020.893
  21953416.386   -19205423.97043 -14917314.71042  21953417.623    21953413.368
  20317964.276   -28570648.37944 -22253679.16042  20317965.707    20317961.529
  23593017.370   -11436498.77343  -8571745.08442  23593018.596    23593014.315
  21033621.723   -25136049.60144 -19546597.18142  21033622.740    21033617.552
 04  1  1  2 37  0.0000000  0 10G17G15G30G29G26G10G18G 6G16G21
  23121872.346   -11157359.39543  -8678440.37542  23121872.786    23121869.569
  24127572.127    -8028434.49443  -6244267.97642  24127572.757    24127570.914
  23080613.225    -8373200.00643  -6361231.63942  23080615.032    23080611.240
  23054614.820   -13015763.80843 -10116196.07042  23054616.576    23054612.332
  22455479.085   -16656595.48043 -12975456.86142  22455480.909    22455477.234
  23709668.182    -5610940.56043  -4333354.04642  23709668.786    23709665.629
  21937541.727   -19288845.73943 -14982318.61642  21937542.986    21937538.730
  20319597.592   -28562065.29044 -22246991.03842  20319599.003    20319594.821
  23582059.004   -11494085.29343  -8616617.65942  23582060.236    23582055.878
  21027616.652   -25167606.50444 -19571186.95142  21027617.659    21027612.430
 04  1  1  2 37 30.0000000  0 10G17G15G30G29G26G10G18G 6G16G21
  23134655.964   -11090180.74543  -8626093.37742  23134656.460    23134653.263
  24112745.861    -8106346.95043  -6304978.95242  24112746.485    24112744.537
  23100162.350    -8270468.57243  -6281181.18842  23100164.177    23100160.444
  23051294.556   -13033212.16343 -10129792.17342  23051296.244    23051291.985
  22444654.523   -16713478.66843 -13019781.35942  22444656.320    22444652.709
  23729342.461    -5507551.36943  -4252791.04342  23729343.109    23729339.940
  21921732.320   -19371924.66243 -15047055.40842  21921733.571    21921729.275
  20321314.186   -28553044.47644 -22239961.82542  20321315.615    20321311.440
  23571190.752   -11551198.16043  -8661121.15242  23571191.961    23571187.634
  21021650.609   -25198958.29644 -19595616.89242  21021651.598    21021646.357
 04  1  1  2 38  0.0000000  0 10G17G15G30G29G26G10G18G 6G16G21
  23147451.833   -11022938.17443  -8573696.57942  23147452.296    23147449.169
  24097936.023    -8184172.52543  -6365622.13442  24097936.709    24097934.752
  23119731.857    -8167629.98943  -6201047.25442  23119733.715    23119730.006
  23048070.177   -13050156.37643 -10142995.43942  23048071.861    23048067.613
  22433919.267   -16769892.64643 -13063740.24842  22433921.092    22433917.423
  23749045.725    -5404009.97743  -4172109.43542  23749046.403    23749043.190
  21905988.272   -19454659.88243 -15111524.37642  21905989.538    21905985.262
  20323114.010   -28543586.16844 -22232591.70242  20323115.446    20323111.307
  23560412.797   -11607836.66943  -8705255.01442  23560413.980    23560409.704
  21015723.472   -25230105.53944 -19619887.44942  21015724.460    21015719.199
 04  1  1  2 38 30.0000000  0 10G17G15G30G29G26G10G18G 6G16G21
  23160260.281   -10955629.37143  -8521248.15842  23160260.753    23160257.610
  24083143.149    -8261909.05743  -6426195.97342  24083143.811    24083141.965
  23139321.749    -8064684.81343  -6120830.25142  23139323.541    23139319.814
  23044942.440   -13066592.45443 -10155802.73942  23044944.154    23044939.876
  22423274.357   -16825831.89543 -13107329.20842  22423276.133    22423272.505
  23768778.011    -5300316.52343  -4091309.33842  23768778.627    23768775.399
  21890310.444   -19537047.27443 -15175722.32542  21890311.719    21890307.425
  20324997.758   -28533687.06144 -22224878.11542  20324999.180    20324995.040
  23549725.847   -11663996.63943  -8749015.99042  23549727.040    23549722.777
  21009835.705   -25261045.82744 -19643996.73942  21009836.687    21009831.436
 04  1  1  2 39  0.0000000  0 10G17G15G30G29G26G10G18G 6G16G21
  23173080.206   -10888260.09243  -8468752.62642  23173080.687    23173077.548
  24068366.299    -8339561.76643  -6486704.49342  24068366.941    24068365.080
  23158930.270    -7961641.33443  -6040536.64242  23158932.083    23158928.405
  23041910.611   -13082524.73943 -10168217.49142  23041912.311    23041908.065
  22412719.300   -16881298.93343 -13150550.24442  22412721.080    22412717.420
  23788537.606    -5196479.01443  -4010396.99742  23788538.301    23788535.027
  21874698.117   -19619090.58943 -15239652.15742  21874699.368    21874695.062
  20326964.488   -28523351.75944 -22216824.63242  20326965.920    20326961.774
  23539129.253   -11719681.89443  -8792407.06142  23539130.402    23539126.179
  21003986.201   -25291785.11244 -19667949.40942  21003987.174    21003981.917
 04  1  1  2 39 30.0000000  0 10G17G15G30G29G26G10G18G 6G16G21
  23185913.318   -10820821.50943  -8416203.07842  23185913.841    23185910.689
  24053607.157    -8417121.44643  -6547140.51742  24053607.853    24053605.820
  23178558.691    -7858493.12243  -5960161.43642  23178560.525    23178556.856
  23038976.604   -13097942.65243 -10180231.43542  23038978.331    23038974.087
  22402256.381   -16936281.57143 -13193393.81542  22402258.189    22402254.519
  23808325.892    -5092490.73143  -3929367.17842  23808326.599    23808323.378
  21859153.345   -19700778.73043 -15303305.20942  21859154.589    21859150.307
  20329016.140   -28512570.28744 -22208423.49042  20329017.563    20329013.399
  23528625.210   -11774881.11543  -8835419.40742  23528626.271    23528622.083
  20998176.690   -25322314.25544 -19691738.32542  20998177.667    20998172.390
 04  1  1  2 40  0.0000000  0 10G17G15G30G29G26G10G18G 6G16G21
  23198758.228   -10753320.96143  -8363605.25542  23198758.811    23198755.600
  24038864.287    -8494594.99643  -6607509.39242  24038865.042    24038863.017
  23198205.198    -7755250.07243  -5879712.30842  23198207.047    23198203.370
  23036139.490   -13112851.70843 -10191848.86142  23036141.202    23036136.988
  22391884.958   -16990783.66943 -13235862.93842  22391886.766    22391883.036
  23828141.095    -4988361.09643  -3848227.20342  23828141.842    23828138.632
  21843675.159   -19782116.90643 -15366685.54842  21843676.401    21843672.111
  20331151.553   -28501348.56644 -22199679.29442  20331152.971    20331148.812
  23518212.588   -11829599.60143  -8878057.15442  23518213.693    23518209.415
  20992405.827   -25352640.32044 -19715368.99942  20992406.809    20992401.508
 04  1  1  2 40 30.0000000  0 10G17G15G30G29G26G10G18G 6G16G21
  23211615.510   -10685755.52043  -8310956.85642  23211616.114    23211612.908
  24024138.372    -8571979.64343  -6667809.02842  24024139.128    24024137.206
  23217869.777    -7651912.28743  -5799189.39342  23217871.594    23217867.982
  23033399.949   -13127248.01743 -10203066.74042  23033401.630    23033397.445
  22381606.013   -17044799.49043 -13277953.13542  22381607.811    22381604.123
  23847983.191    -4884089.88343  -3766976.90742  23847984.028    23847980.816
  21828264.485   -19863100.45643 -15429789.56242  21828265.722    21828261.454
  20333371.436   -28489683.00244 -22190589.24342  20333372.850    20333368.698
  23507892.305   -11883832.80543  -8920316.75542  23507893.394    23507889.125
  20986674.091   -25382760.70244 -19738839.40742  20986675.065    20986669.762
 04  1  1  2 41  0.0000000  0 10G17G15G30G29G26G10G18G 6G16G21
  23224484.212   -10618129.73943  -8258261.45442  23224484.881    23224481.641
  24009428.616    -8649279.02443  -6728042.17842  24009429.421    24009427.574
  23237551.083    -7548486.58943  -5718597.96542  23237552.884    23237549.272
  23030757.490   -13141134.20743 -10213887.13242  23030759.188    23030754.946
  22371419.409   -17098330.28343 -13319665.40342  22371421.219    22371417.500
  23867851.011    -4779683.65543  -3685621.41642  23867851.861    23867848.680
  21812920.764   -19943731.95443 -15492619.26642  21812921.986    21812917.723
  20335675.188   -28477576.77844 -22181155.82142  20335676.601    20335672.438
  23497663.886   -11937583.18543  -8962200.13542  23497664.971    23497660.731
  20980980.707   -25412679.43844 -19762152.68342  20980981.692    20980976.391
 04  1  1  2 41 30.0000000  0 10G17G15G30G29G26G10G18G 6G16G21
  23237365.658   -10550437.51143  -8205514.26142  23237366.255    23237363.035
  23994736.291    -8726486.73043  -6788203.91542  23994737.146    23994735.344
  23257249.721    -7444969.52943  -5637935.31542  23257251.553    23257247.839
  23028213.542   -13154502.76343 -10224304.17942  23028215.232    23028210.985
  22361326.859   -17151366.49043 -13360992.26642  22361328.669    22361325.019
  23887745.242    -4675138.60443  -3604157.73842  23887746.114    23887742.988
  21797645.564   -20024003.35543 -15555168.36442  21797646.807    21797642.583
  20338064.162   -28465022.74144 -22171373.43742  20338065.545    20338061.405
  23487528.901   -11990842.54943  -9003700.89742  23487530.049    23487525.765
  20975326.923   -25442390.20044 -19785303.91042  20975327.909    20975322.606
 04  1  1  2 42  0.0000000  0 10G17G15G30G29G26G10G18G 6G16G21
  23250258.484   -10482684.90043  -8152720.01242  23250259.151    23250255.947
  23980060.327    -8803608.70343  -6848298.87042  23980061.197    23980059.418
  23276964.043    -7341369.85843  -5557208.33742  23276965.855    23276962.298
  23025767.151   -13167358.41443 -10234321.55142  23025768.871    23025764.622
  22351327.931   -17203911.24643 -13401936.20242  22351329.691    22351326.017
  23907664.303    -4570463.27343  -3522592.55542  23907665.136    23907662.009
  21782438.176   -20103918.66243 -15617440.00142  21782439.401    21782435.134
  20340537.314   -28452026.29044 -22161246.33842  20340538.694    20340534.542
  23477486.515   -12043615.14043  -9044822.36242  23477487.673    23477483.385
  20969711.555   -25471899.05844 -19808297.80942  20969712.550    20969707.216
 04  1  1  2 42 30.0000000  0 10G17G15G30G29G26G10G18G 6G16G21
  23263163.298   -10414869.48343  -8099876.83642  23263163.977    23263160.771
  23965401.326    -8880641.93643  -6908324.66642  23965402.162    23965400.274
  23296694.202    -7237687.66743  -5476417.03642  23296695.992    23296692.377
  23023419.194   -13179697.11343 -10243936.09442  23023420.890    23023416.639
  22341423.540   -17255958.75443 -13442492.66642  22341425.307    22341421.696
  23927608.283    -4465657.21543  -3440925.50842  23927609.104    23927605.943
  21767299.343   -20183473.42143 -15679430.66442  21767300.596    21767296.363
  20343095.357   -28438583.72144 -22150771.61242  20343096.718    20343092.557
  23467537.616   -12095896.67943  -9085561.18342  23467538.783    23467534.524
  20964135.155   -25501203.18244 -19831132.17042  20964136.146    20964130.809
 04  1  1  2 43  0.0000000  0 10G17G15G30G29G26G10G18G 6G16G21
  23276080.002   -10346991.95143  -8046985.26242  23276080.620    23276077.441
  23950759.075    -8957587.01643  -6968281.75142  23950759.959    23950758.042
  23316439.260    -7133926.32843  -5395564.05442  23316441.061    23316437.453
  23021169.710   -13191518.28943 -10253147.39442  23021171.351    23021167.107
  22331614.239   -17307506.77843 -13482659.91642  22331616.036    22331612.368
  23947576.445    -4360723.79143  -3359159.21742  23947577.294    23947574.142
  21752229.333   -20262666.67343 -15741139.66142  21752230.594    21752226.334
  20345738.263   -28424695.00844 -22139949.23242  20345739.667    20345735.497
  23457682.468   -12147685.89643  -9125916.38942  23457683.588    23457679.342
  20958597.523   -25530303.56744 -19853807.77742  20958598.523    20958593.160
 04  1  1  2 43 30.0000000  0 10G17G15G30G29G26G10G18G 6G16G21
  23289008.117   -10279054.29243  -7994046.82142  23289008.727    23289005.509
  23936133.229    -9034445.59843  -7028171.43342  23936134.078    23936132.295
  23336198.598    -7030090.36543  -5314652.94342  23336200.425    23336196.881
  23019018.533   -13202822.48043 -10261955.83042  23019020.228    23019015.949
  22321900.199   -17358554.20143 -13522437.09242  22321901.987    22321898.308
  23967568.172    -4255666.81543  -3277296.65642  23967568.974    23967565.865
  21737228.060   -20341498.68643 -15802567.17242  21737229.337    21737225.082
  20348465.920   -28410361.01644 -22128779.88642  20348467.326    20348463.164
  23447920.970   -12198982.84643  -9165887.99742  23447922.104    23447917.822
  20953098.405   -25559201.55444 -19876325.66342  20953099.416    20953094.039
 04  1  1  2 44  0.0000000  0 10G17G15G30G29G26G10G18G 6G16G21
  23301947.616   -10211056.83643  -7941061.79742  23301948.241    23301944.962
  23921523.930    -9111217.70443  -7087993.76042  23921524.756    23921522.909
  23355971.491    -6926182.83943  -5233686.05842  23355973.401    23355969.833
  23016965.959   -13213608.81543 -10270360.75442  23016967.655    23016963.310
  22312281.907   -17409098.30343 -13561822.06642  22312283.698    22312280.046
  23987582.822    -4150489.11643  -3195340.02242  23987583.568    23987580.483
  21722295.903   -20419967.58143 -15863711.74542  21722297.170    21722292.904
  20351278.425   -28395581.24644 -22117263.18542  20351279.807    20351275.654
  23438253.355   -12249786.28043  -9205475.06542  23438254.569    23438250.236
  20947637.652   -25587897.90244 -19898686.43242  20947638.670    20947633.269
 04  1  1  2 44 30.0000000  0 10G17G15G30G29G26G10G18G 6G16G21
  23314899.621   -10142993.70143  -7888025.58842  23314900.218    23314896.929
  23906932.307    -9187897.12943  -7147743.88442  23906933.121    23906931.079
  23375758.674    -6822200.49443  -5152660.86742  23375760.556    23375756.991
  23015013.278   -13223870.16143 -10278356.58442  23015014.995    23015010.654
  22302761.154   -17459130.27643 -13600807.99442  22302762.936    22302759.192
  24007621.097    -4045187.24143  -3113286.63142  24007621.794    24007618.817
  21707434.308   -20498065.68143 -15924567.35442  21707435.570    21707431.319
  20354177.023   -28380348.95044 -22105393.86342  20354178.419    20354174.267
  23428681.133   -12300088.45843  -9244671.52542  23428682.390    23428678.058
  20942216.552   -25616385.86644 -19920884.82842  20942217.558    20942212.173
 04  1  1  2 45  0.0000000  0 10G17G15G30G29G26G10G18G 6G16G21
  23327862.540   -10074873.04143  -7834944.55142  23327863.132    23327859.815
  23892356.732    -9264491.86643  -7207427.98642  23892357.578    23892355.512
  23395558.116    -6718154.11943  -5071585.78142  23395559.917    23395556.415
  23013159.224   -13233613.13143 -10285948.49342  23013160.930    23013156.643
  22293336.858   -17508655.02443 -13639398.66242  22293338.638    22293334.918
  24027681.097    -3939771.35343  -3031144.39242  24027681.731    24027678.832
  21692642.007   -20575799.71043 -15985139.26542  21692643.274    21692638.983
  20357160.401   -28364671.26144 -22093177.48242  20357161.795    20357157.639
  23419203.110   -12349895.62643  -9283482.28142  23419204.377    23419200.054
  20936833.502   -25644673.85444 -19942927.39842  20936834.512    20936829.137
 04  1  1  2 45 30.0000000  0 10G17G15G30G29G26G10G18G 6G16G21
  23340837.699   -10006688.21143  -7781813.51242  23340838.270    23340834.990
  23877798.519    -9340994.92943  -7267040.63542  23877799.519    23877797.406
  23415370.435    -6614039.56143  -4990457.57042  23415372.239    23415368.820
  23011405.320   -13242829.70843 -10293130.22842  23011407.042    23011402.809
  22284010.911   -17557663.02943 -13677586.67242  22284012.627    22284008.993
  24047763.500    -3834236.92043  -2948909.77842  24047764.361    24047761.381
  21677920.683   -20653160.61243 -16045420.43742  21677921.946    21677917.657
  20360229.946   -28348540.68644 -22080608.20342  20360231.354    20360227.194
  23409820.906   -12399199.36043  -9321900.74142  23409822.169    23409817.832
  20931489.786   -25672755.17244 -19964808.92542  20931490.793    20931485.429
 04  1  1  2 46  0.0000000  0 10G17G15G30G29G26G10G18G 6G16G21
  23353823.883    -9938445.37443  -7728637.28242  23353824.430    23353821.156
  23863256.779    -9417412.18543  -7326586.46542  23863257.738    23863255.528
  23435194.063    -6509865.81943  -4909283.23242  23435195.885    23435192.349
  23009750.655   -13251525.06643 -10299905.81142  23009752.373    23009748.156
  22274782.685   -17606157.55443 -13715374.57342  22274784.402    22274780.730
  24067867.017    -3728592.55343  -2866589.50342  24067867.767    24067864.777
  21663269.478   -20730153.09343 -16105414.53842  21663270.736    21663266.429
  20363384.697   -28331962.44344 -22067690.09342  20363386.092    20363381.909
  23400533.631   -12448004.16443  -9359930.42342  23400534.852    23400530.564
  20926184.260   -25700635.91344 -19986534.16042  20926185.247    20926179.891
 04  1  1  2 46 30.0000000  0 10G17G15G30G29G26G10G18G 6G16G21
  23366821.643    -9870141.72743  -7675413.65142  23366822.202    23366818.959
  23848731.898    -9493740.27543  -7386062.81542  23848732.886    23848730.605
  23455029.036    -6405632.36043  -4828062.36342  23455030.868    23455027.402
  23008195.942   -13259695.17843 -10306272.11542  23008197.610    23008193.391
  22265653.296   -17654132.53843 -13752757.63542  22265655.033    22265651.378
  24087991.543    -3622837.71343  -2784183.14442  24087992.240    24087989.265
  21648689.287   -20806772.43543 -16165117.86742  21648690.536    21648686.195
  20366625.300   -28314932.84444 -22054420.27542  20366626.728    20366622.528
  23391342.184   -12496305.30743  -9397567.63942  23391343.427    23391339.113
  20920917.501   -25728312.88044 -20008100.61342  20920918.490    20920913.124
 04  1  1  2 47  0.0000000  0 10G17G15G30G29G26G10G18G 6G16G21
  23379830.594    -9801779.21043  -7622144.16542  23379831.179    23379827.922
  23834223.603    -9569981.25043  -7445471.27042  23834224.572    23834222.366
  23474874.496    -6301343.99543  -4746798.72442  23474876.272    23474872.860
  23006741.002   -13267340.73343 -10312229.67142  23006742.669    23006738.465
  22256622.955   -17701587.15343 -13789735.22942  22256624.656    22256621.032
  24108136.353    -3516976.36243  -2701693.80442  24108136.989    24108134.020
  21634180.060   -20883018.77443 -16224530.56142  21634181.308    21634176.943
  20369951.618   -28297453.06144 -22040799.66642  20369953.024    20369948.818
  23382246.540   -12544103.24443  -9434812.75742  23382247.772    23382243.389
  20915689.203   -25755787.80244 -20029509.63042  20915690.177    20915684.798
 04  1  1  2 47 30.0000000  0 10G17G15G30G29G26G10G18G 6G16G21
  23392850.807    -9733357.54143  -7568828.57742  23392851.390    23392848.136
  23819732.182    -9646134.12043  -7504811.08342  23819733.132    23819730.928
  23494729.994    -6197002.75743  -4665493.87442  23494731.750    23494728.396
  23005386.222   -13274460.20943 -10317777.29642  23005387.871    23005383.661
  22247692.257   -17748518.04443 -13826304.72842  22247694.005    22247690.313
  24128300.932    -3411010.46543  -2619122.98542  24128301.610    24128298.645
  21619742.179   -20958890.11643 -16283651.04942  21619743.441    21619739.045
  20373363.803   -28279521.88644 -22026827.33142  20373365.198    20373361.024
  23373247.051   -12591395.89243  -9471664.13742  23373248.271    23373243.852
  20910499.425   -25783060.16944 -20050760.81042  20910500.403    20910495.024
 04  1  1  2 48  0.0000000  0 10G17G15G30G29G26G10G18G 6G16G21
  23405882.499    -9664875.80643  -7515466.20342  23405883.051    23405879.754
  23805257.604    -9722198.11443  -7564081.65342  23805258.596    23805256.299
  23514595.161    -6092610.74843  -4584149.44342  23514596.880    23514593.461
  23004131.871   -13281051.90143 -10322913.67542  23004133.507    23004129.268
  22238861.907   -17794921.76443 -13862463.44242  22238863.687    22238859.926
  24148485.242    -3304941.61043  -2536471.95342  24148485.890    24148482.861
  21605376.144   -21034383.95643 -16342477.37342  21605377.410    21605373.003
  20376862.182   -28261137.81444 -22012502.08642  20376863.584    20376859.392
  23364344.154   -12638180.80243  -9508119.87842  23364345.402    23364340.932
  20905348.349   -25810129.28944 -20071853.62042  20905349.308    20905343.929
 04  1  1  2 48 30.0000000  0 10G17G15G30G29G26G10G18G 6G16G21
  23418925.656    -9596333.58143  -7462056.66742  23418926.175    23418922.908
  23790800.015    -9798172.60343  -7623282.48642  23790801.027    23790798.711
  23534469.622    -5988170.18943  -4502767.20742  23534471.344    23534467.889
  23002978.248   -13287114.18743 -10327637.52042  23002979.911    23002975.612
  22230132.518   -17840795.06643 -13898208.84242  22230134.248    22230130.510
  24168688.710    -3198771.63543  -2453742.12642  24168689.360    24168686.327
  21591082.298   -21109498.42943 -16401008.07742  21591083.572    21591079.137
  20380446.901   -28242299.87744 -21997823.17342  20380448.308    20380444.120
  23355538.283   -12684456.03243  -9544178.47942  23355539.557    23355534.997
  20900236.056   -25836994.50244 -20092787.53442  20900237.042    20900231.638
 04  1  1  2 49  0.0000000  0 10G17G15G30G29G26G10G18G 6G16G21
  23431979.918    -9527733.10843  -7408601.77642  23431980.447    23431977.155
  23776359.302    -9874059.11043  -7682414.76142  23776360.322    23776357.932
  23554352.383    -5883685.64043  -4421350.68642  23554354.100    23554350.609
  23001925.219   -13292648.04343 -10331949.59642  23001926.876    23001922.574
  22221504.173   -17886137.26543 -13933540.39742  22221505.922    22221502.144
  24188910.596    -3092504.74543  -2370936.77142  24188911.392    24188908.219
  21576860.642   -21184233.77443 -16459243.36642  21576861.892    21576857.423
  20384117.797   -28223009.28744 -21982791.55242  20384119.192    20384115.000
  23346829.275   -12730222.06843  -9579840.29742  23346830.512    23346826.009
  20895162.181   -25863657.83044 -20113564.13442  20895163.169    20895157.761
 04  1  1  2 49 30.0000000  0 10G17G15G30G29G26G10G18G 6G16G21
  23445045.719    -9459071.83443  -7355099.47842  23445046.252    23445042.931
  23761935.673    -9949855.33443  -7741476.67442  23761936.705    23761934.366
  23574243.492    -5779157.43943  -4339900.14842  23574245.230    23574241.591
  23000973.305   -13297650.22143 -10335847.38742  23000974.986    23000970.659
  22212977.850   -17930943.03043 -13968453.94342  22212979.622    22212975.837
  24209151.102    -2986140.65843  -2288055.68042  24209151.839    24209148.753
  21562711.888   -21258585.82743 -16517179.98242  21562713.123    21562708.632
  20387875.391   -28203262.93944 -21967404.78242  20387876.804    20387872.611
  23338217.869   -12775474.97443  -9615102.27842  23338219.181    23338214.625
  20890127.160   -25890117.08444 -20134181.72342  20890128.118    20890122.721
 04  1  1  2 50  0.0000000  0 10G17G15G30G29G26G10G18G 6G16G21
  23458121.827    -9390356.51443  -7301555.07342  23458122.333    23458119.067
  23747528.090   -10025567.45043  -7800473.07242  23747529.113    23747526.652
  23594141.137    -5674594.71043  -4258422.69942  23594142.889    23594139.242
  23000121.601   -13302126.06443 -10339335.04242  23000123.247    23000118.918
  22204552.962   -17975216.13043 -14002952.42442  22204554.727    22204550.931
  24229408.411    -2879688.24943  -2205105.78042  24229409.120    24229405.876
  21548635.171   -21332559.34143 -16574821.64542  21548636.400    21548631.904
  20391718.629   -28183066.60844 -21951667.39042  20391720.044    20391715.846
  23329703.215   -12820219.72143  -9649968.28342  23329704.487    23329699.954
  20885129.769   -25916378.46944 -20154645.12142  20885130.729    20885125.326
 04  1  1  2 50 30.0000000  0 10G17G15G30G29G26G10G18G 6G16G21
  23471209.749    -9321579.00943  -7247962.20642  23471210.178    23471206.984
  23733138.196   -10101187.20443  -7859397.52442  23733139.142    23733136.561
  23614046.302    -5569992.09043  -4176914.17642  23614048.057    23614044.537
  22999371.631   -13306066.90243 -10342405.80542  22999373.363    22999369.037
  22196231.436   -18018945.92143 -14037027.54542  22196233.231    22196229.420
  24249683.601    -2773141.67443  -2122082.47942  24249684.207    24249681.051
  21534632.292   -21406144.85743 -16632160.96542  21534633.507    21534628.989
  20395649.143   -28162411.74444 -21935572.69842  20395650.529    20395646.355
  23321287.113   -12864446.82743  -9684430.94542  23321288.340    23321283.809
  20880171.563   -25942433.88644 -20174948.02842  20880172.526    20880167.129
 04  1  1  2 51  0.0000000  0 10G17G15G30G29G26G10G18G 6G16G21
  23484308.266    -9252746.06143  -7194326.15442  23484308.703    23484305.459
  23718764.501   -10176721.13143  -7918255.06042  23718765.412    23718762.939
  23633957.322    -5465359.07943  -4095381.97842  23633959.047    23633955.483
  22998722.460   -13309478.26543 -10345063.99942  22998724.185    22998719.854
  22188012.519   -18062136.44043 -14070682.44842  22188014.339    22188010.463
  24269974.890    -2666510.13943  -2038992.98342  24269975.541    24269972.375
  21520702.202   -21479347.69543 -16689202.10242  21520703.444    21520698.885
  20399665.759   -28141304.33544 -21919125.37342  20399667.146    20399662.967
  23312968.438   -12908161.62343  -9718494.39642  23312969.688    23312965.115
  20875251.325   -25968289.82744 -20195095.50442  20875252.279    20875246.890
 04  1  1  2 51 30.0000000  0 10G17G15G30G29G26G10G18G 6G16G21
  23497418.349    -9183852.02843  -7140642.49242  23497418.845    23497415.542
  23704408.306   -10252163.16743  -7977040.98842  23704409.155    23704406.737
  23653874.720    -5360692.32643  -4013823.48442  23653876.482    23653872.826
  22998175.244   -13312353.52643 -10347304.44742  22998177.029    22998172.644
  22179897.909   -18104779.11843 -14103910.47642  22179899.724    22179895.834
  24290283.108    -2559789.79943  -1955834.31242  24290283.819    24290280.570
  21506846.425   -21552160.03343 -16745938.95442  21506847.672    21506843.102
  20403769.699   -28119737.87144 -21902320.33242  20403771.109    20403766.932
  23304748.718   -12951356.53943  -9752152.74942  23304749.951    23304745.372
  20870370.176   -25993940.37844 -20215082.93242  20870371.143    20870365.737
 04  1  1  2 52  0.0000000  0 10G17G15G30G29G26G10G18G 6G16G21
  23510538.898    -9114903.14543  -7086916.08342  23510539.393    23510536.070
  23690068.459   -10327519.87243  -8035760.47342  23690069.254    23690066.699
  23673796.781    -5256001.19543  -3932246.00142  23673798.519    23673795.008
  22997729.097   -13314698.17043 -10349131.43042  22997730.892    22997726.462
  22171886.722   -18146877.87843 -14136714.66242  22171888.549    22171884.641
  24310606.478    -2452989.57143  -1872613.37142  24310607.294    24310603.996
  21493064.002   -21624587.03343 -16802375.53042  21493065.250    21493060.641
  20407959.878   -28097718.46244 -21885162.35942  20407961.261    20407957.080
  23296626.899   -12994036.86743  -9785410.13042  23296628.150    23296623.536
  20865526.897   -26019391.97544 -20234915.33942  20865527.848    20865522.446
 04  1  1  2 52 30.0000000  0 10G17G15G30G29G26G10G18G 6G16G21
  23523670.773    -9045894.77843  -7033143.35342  23523671.287    23523667.928
  23675745.746   -10402786.11743  -8094409.46342  23675746.484    23675743.983
  23693724.002    -5151283.13143  -3850647.51642  23693725.732    23693722.227
  22997385.009   -13316506.55743 -10350540.55342  22997386.746    22997382.361
  22163980.534   -18188425.14643 -14169089.12242  22163982.391    22163978.437
  24330945.598    -2346106.57343  -1789327.91042  24330946.475    24330943.190
  21479356.138   -21696622.14543 -16858506.73542  21479357.422    21479352.787
  20412237.288   -28075240.49544 -21867647.06942  20412238.664    20412234.506
  23288604.185   -13036196.27643  -9818261.59542  23288605.428    23288600.830
  20860722.394   -26044639.74244 -20254588.91342  20860723.363    20860717.945
 04  1  1  2 53  0.0000000  0 10G17G15G30G29G26G10G18G 6G16G21
  23536812.907    -8976832.36643  -6979328.49942  23536813.400    23536810.106
  23661439.193   -10477966.89443  -8152991.80942  23661439.950    23661437.623
  23713654.796    -5046546.42343  -3769034.49942  23713656.527    23713652.851
  22997141.995   -13317783.38943 -10351535.47942  22997143.718    22997139.361
  22156178.747   -18229423.83043 -14201036.11542  22156180.563    22156176.589
  24351299.057    -2239148.51343  -1705984.00642  24351299.931    24351296.618
  21465722.105   -21768269.35343 -16914335.68442  21465723.370    21465718.730
  20416601.032   -28052308.91044 -21849778.30942  20416602.409    20416598.249
  23280679.880   -13077838.89943  -9850710.37042  23280681.076    23280676.464
  20855955.650   -26069689.01744 -20274107.81542  20855956.613    20855951.200
 04  1  1  2 53 30.0000000  0 10G17G15G30G29G26G10G18G 6G16G21
  23549967.065    -8907707.02443  -6925464.61342  23549967.543    23549964.192
  23647150.754   -10553053.27743  -8211500.65742  23647151.476    23647149.069
  23733590.221    -4941784.93643  -3687402.19342  23733591.981    23733588.374
  22997002.012   -13318519.14543 -10352108.77542  22997003.678    22996999.296
  22148483.458   -18269862.63843 -14232546.83742  22148485.289    22148481.297
  24371668.088    -2132108.71643  -1622576.36542  24371668.949    24371665.622
  21452163.758   -21839518.75943 -16969854.67042  21452165.025    21452160.362
  20421052.865   -28028914.33344 -21831548.77042  20421054.250    20421050.099
  23272855.764   -13118954.67043  -9882748.62142  23272856.970    23272852.332
  20851228.373   -26094530.91444 -20293465.11742  20851229.351    20851223.924
 04  1  1  2 54  0.0000000  0 10G17G15G30G29G26G10G18G 6G16G21
  23563131.120    -8838529.89643  -6871560.37942  23563131.538    23563128.216
  23632878.110   -10628056.21843  -8269944.47942  23632878.795    23632876.405
  23753527.826    -4837012.28243  -3605761.18942  23753529.621    23753526.014
  22996963.044   -13318724.02443 -10352268.41642  22996964.704    22996960.324
  22140893.109   -18309750.10043 -14263627.95642  22140894.925    22140890.918
  24392050.136    -2025000.71043  -1539115.61042  24392050.932    24392047.519
  21438679.385   -21910379.47943 -17025070.79242  21438680.655    21438675.970
  20425590.786   -28005067.37244 -21812966.72042  20425592.178    20425588.022
  23265130.123   -13159553.20043  -9914383.82142  23265131.312    23265126.637
  20846538.484   -26119176.42244 -20312669.40342  20846539.449    20846534.026
 04  1  1  2 54 30.0000000  0 10G17G15G30G29G26G10G18G 6G16G21
  23576306.566    -8769292.50843  -6817609.18142  23576306.986    23576303.738
  23618623.038   -10702967.00043  -8328316.44842  23618623.714    23618621.405
  23773468.666    -4732222.67743  -3524106.95542  23773470.492    23773466.889
  22997026.909   -13318388.69043 -10352007.10542  22997028.514    22997024.136
  22133409.740   -18349075.11043 -14294270.78342  22133411.567    22133407.595
  24412446.339    -1917818.04743  -1455596.64842  24412447.126    24412443.764
  21425270.873   -21980841.36443 -17079976.11142  21425272.161    21425267.517
  20430216.568   -27980758.82344 -21794024.99842  20430217.951    20430213.773
  23257504.839   -13199624.44043  -9945608.12742  23257506.031    23257501.323
  20841887.594   -26143616.91844 -20331713.93642  20841888.563    20841883.127
 04  1  1  2 55  0.0000000  0 10G17G15G30G29G26G10G18G 6G16G21
  23589492.837    -8699998.26943  -6763613.68042  23589493.197    23589490.006
  23604384.953   -10777789.03343  -8386619.29342  23604385.627    23604383.224
  23793411.478    -4627422.25443  -3442444.29742  23793413.301    23793409.722
  22997192.944   -13317516.04143 -10351327.10242  22997194.545    22997190.211
  22126033.251   -18387838.74043 -14324476.17442  22126035.055    22126031.075
  24432855.593    -1810566.66843  -1372024.14442  24432856.467    24432853.035
  21411937.799   -22050906.89943 -17134572.59542  21411939.078    21411934.438
  20434929.561   -27955991.92644 -21774726.12242  20434930.937    20434926.759
  23249979.386   -13239170.92243  -9976423.55842  23249980.556    23249975.857
  20837275.053   -26167855.82044 -20350601.37842  20837276.023    20837270.621
 04  1  1  2 55 30.0000000  0 10G17G15G30G29G26G10G18G 6G16G21
  23602689.063    -8630651.87643  -6709577.54242  23602689.408    23602686.197
  23590162.838   -10852526.40043  -8444856.14942  23590163.441    23590161.013
  23813355.118    -4522617.98543  -3360778.63342  23813356.899    23813353.361
  22997460.575   -13316109.94843 -10350231.43542  22997462.113    22997457.725
  22118763.233   -18426042.84643 -14354245.57342  22118765.026    22118761.048
  24453276.785    -1703252.67443  -1288402.85542  24453277.608    24453274.241
  21398679.640   -22120578.85743 -17188862.40742  21398680.904    21398676.264
  20439729.055   -27930770.48244 -21755073.05642  20439730.430    20439726.249
  23242553.217   -13278195.64643 -10006832.40742  23242554.353    23242549.731
  20832700.117   -26191897.32244 -20369335.00342  20832701.073    20832695.653
 04  1  1  2 56  0.0000000  0 10G17G15G30G29G26G10G18G 6G16G21
  23615896.738    -8561245.18943  -6655494.41542  23615897.060    23615893.820
  23575958.417   -10927171.16643  -8503020.84342  23575958.987    23575956.566
  23833300.434    -4417804.71243  -3279105.98842  23833302.213    23833298.751
  22997831.263   -13314161.81143 -10348713.40242  22997832.803    22997828.416
  22111601.586   -18463677.34643 -14383571.12742  22111603.379    22111599.390
  24473710.935    -1595870.62343  -1204728.54442  24473711.708    24473708.429
  21385498.117   -22189847.89443 -17242838.25242  21385499.392    21385494.773
  20444616.602   -27905086.19744 -21735059.33542  20444617.984    20444613.813
  23235228.057   -13316689.56943 -10036827.64842  23235229.185    23235224.577
  20828164.188   -26215733.71244 -20387908.80442  20828165.139    20828159.722
 04  1  1  2 56 30.0000000  0 10G17G15G30G29G26G10G18G 6G16G21
  23629115.371    -8491780.92843  -6601366.43942  23629115.643    23629112.419
  23561771.064   -11001725.75743  -8561115.27142  23561771.689    23561769.327
  23853246.434    -4312987.74143  -3197430.41842  23853248.208    23853244.731
  22998304.767   -13311673.65943 -10346774.57542  22998306.276    22998301.929
  22104548.316   -18500742.28543 -14412452.86042  22104550.127    22104546.135
  24494157.130    -1488425.32143  -1121004.94542  24494157.876    24494154.638
  21372393.032   -22258715.46143 -17296501.26442  21372394.286    21372389.680
  20449591.773   -27878941.43244 -21714686.80042  20449593.171    20449588.991
  23228003.620   -13354654.24543 -10066410.48842  23228004.736    23228000.129
  20823666.808   -26239367.55544 -20406324.77942  20823667.754    20823662.344
 04  1  1  2 57  0.0000000  0 10G17G15G30G29G26G10G18G 6G16G21
  23642343.694    -8422265.67543  -6547198.71942  23642343.934    23642340.753
  23547599.740   -11076196.25143  -8619144.17442  23547600.333    23547597.951
  23873191.451    -4208175.85343  -3115758.83942  23873193.242    23873189.742
  22998879.871   -13308651.14943 -10344419.36542  22998881.461    22998877.045
  22097602.691   -18537241.75143 -14440893.97542  22097604.495    22097600.476
  24514613.736    -1380925.47243  -1037238.86342  24514614.322    24514611.111
  21359363.405   -22327186.64743 -17349855.41142  21359364.631    21359360.024
  20454653.492   -27852342.08144 -21693960.04342  20454654.846    20454650.685
  23220878.869   -13392094.91343 -10095585.01742  23220880.025    23220875.406
  20819206.809   -26262804.93544 -20424587.66842  20819207.758    20819202.356
 04  1  1  2 57 30.0000000  0 10G17G15G30G29G26G10G18G 6G16G21
  23655583.774    -8352688.43143  -6492982.68142  23655584.099    23655580.892
  23533446.555   -11150571.90743  -8677099.19042  23533447.184    23533444.656
  23893137.076    -4103361.27543  -3034085.13142  23893138.845    23893135.260
  22999558.862   -13305083.12243 -10341639.07542  22999560.409    22999556.035
  22090767.118   -18573162.79843 -14468884.37242  22090768.864    22090764.881
  24535082.270    -1273362.41743   -953423.47942  24535082.873    24535079.658
  21346411.512   -22395249.17543 -17402891.12042  21346412.731    21346408.114
  20459803.811   -27825277.01144 -21672870.37942  20459805.174    20459800.996
  23213856.168   -13428999.38443 -10124341.72742  23213857.316    23213852.690
  20814786.257   -26286035.11244 -20442689.09442  20814787.211    20814781.796
 04  1  1  2 58  0.0000000  0 10G17G15G30G29G26G10G18G 6G16G21
  23668833.654    -8283060.03743  -6438726.81042  23668833.969    23668830.817
  23519309.249   -11224863.39043  -8734988.58642  23519309.946    23519307.499
  23913080.546    -3998557.19543  -2952419.64842  23913082.343    23913078.814
  23000339.658   -13300979.73143 -10338441.63442  23000341.237    23000336.802
  22084040.071   -18608513.67143 -14496430.48342  22084041.788    22084037.830
  24555560.440    -1165748.90143   -869568.80242  24555561.116    24555557.848
  21333535.609   -22462912.32443 -17455615.62042  21333536.838    21333532.214
  20465040.780   -27797756.57444 -21651425.88742  20465042.154    20465037.960
  23206933.583   -13465377.64343 -10152688.40642  23206934.764    23206930.143
  20810403.029   -26309069.14544 -20460637.68642  20810403.964    20810398.576
 04  1  1  2 58 30.0000000  0 10G17G15G30G29G26G10G18G 6G16G21
  23682094.830    -8213372.24943  -6384424.64542  23682095.079    23682092.009
  23505189.724   -11299061.99843  -8792805.62642  23505190.382    23505187.933
  23933023.142    -3893757.68943  -2870757.68542  23933025.012    23933021.428
  23001224.122   -13296332.01743 -10334820.02442  23001225.679    23001221.273
  22077423.526   -18643283.74843 -14523524.01742  22077425.239    22077421.315
  24576049.324    -1058078.82843   -785670.01642  24576050.060    24576046.783
  21320737.572   -22530166.29943 -17508021.28642  21320738.783    21320734.174
  20470366.062   -27769772.03444 -21629619.75742  20470367.416    20470363.246
  23200112.966   -13501220.08143 -10180617.55542  23200114.116    23200109.528
  20806058.848   -26331897.84444 -20478426.27542  20806059.813    20806054.416
 04  1  1  2 59  0.0000000  0 10G17G15G30G29G26G10G18G 6G16G21
  23695366.092    -8143631.33143  -6330081.10542  23695366.282    23695363.266
  23491086.674   -11373174.00343  -8850555.20342  23491087.332    23491084.796
  23952963.202    -3788972.04143  -2789106.56042  23952965.009    23952961.602
  23002210.931   -13291146.12643 -10330779.06042  23002212.474    23002208.076
  22070916.743   -18677477.28743 -14550168.31442  22070918.458    22070914.443
  24596547.435     -950360.65943   -701733.79342  24596548.167    24596544.804
  21308016.452   -22597016.25843 -17560112.13942  21308017.658    21308013.017
  20475778.506   -27741329.51844 -21607456.76542  20475779.848    20475775.676
  23193393.346   -13536531.85843 -10208133.21042  23193394.491    23193389.878
  20801752.469   -26354527.93044 -20496060.10142  20801753.442    20801748.046
 04  1  1  2 59 30.0000000  0 10G17G15G30G29G26G10G18G 6G16G21
  23708648.046    -8073834.30843  -6275693.84042  23708648.214    23708645.117
  23477000.632   -11447196.15643  -8908234.73942  23477001.309    23476998.874
  23972900.693    -3684199.94043  -2707465.95642  23972902.480    23972899.147
  23003300.883   -13285418.54743 -10326316.00042  23003302.422    23003298.024
  22064520.626   -18711089.00443 -14576359.24542  22064522.345    22064518.308
  24617054.785     -842593.85843   -617759.67842  24617055.564    24617052.165
  21295372.942   -22663458.06243 -17611884.94442  21295374.149    21295369.538
  20481278.698   -27712425.79444 -21584934.38742  20481280.051    20481275.884
  23186775.474   -13571309.04843 -10235232.29942  23186776.583    23186771.973
  20797484.459   -26376956.28744 -20513536.72242  20797485.432    20797480.051
 04  1  1  3  0  0.0000000  0 10G17G15G30G29G26G10G18G 6G16G21
  23721940.756    -8003980.80043  -6221262.58142  23721940.914    23721937.848
  23462931.886   -11521128.03243  -8965843.96142  23462932.523    23462930.026
  23992835.165    -3579443.43843  -2625837.53842  23992836.951    23992833.693
  23004494.050   -13279148.35443 -10321430.13142  23004495.624    23004491.173
  22058235.704   -18744116.15243 -14602094.66642  22058237.471    22058233.432
  24637570.995     -734780.10543   -533748.95242  24637571.819    24637568.451
  21282807.420   -22729490.07943 -17663338.44242  21282808.645    21282804.023
  20486866.798   -27683060.14944 -21562052.07042  20486868.164    20486863.969
  23180259.558   -13605550.29043 -10261913.76742  23180260.728    23180256.039
  20793255.009   -26399182.29244 -20530855.68042  20793255.956    20793250.560
 04  1  1  3  0 30.0000000  0 10G17G15G30G29G26G10G18G 6G16G21
  23735243.531    -7934074.03543  -6166789.77342  23735243.677    23735240.662
  23448879.650   -11594972.62443  -9023385.15042  23448880.305    23448877.792
  24012765.662    -3474708.22943  -2544225.69442  24012767.486    24012764.088
  23005790.009   -13272338.12343 -10316123.45442  23005791.549    23005787.137
  22052061.854   -18776559.81643 -14627375.41642  22052063.590    22052059.569
  24658095.314     -626924.02943   -449705.25342  24658096.075    24658092.853
  21270319.581   -22795114.12043 -17714474.03642  21270320.798    21270316.150
  20492542.246   -27653235.47844 -21538812.07642  20492543.606    20492539.425
  23173845.278   -13639257.60843 -10288179.19842  23173846.371    23173841.760
  20789063.412   -26421209.29544 -20548019.58142  20789064.347    20789058.934
 04  1  1  3  1  0.0000000  0 10G17G15G30G29G26G10G18G 6G16G21
  23748557.107    -7864110.69043  -6112272.87142  23748557.243    23748554.242
  23434844.678   -11668726.64343  -9080855.75642  23434845.370    23434842.821
  24032692.170    -3369993.68743  -2462629.93742  24032693.936    24032690.536
  23007189.332   -13264984.41743 -10310393.27642  23007190.891    23007186.505
  22046000.082   -18808414.58043 -14652197.28642  22046001.829    22045997.768
  24678627.840     -519024.73243   -365627.89442  24678628.763    24678625.298
  21257910.229   -22860325.61643 -17765288.16442  21257911.455    21257906.782
  20498305.732   -27622948.16144 -21515211.57642  20498307.090    20498302.915
  23167533.392   -13672426.72043 -10314025.23242  23167534.498    23167529.859
  20784910.340   -26443033.81544 -20565025.69742  20784911.266    20784905.857
 04  1  1  3  1 30.0000000  0 10G17G15G30G29G26G10G18G 6G16G21
  23761881.683    -7794089.90243  -6057711.26042  23761881.751    23761878.727
  23420827.132   -11742389.05643  -9138255.00042  23420827.907    23420825.254
  24052614.395    -3265301.50743  -2381051.64642  24052616.194    24052612.768
  23008692.362   -13257086.18743 -10304238.83142  23008693.901    23008689.518
  22040050.982   -18839677.32143 -14676557.84742  22040052.707    22040048.642
  24699168.400     -411083.63343   -281517.97042  24699169.273    24699165.808
  21245579.827   -22925122.33143 -17815779.09242  21245581.032    21245576.347
  20504157.466   -27592197.09844 -21491249.72142  20504158.838    20504154.647
  23161324.317   -13705055.71943 -10339450.40342  23161325.429    23161320.727
  20780795.987   -26464654.84744 -20581873.24242  20780796.906    20780791.504
 04  1  1  3  2  0.0000000  0  9G17G15G30G29G26G18G 6G16G21
  23775216.601    -7724014.48643  -6003107.07242  23775216.760    23775213.654
  23406826.437   -11815962.56043  -9195584.93842  23406827.266    23406824.611
  24072531.420    -3160637.47343  -2299495.26442  24072533.207    24072529.791
  23010298.437   -13248645.75243 -10297661.85542  23010300.072    23010295.679
  22034214.289   -18870349.12143 -14700457.93942  22034216.052    22034211.990
  21233327.946   -22989506.16243 -17865948.28842  21233329.171    21233324.482
  20510096.910   -27560985.09644 -21466928.68442  20510098.306    20510094.091
  23155217.596   -13737146.78943 -10364456.41542  23155218.735    23155213.944
  20776719.810   -26486075.37544 -20598564.55542  20776720.704    20776715.316
 04  1  1  3  2 30.0000000  0  9G17G15G30G29G26G18G 6G16G21
  23788561.580    -7653886.02443  -5948461.54642  23788561.780    23788558.669
  23392842.495   -11889448.40543  -9252846.59142  23392843.389    23392840.697
  24092442.212    -3056005.49443  -2217963.85442  24092444.062    24092440.574
  23012007.575   -13239664.23043 -10290663.24142  23012009.230    23012004.828
  22028490.228   -18900429.26643 -14723896.98542  22028491.970    22028487.921
  21221154.604   -23053477.34243 -17915795.93942  21221155.830    21221151.157
  20516123.851   -27529313.37344 -21442249.42642  20516125.243    20516121.037
  23149213.159   -13768700.40043 -10389043.61842  23149214.282    23149209.485
  20772681.555   -26507296.52744 -20615100.51442  20772682.459    20772677.034
 04  1  1  3  3  0.0000000  0  9G17G15G30G29G26G18G 6G16G21
  23801917.485    -7583700.46643  -5893771.54442  23801917.700    23801914.470
  23378875.946   -11962842.55543  -9310036.75742  23378876.875    23378874.219
  24112347.056    -2951404.07743  -2136456.30742  24112348.990    24112345.448
  23013820.380   -13230137.60643 -10283239.90442  23013822.019    23013817.680
  22022879.912   -18929911.74843 -14746870.33542  22022881.611    22022877.573
  21209060.827   -23117030.60143 -17965317.94442  21209062.021    21209057.341
  20522239.059   -27497177.72744 -21417208.67442  20522240.456    20522236.269
  23143311.852   -13799711.73243 -10413208.28142  23143313.021    23143308.214
  20768681.980   -26528314.37044 -20631478.05142  20768682.903    20768677.460
 04  1  1  3  3 30.0000000  0  9G17G15G30G29G26G18G 6G16G21
  23815283.131    -7513464.15343  -5839041.97542  23815283.265    23815280.084
  23364925.779   -12036151.15643  -9367160.29442  23364926.702    23364923.972
  24132244.602    -2846842.15743  -2054979.45442  24132246.488    24132242.907
  23015735.796   -13220072.07443 -10275396.61642  23015737.447    23015733.037
  22017382.485   -18958800.97443 -14769381.40142  22017384.153    22017380.100
  21197045.534   -23180171.32943 -18014518.49442  21197046.721    21197042.032
  20528441.355   -27464584.48244 -21391811.34942  20528442.744    20528438.567
  23137512.668   -13830186.36743 -10436954.73642  23137513.862    23137509.054
  20764719.936   -26549135.06444 -20647701.96242  20764720.862    20764715.408
 04  1  1  3  4  0.0000000  0  9G17G15G30G29G26G18G 6G16G21
  23828659.348    -7443171.36743  -5784268.37942  23828659.578    23828656.435
  23350993.017   -12109368.14943  -9424212.44042  23350993.958    23350991.184
  24152135.217    -2742316.60843  -1973530.97742  24152137.044    24152133.565
  23017754.947   -13209461.26543 -10267128.46142  23017756.568    23017752.195
  22011999.398   -18987089.07443 -14791424.05342  22012001.071    22011997.046
  21185110.087   -23242892.44543 -18063392.07342  21185111.270    21185106.571
  20534731.897   -27431527.62044 -21366052.76942  20534733.263    20534729.088
  23131816.909   -13860117.70743 -10460277.84742  23131818.070    23131813.284
  20760796.513   -26569752.77244 -20663767.70442  20760797.431    20760791.989
 04  1  1  3  4 30.0000000  0  9G17G15G30G29G26G18G 6G16G21
  23842045.656    -7372825.91443  -5729453.79942  23842045.827    23842042.701
  23337076.942   -12182497.38843  -9481196.20142  23337077.895    23337075.097
  24172017.648    -2637833.74143  -1892115.75442  24172019.427    24172016.053
  23019877.151   -13198308.92043 -10258438.31942  23019878.787    23019874.404
  22006730.416   -19014777.80743 -14812999.67342  22006732.099    22006728.014
  21173254.007   -23305196.52843 -18111940.69442  21173255.183    21173250.466
  20541109.927   -27398010.83144 -21339935.79342  20541111.309    20541107.133
  23126223.988   -13889508.54643 -10483179.77742  23126225.178    23126220.341
  20756911.062   -26590170.86244 -20679677.89342  20756911.983    20756906.554
 04  1  1  3  5  0.0000000  0  9G17G15G30G29G26G18G 6G16G21
  23855442.729    -7302423.77143  -5674595.02342  23855442.960    23855439.771
  23323178.310   -12255534.95543  -9538108.54542  23323179.292    23323176.457
  24191892.120    -2533392.29143  -1810732.81142  24191893.856    24191890.603
  23022103.162   -13186611.06643 -10249323.10142  23022104.808    23022100.384
  22001576.554   -19041861.57143 -14834103.89542  22001578.222    22001574.128
  21161478.234   -23367078.60843 -18160160.48242  21161479.420    21161474.676
  20547576.238   -27364030.20844 -21313457.39842  20547577.624    20547573.433
  23120734.772   -13918354.36343 -10505657.02942  23120735.970    23120731.155
  20753064.261   -26610385.93444 -20695429.89842  20753065.188    20753059.759
 04  1  1  3  5 30.0000000  0  9G17G15G30G29G26G18G 6G16G21
  23868850.348    -7231965.80443  -5619692.70242  23868850.745    23868847.518
  23309297.041   -12328481.41243  -9594949.89242  23309298.021    23309295.140
  24211758.188    -2428995.66943  -1729384.78742  24211759.934    24211756.672
  23024432.901   -13174368.38443 -10239783.33642  23024434.499    23024430.077
  21996537.960   -19068339.37443 -14854735.92242  21996539.622    21996535.542
  21149782.793   -23428538.57743 -18208051.35142  21149783.967    21149779.212
  20554130.659   -27329586.55244 -21286618.20642  20554132.041    20554127.838
  23115349.325   -13946654.98343 -10527709.44042  23115350.533    23115345.749
  20749256.016   -26630398.53944 -20711024.15042  20749256.901    20749251.472
 04  1  1  3  6  0.0000000  0  9G17G15G30G29G26G18G 6G16G21
  23882267.654    -7161457.29843  -5564751.05342  23882268.061    23882264.858
  23295432.226   -12401341.61243  -9651724.01042  23295433.163    23295430.291
  24231614.255    -2324651.70743  -1648077.80142  24231616.032    24231612.676
  23026865.254   -13161585.99743 -10229823.02542  23026866.899    23026862.495
  21991614.107   -19094214.45843 -14874898.31342  21991615.751    21991611.654
  21138166.890   -23489580.56543 -18255616.51742  21138168.050    21138163.281
  20560772.235   -27294684.91544 -21259422.13942  20560773.598    20560769.410
  23110066.727   -13974415.21043 -10549340.77642  23110067.916    23110063.090
  20745485.400   -26650213.63544 -20726464.48042  20745486.218    20745480.795
 04  1  1  3  6 30.0000000  0  9G17G15G30G29G26G18G 6G16G21
  23895695.973    -7090891.30243  -5509764.60142  23895696.321    23895693.118
  23281584.975   -12474109.08443  -9708425.87642  23281585.896    23281583.049
  24251461.091    -2220356.16543  -1566808.56942  24251462.875    24251459.540
  23029401.715   -13148257.11243 -10219436.88842  23029403.282    23029398.918
  21986806.573   -19119478.16343 -14894584.30042  21986808.224    21986804.103
  21126632.034   -23550196.51943 -18302849.70942  21126633.197    21126628.446
  20567502.224   -27259318.64644 -21231864.01942  20567503.594    20567499.396
  23104888.382   -14001627.55243 -10570545.19442  23104889.552    23104884.746
  20741753.562   -26669824.53044 -20741745.69142  20741754.381    20741748.967
 04  1  1  3  7  0.0000000  0  9G17G15G30G29G26G18G 6G16G21
  23909133.969    -7020274.25043  -5454738.33642  23909134.318    23909131.176
  23267754.336   -12546789.74343  -9765060.10642  23267755.189    23267752.357
  24271297.030    -2116117.87643  -1485583.93742  24271298.827    24271295.491
  23032040.908   -13134387.93143 -10208629.74842  23032042.499    23032038.093
  21982114.544   -19144135.07643 -14913797.46042  21982116.165    21982112.038
  21115177.229   -23610391.75643 -18349755.07042  21115178.415    21115173.646
  20574319.478   -27223493.80544 -21203948.56942  20574320.845    20574316.634
  23099813.305   -14028297.23843 -10591326.76442  23099814.434    23099809.671
  20738059.413   -26689237.37044 -20756872.58442  20738060.230    20738054.809
 04  1  1  3  7 30.0000000  0  9G17G15G30G29G26G18G 6G16G21
  23922582.831    -6949599.81943  -5399667.38242  23922583.188    23922580.103
  23253941.225   -12619377.45043  -9821621.89342  23253942.138    23253939.281
  24291122.743    -2011933.22543  -1404401.05042  24291124.560    24291121.177
  23034784.148   -13119972.14343 -10197396.65542  23034785.732    23034781.364
  21977539.423   -19168177.26443 -14932531.61142  21977541.072    21977536.925
  21103803.829   -23670159.37943 -18396327.22842  21103805.011    21103800.214
  20581225.150   -27187204.16944 -21175670.93942  20581226.529    20581222.341
  23094842.680   -14054417.97743 -10611680.57742  23094843.773    23094839.094
  20734404.146   -26708445.74144 -20771840.13542  20734405.008    20734399.569
 04  1  1  3  8  0.0000000  0  9G17G15G30G29G26G18G 6G16G21
  23936041.294    -6878875.01743  -5344557.17042  23936041.709    23936038.657
  23240144.688   -12691878.60343  -9878116.23942  23240145.614    23240142.700
  24310936.384    -1907811.55443  -1323267.28542  24310938.208    24310934.839
  23037630.093   -13105016.55343 -10185742.92742  23037631.718    23037627.303
  21973080.334   -19191609.80643 -14950790.71742  21973081.996    21973077.842
  21092510.691   -23729505.13044 -18442570.65442  21092511.880    21092507.088
  20588217.949   -27150456.77644 -21147036.61542  20588219.327    20588215.153
  23089975.401   -14079995.77043 -10631611.31042  23089976.460    23089971.764
  20730786.499   -26727456.50844 -20786653.70542  20730787.381    20730781.931
 04  1  1  3  8 30.0000000  0  9G17G15G30G29G26G18G 6G16G21
  23949510.573    -6808093.72843  -5289402.94242  23949510.897    23949507.895
  23226365.696   -12764287.27343  -9934538.52342  23226366.604    23226363.737
  24330738.708    -1803749.60543  -1242180.05442  24330740.487    24330737.106
  23040579.837   -13089515.49243 -10173664.16942  23040581.453    23040577.067
  21968738.747   -19214425.15043 -14968568.90242  21968740.365    21968736.226
  21081299.157   -23788422.19144 -18488480.03742  21081300.341    21081295.529
  20595298.986   -27113245.63644 -21118040.93642  20595300.385    20595296.214
  23085212.695   -14105024.08943 -10651113.88742  23085213.759    23085209.035
  20727207.617   -26746263.66944 -20801308.63642  20727208.479    20727203.038
 04  1  1  3  9  0.0000000  0  9G17G15G30G29G26G18G 6G16G21
  23962990.121    -6737258.23043  -5234206.48542  23962990.489    23962987.472
  23212603.974   -12836605.58443  -9990890.40742  23212604.804    23212601.918
  24350528.924    -1699752.00243  -1161142.97642  24350530.553    24350527.158
  23043632.972   -13073471.08543 -10161162.04542  23043634.591    23043630.246
  21964514.498   -19236623.69743 -14985866.44842  21964516.106    21964511.960
  21070169.032   -23846911.45843 -18534056.07742  21070170.203    21070165.387
  20602467.880   -27075572.96444 -21088685.61942  20602469.256    20602465.086
  23080554.239   -14129504.45043 -10670189.48342  23080555.325    23080550.555
  20723667.093   -26764869.18744 -20815806.44142  20723667.947    20723662.504
 04  1  1  3  9 30.0000000  0  9G17G15G30G29G26G18G 6G16G21
  23976480.353    -6666366.41743  -5178966.13642  23976480.770    23976477.704
  23198859.771   -12908831.23943 -10047170.07242  23198860.594    23198857.762
  24370306.722    -1595819.28443  -1080156.42842  24370308.363    24370304.882
  23046789.916   -13056881.30643 -10148234.92342  23046791.544    23046787.181
  21960408.268   -19258201.85443 -15002680.58442  21960409.891    21960405.758
  21059120.805   -23904970.25544 -18579296.68342  21059121.971    21059117.151
  20609724.933   -27037436.86544 -21058969.18942  20609726.313    20609722.140
  23076000.495   -14153434.31743 -10688836.12442  23076001.674    23075996.843
  20720165.369   -26783270.82144 -20830145.37142  20720166.244    20720160.785
 04  1  1  3 10  0.0000000  0  9G17G15G30G29G26G18G 6G16G21
  23989979.913    -6595425.63743  -5123687.65142  23989980.375    23989977.298
  23185131.875   -12980971.72843 -10103383.37542  23185132.669    23185129.833
  24390070.226    -1491961.51143   -999228.27742  24390071.890    24390068.306
  23050049.135   -13039753.83143 -10134888.84042  23050050.775    23050046.385
  21956418.973   -19279165.50343 -15019015.88142  21956420.629    21956416.469
  21048153.291   -23962604.91344 -18624206.79442  21048154.460    21048149.622
  20617068.753   -26998844.85544 -21028897.50342  20617070.125    20617065.981
  23071550.248   -14176820.70143 -10707059.26842  23071551.390    23071546.576
  20716700.994   -26801476.19344 -20844331.37842  20716701.880    20716696.433
 04  1  1  3 10 30.0000000  0  9G17G15G30G29G26G18G 6G16G21
  24003490.591    -6524426.78943  -5068363.92142  24003491.105    24003487.960
  23171421.884   -13053017.64543 -10159522.99142  23171422.678    23171419.898
  24409820.743    -1388171.89243   -918353.24542  24409822.489    24409818.698
  23053412.472   -13022079.43943 -10121116.59042  23053414.123    23053409.700
  21952548.741   -19299503.71243 -15034863.81842  21952550.374    21952546.192
  21037268.426   -24019805.18944 -18668778.42842  21037269.595    21037264.776
  20624501.051   -26959787.82544 -20998463.46642  20624502.439    20624498.287
  23067205.237   -14199653.85943 -10724851.33042  23067206.378    23067201.571
  20713275.749   -26819475.86444 -20858357.10242  20713276.636    20713271.206
 04  1  1  3 11  0.0000000  0  9G17G15G30G29G26G18G 6G16G21
  24017011.073    -6453376.17343  -5012999.83142  24017011.641    24017008.452
  23157728.844   -13124975.15043 -10215593.71142  23157729.541    23157726.768
  24429556.559    -1284459.20243   -837538.15542  24429558.324    24429554.552
  23056878.587   -13003864.72243 -10106923.29542  23056880.227    23056875.854
  21948796.611   -19319221.40843 -15050228.24542  21948798.212    21948794.012
  21026465.177   -24076576.62744 -18713015.90442  21026466.329    21026461.526
  20632020.624   -26920272.28144 -20967672.14842  20632021.993    20632017.849
  23062964.351   -14221939.70743 -10742216.91942  23062965.516    23062960.689
  20709888.492   -26837276.00344 -20872227.33642  20709889.379    20709883.974
 04  1  1  3 11 30.0000000  0  9G17G15G30G29G26G18G 6G16G21
  24030541.934    -6382270.96243  -4957593.20442  24030542.477    24030539.296
  23144053.037   -13196841.55643 -10271593.45842  23144053.692    23144050.994
  24449277.746    -1180823.52843   -756783.09142  24449279.605    24449275.753
  23060448.061   -12985107.27943 -10092307.10442  23060449.658    23060445.269
  21945163.380   -19338314.35643 -15065105.85042  21945164.968    21945160.744
  21015744.144   -24132915.94644 -18756916.66042  21015745.305    21015740.504
  20639627.898   -26880295.71244 -20936521.59042  20639629.267    20639625.156
  23058828.239   -14243675.09043 -10759153.56742  23058829.403    23058824.592
  20706539.689   -26854874.09944 -20885940.14342  20706540.554    20706535.181
 04  1  1  3 12  0.0000000  0  9G17G15G30G29G26G18G 6G16G21
  24044082.919    -6311112.74343  -4902145.29642  24044083.505    24044080.337
  23130394.392   -13268617.96743 -10327523.08142  23130395.027    23130392.300
  24468983.542    -1077268.54443   -676090.89342  24468985.423    24468981.630
  23064120.518   -12965808.54243 -10077269.11342  23064122.082    23064117.706
  21941649.025   -19356782.43543 -15079496.55742  21941650.595    21941646.377
  21005105.323   -24188823.23144 -18800480.76442  21005106.485    21005101.677
  20647322.654   -26839859.59544 -20905012.94542  20647324.008    20647319.894
  23054796.727   -14264860.87743 -10775661.96442  23054797.827    23054793.065
  20703229.205   -26872270.84744 -20899496.05942  20703230.074    20703224.684
 04  1  1  3 12 30.0000000  0  9G17G15G30G29G26G18G 6G16G21
  24057634.999    -6239896.07143  -4846651.82042  24057635.665    24057632.421
  23116753.867   -13340299.18543 -10383378.52442  23116754.471    23116751.768
  24488674.409     -973791.56243   -595459.46242  24488676.353    24488672.631
  23067896.855   -12945963.58343 -10061805.50842  23067898.434    23067894.059
  21938254.813   -19374618.94243 -15093395.12542  21938256.406    21938252.200
  20994549.849   -24244292.58544 -18843703.61942  20994551.008    20994546.217
  20655105.791   -26798959.01944 -20873142.38442  20655107.131    20655103.047
  23050870.793   -14285491.57443 -10791737.82442  23050871.937    23050867.210
  20699957.964   -26889461.23344 -20912891.15942  20699958.846    20699953.462
 04  1  1  3 13  0.0000000  0  9G17G15G30G29G26G18G 6G16G21
  24071195.901    -6168633.07343  -4791122.26042  24071196.588    24071193.406
  23103129.199   -13411897.04543 -10439169.00842  23103129.827    23103127.064
  24508347.760     -870407.32843   -514900.29242  24508349.627    24508345.956
  23071774.804   -12925584.84543 -10045925.96842  23071776.386    23071771.981
  21934978.758   -19391834.62343 -15106809.93142  21934980.378    21934976.130
  20984075.527   -24299335.47844 -18886594.16642  20984076.692    20984071.887
  20662974.985   -26757606.18644 -20840919.40542  20662976.326    20662972.248
  23047048.302   -14305578.96343 -10807390.32542  23047049.406    23047044.693
  20696723.704   -26906457.40744 -20926134.92542  20696724.589    20696719.198
 04  1  1  3 13 30.0000000  0  9G17G15G30G29G26G18G 6G16G21
  24084767.984    -6097311.14243  -4735546.74742  24084768.754    24084765.618
  23089522.785   -13483398.99743 -10494884.75742  23089523.389    23089520.646
  24528005.361     -767105.78343   -434405.55742  24528007.243    24528003.529
  23075756.650   -12904660.00343 -10029620.89142  23075758.264    23075753.843
  21931823.460   -19408415.64843 -15119730.19342  21931825.132    21931820.870
  20973684.877   -24353938.59744 -18929142.02842  20973686.056    20973681.252
  20670932.560   -26715788.96744 -20808334.58142  20670933.884    20670929.807
  23043331.669   -14325110.17443 -10822609.44642  23043332.757    23043328.032
  20693528.844   -26923246.59444 -20939217.41542  20693529.712    20693524.308
 04  1  1  3 14  0.0000000  0  9G17G15G30G29G26G18G 6G16G21
  24098349.857    -6025938.01443  -4679931.35142  24098350.564    24098347.586
  23075933.164   -13554812.56043 -10550531.64142  23075933.793    23075931.015
  24547645.220     -663897.07143   -353983.18642  24547647.182    24547643.562
  23079840.882   -12883196.96643 -10012896.43242  23079842.518    23079838.136
  21928787.792   -19424368.20143 -15132160.74642  21928789.452    21928785.182
  20963376.712   -24408108.45044 -18971352.28042  20963377.882    20963373.062
  20678976.967   -26673515.29644 -20775394.07342  20678978.325    20678974.247
  23039719.457   -14344092.40043 -10837400.78242  23039720.546    23039715.821
  20690371.893   -26939836.33744 -20952144.49542  20690372.787    20690367.384
 04  1  1  3 14 30.0000000  0  9G17G15G30G29G26G18G 6G16G21
  24111942.287    -5954509.59443  -4624272.83442  24111942.921    24111939.868
  23062361.130   -13626133.62443 -10606106.43442  23062361.780    23062359.000
  24567267.756     -560779.71543   -273631.99842  24567269.682    24567266.168
  23084028.256   -12861192.13843  -9995749.80242  23084029.864    23084025.520
  21925872.665   -19439687.14343 -15144097.56942  21925874.354    21925870.100
  20953151.816   -24461840.55744 -19013221.43342  20953152.978    20953148.173
  20687108.961   -26630781.48444 -20742095.02042  20687110.304    20687106.230
  23036212.470   -14362521.63843 -10851761.22242  23036213.573    23036208.861
  20687253.716   -26956222.42744 -20964912.87142  20687254.609    20687249.219
 04  1  1  3 15  0.0000000  0  9G17G15G30G29G26G18G 6G16G21
  24125545.443    -5883024.69143  -4568570.33742  24125546.181    24125542.988
  23048807.033   -13697360.98443 -10661608.23742  23048807.634    23048804.816
  24586872.579     -457754.81343   -193352.89342  24586874.591    24586871.255
  23088318.866   -12838644.73943  -9978180.39842  23088320.488    23088316.120
  21923078.669   -19454369.74843 -15155538.55342  21923080.316    21923076.078
  20943010.601   -24515133.01344 -19054748.00542  20943011.756    20943006.957
  20695328.752   -26587586.38744 -20708436.52742  20695330.080    20695326.004
  23032811.074   -14380396.20743 -10865689.45942  23032812.178    23032807.359
  20684174.569   -26972403.47744 -20977521.47542  20684175.442    20684170.049
 04  1  1  3 15 30.0000000  0  9G17G15G30G29G26G18G 6G16G21
  24139157.808    -5811491.35043  -4512830.12642  24139158.513    24139155.372
  23035269.248   -13768502.30143 -10717042.97942  23035269.892    23035267.002
  24606457.983     -354833.02543   -113154.08642  24606460.006    24606456.509
  23092711.112   -12815563.25543  -9960194.82242  23092712.720    23092708.344
  21920404.385   -19468422.90143 -15166489.03742  21920406.086    21920401.847
  20932951.657   -24567993.09444 -19095937.66242  20932952.798    20932948.009
  20703634.678   -26543938.53544 -20674425.23342  20703636.001    20703631.934
  23029513.701   -14397724.02043 -10879191.63942  23029514.828    23029509.952
  20681132.897   -26988387.53544 -20989976.58242  20681133.787    20681128.375
 04  1  1  3 16  0.0000000  0 10G17G15G30G29G26G23G18G 6G16G21
  24152779.941    -5739906.63443  -4457049.84142  24152780.668    24152777.555
  23021748.399   -13839554.61443 -10772408.36742  23021749.066    23021746.163
  24626023.915     -252013.87443    -33035.19342  24626025.784    24626022.176
  23097205.508   -12791945.03643  -9941791.00842  23097207.105    23097202.735
  21917850.722   -19481842.49243 -15176945.84642  21917852.427    21917848.144
  24593419.462    -2155822.65153  -1669591.51252  24593420.434    24593417.905
  20922975.711   -24620417.05044 -19136787.48142  20922976.853    20922972.036
  20712027.259   -26499835.24344 -20640059.05642  20712028.596    20712024.536
  23026320.983   -14414501.95643 -10892265.34442  23026322.114    23026317.200
  20678129.309   -27004171.45644 -21002275.73442  20678130.209    20678124.798
 04  1  1  3 16 30.0000000  0 10G17G15G30G29G26G23G18G 6G16G21
  24166412.992    -5668264.93843  -4401225.18442  24166413.531    24166410.571
  23008245.560   -13910512.45643 -10827700.14542  23008246.251    23008243.297
  24645570.704     -149294.41043     47005.97442  24645572.511    24645569.005
  23101802.986   -12767785.15043  -9922965.11242  23101804.585    23101800.255
  21915418.886   -19494621.80943 -15186903.74542  21915420.606    21915416.293
  24574777.666    -2253785.95943  -1745926.48042  24574778.654    24574776.216
  20913083.948   -24672398.54444 -19177292.52042  20913085.082    20913080.276
  20720507.449   -26455271.51544 -20605334.09042  20720508.801    20720504.752
  23023233.962   -14430724.33743 -10904906.14942  23023235.103    23023230.181
  20675164.843   -27019749.67244 -21014414.60642  20675165.774    20675160.385
 04  1  1  3 17  0.0000000  0  9G17G15G29G26G23G18G 6G16G21
  24180057.149    -5596564.73843  -4345354.92542  24180057.733    24180054.795
  22994761.058   -13981373.83543 -10882916.75642  22994761.766    22994758.779
  23106503.754   -12743082.41243  -9903716.21742  23106505.375    23106501.032
  21913109.473   -19506757.94343 -15196360.46242  21913111.175    21913106.867
  24556169.814    -2351570.20543  -1822122.04442  24556170.885    24556168.568
  20903276.771   -24723935.51744 -19217451.18242  20903277.919    20903273.109
  20729075.561   -26410245.92644 -20570249.24042  20729076.886    20729072.854
  23020253.038   -14446389.17843 -10917112.50442  23020254.158    23020249.271
  20672239.872   -27035120.56244 -21026391.92242  20672240.789    20672235.390
 04  1  1  3 17 30.0000000  0  9G17G15G29G26G23G18G 6G16G21
  24193711.060    -5524813.10743  -4289444.60742  24193711.693    24193708.639
  22981293.449   -14052146.19943 -10938064.01342  22981294.226    22981291.223
  23111306.324   -12717844.50043  -9884050.28742  23111307.955    23111303.633
  21910921.174   -19518257.26343 -15205320.95142  21910922.902    21910918.629
  24537595.183    -2449180.81543  -1898182.23142  24537596.273    24537593.919
  20893552.939   -24775034.53544 -19257268.58042  20893554.081    20893549.249
  20737730.053   -26364766.35144 -20534810.63442  20737731.377    20737727.332
  23017376.810   -14461503.94743 -10928890.24442  23017377.899    23017373.034
  20669353.038   -27050290.95044 -21038213.00042  20669353.969    20669348.558
 04  1  1  3 18  0.0000000  0  9G17G15G29G26G23G18G 6G16G21
  24207375.299    -5453007.66343  -4233492.34442  24207375.903    24207372.743
  22967843.418   -14122826.79543 -10993139.77842  22967844.184    22967841.126
  23116211.124   -12692069.58743  -9863965.93642  23116212.735    23116208.431
  21908854.791   -19529116.18743 -15213782.44542  21908856.494    21908852.201
  24519054.261    -2546613.87143  -1974104.12842  24519055.375    24519052.977
  20883913.041   -24825692.51344 -19296742.31142  20883914.181    20883909.351
  20746471.353   -26318830.58644 -20499016.55442  20746472.678    20746468.660
  23014605.774   -14476065.92243 -10940237.23642  23014606.871    23014601.988
  20666504.805   -27065258.50744 -21049876.02342  20666505.729    20666500.335
 04  1  1  3 18 30.0000000  0 10G17G15G29G26G23G18G 6G 2G16G21
  24221048.388    -5381155.46843  -4177503.65542  24221048.925    24221045.802
  22954409.424   -14193422.61743 -11048149.45942  22954410.212    22954407.162
  23121216.614   -12665765.54143  -9843469.27142  23121218.233    23121213.902
  21906909.110   -19539340.74443 -15221749.60842  21906910.822    21906906.531
  24500546.107    -2643874.89843  -2049891.92442  24500547.297    24500544.824
  20874355.734   -24875916.37644 -19335877.78242  20874356.881    20874352.048
  20755298.025   -26272446.35544 -20462873.02142  20755299.314    20755295.316
  25323181.445    -4022647.86453  -3110055.52152  25323182.236    25323179.255
  23011938.561   -14490082.40643 -10951159.15742  23011939.669    23011934.692
  20663693.854   -27080030.23644 -21061386.45542  20663694.767    20663689.367
 04  1  1  3 19  0.0000000  0 10G17G15G29G26G23G18G 6G 2G16G21
  24234733.622    -5309239.39843  -4121465.19942  24234734.050    24234731.161
  22940994.886   -14263916.37343 -11103079.63142  22940995.675    22940992.612
  23126326.039   -12638915.37543  -9822547.06042  23126327.650    23126323.336
  21905087.647   -19548912.75843 -15229208.30242  21905089.348    21905085.058
  24482074.192    -2740945.11143  -2125531.01442  24482075.377    24482073.017
  20864884.574   -24925687.76144 -19374660.68442  20864885.702    20864880.845
  20764213.195   -26225596.81244 -20426366.90942  20764214.500    20764210.514
  25313909.476    -4071371.89043  -3148022.26042  25313910.341    25313907.429
  23009378.408   -14503536.01743 -10961642.48142  23009379.531    23009374.541
  20660923.491   -27094588.68244 -21072730.70742  20660924.384    20660918.973
 04  1  1  3 19 30.0000000  0 10G17G15G29G26G23G18G 6G 2G16G21
  24248428.730    -5237271.49743  -4065386.35242  24248429.161    24248426.325
  22927597.431   -14334320.33143 -11157939.82142  22927598.201    22927595.114
  23131536.908   -12611532.02843  -9801209.36342  23131538.540    23131534.223
  21903388.173   -19557843.57343 -15236167.37642  21903389.852    21903385.583
  24463636.660    -2837834.89543  -2201029.54842  24463637.783    24463635.493
  20855497.237   -24975018.56344 -19413100.27042  20855498.375    20855493.481
  20773214.501   -26178294.77244 -20389508.19542  20773215.800    20773211.817
  25304709.569    -4119717.41843  -3185694.05842  25304710.493    25304707.531
  23006922.962   -14516439.05743 -10971696.80142  23006924.144    23006919.165
  20658191.360   -27108946.11544 -21083918.31742  20658192.254    20658186.859
 04  1  1  3 20  0.0000000  0 10G17G15G29G26G23G18G 6G 2G16G21
  24262133.635    -5165252.17443  -4009267.42342  24262133.871    24262131.199
  22914217.037   -14404634.41143 -11212729.96842  22914217.848    22914214.777
  23136849.039   -12583616.42143  -9779456.92242  23136850.667    23136846.366
  21901810.896   -19566132.18343 -15242626.02542  21901812.547    21901808.287
  24445233.644    -2934542.86543  -2276386.27942  24445234.844    24445232.585
  20846193.833   -25023908.27944 -19451196.14942  20846194.961    20846190.083
  20782301.777   -26130540.80844 -20352297.32742  20782303.094    20782299.118
  25295581.902    -4167683.32343  -3223070.06342  25295582.829    25295579.946
  23004572.331   -14528791.58243 -10981322.14242  23004573.509    23004568.547
  20655497.450   -27123102.64844 -21094949.37842  20655498.362    20655492.951
 04  1  1  3 20 30.0000000  0 10G17G15G29G26G23G18G 6G 2G16G21
  24275849.145    -5093177.40243  -3953105.32542  24275849.260    24275846.718
  22900854.580   -14474854.58243 -11267446.94842  22900855.366    22900852.280
  23142263.120   -12555165.27043  -9757287.17742  23142264.706    23142260.377
  21900356.712   -19573773.80843 -15248580.51542  21900358.403    21900354.098
  24426866.305    -3031063.58443  -2351597.14742  24426867.491    24426865.252
  20836975.183   -25072352.54444 -19488944.91542  20836976.321    20836971.444
  20791475.719   -26082331.37843 -20314731.55042  20791477.055    20791473.103
  25286527.509    -4215264.56643  -3260146.32142  25286528.385    25286525.435
  23002327.174   -14540589.82443 -10990515.58042  23002328.382    23002323.421
  20652842.660   -27137053.74644 -21105820.36242  20652843.567    20652838.142
